[[{"header":{"parameterUnit":"m.s-1","parameterCategory":1,"la1":30.6,"la2":29.2853,"lo1":-89.7004,"lo2":-87.6739,"dy":0.0162,"dx":0.0183,"nx":112,"ny":82,"refTime":"2024-03-29T18:00:00:Z","depth":0,"parameterNumber":2,"parameterNumberName":"U-component_of_WINDS"},"data":[0.0,0.0,0.0,0.0,0.0,0.0,0.0,0.0,0.0,0.0,0.0,0.0,0.0,0.0,0.0,0.0,0.0,0.0,0.0,0.0,0.0,0.0,0.0,0.0,0.0,0.0,0.0,0.0,0.0,0.0,0.0,0.0,0.0,0.0,0.0,0.0,0.0,0.0,0.0,0.0,0.0,0.0,0.0,0.0,0.0,0.0,0.0,0.0,0.0,0.0,0.0,0.0,0.0,0.0,0.0,0.0,0.0,0.0,0.0,0.0,0.0,0.0,0.0,0.0,0.0,0.0,0.0,0.0,0.0,0.0,0.0,0.0,0.0,0.0,0.0,0.0,0.0,0.0,0.0,0.0,0.0,0.0,0.0,0.0,0.0,0.0,0.0,0.0,0.0,0.0,-5.151,-5.96,-7.1398,-7.8438,-7.7746,-7.6169,-6.9783,-5.7088,0.0,0.0,0.0,0.0,0.0,0.0,0.0,0.0,0.0,0.0,0.0,0.0,0.0,0.0,0.0,0.0,0.0,0.0,0.0,0.0,0.0,0.0,0.0,0.0,0.0,0.0,0.0,0.0,0.0,0.0,0.0,0.0,0.0,0.0,0.0,0.0,0.0,0.0,0.0,0.0,0.0,0.0,0.0,0.0,0.0,0.0,0.0,0.0,0.0,0.0,0.0,0.0,0.0,0.0,0.0,0.0,0.0,0.0,0.0,0.0,0.0,0.0,0.0,0.0,0.0,0.0,0.0,0.0,0.0,0.0,0.0,0.0,0.0,0.0,0.0,0.0,0.0,0.0,0.0,0.0,0.0,0.0,0.0,0.0,0.0,0.0,0.0,0.0,0.0,0.0,0.0,0.0,0.0,0.0,0.0,0.0,0.0,0.0,0.0,0.0,0.0,0.0,0.0,0.0,-5.4631,-6.8603,-7.5784,-7.9554,-7.9438,-7.4668,-6.8013,-5.9473,0.0,0.0,0.0,0.0,0.0,0.0,0.0,0.0,0.0,0.0,0.0,0.0,0.0,0.0,0.0,0.0,0.0,0.0,0.0,0.0,0.0,0.0,0.0,0.0,0.0,0.0,0.0,0.0,0.0,0.0,0.0,0.0,0.0,0.0,0.0,0.0,0.0,0.0,0.0,0.0,0.0,0.0,0.0,0.0,0.0,0.0,0.0,0.0,0.0,0.0,0.0,0.0,0.0,0.0,0.0,0.0,0.0,0.0,0.0,0.0,0.0,0.0,0.0,0.0,0.0,0.0,0.0,0.0,0.0,0.0,0.0,0.0,0.0,0.0,0.0,0.0,0.0,0.0,0.0,0.0,0.0,0.0,0.0,0.0,0.0,0.0,0.0,0.0,0.0,0.0,0.0,0.0,0.0,0.0,0.0,0.0,0.0,0.0,0.0,0.0,0.0,0.0,0.0,-5.1982,-5.9045,-7.1552,-7.5822,-7.7746,-7.7746,-7.2706,-6.609,-5.7934,-5.3049,0.0,0.0,0.0,0.0,0.0,0.0,0.0,0.0,0.0,0.0,0.0,0.0,0.0,0.0,0.0,0.0,0.0,0.0,0.0,0.0,0.0,0.0,0.0,0.0,0.0,0.0,0.0,0.0,0.0,0.0,0.0,0.0,0.0,0.0,0.0,0.0,0.0,0.0,0.0,0.0,0.0,0.0,0.0,0.0,0.0,0.0,0.0,0.0,0.0,0.0,0.0,0.0,0.0,0.0,0.0,0.0,0.0,0.0,0.0,0.0,0.0,0.0,0.0,0.0,0.0,0.0,0.0,0.0,0.0,0.0,0.0,0.0,0.0,0.0,0.0,0.0,0.0,0.0,0.0,0.0,0.0,0.0,0.0,0.0,0.0,0.0,0.0,0.0,0.0,0.0,0.0,0.0,0.0,0.0,0.0,0.0,0.0,0.0,0.0,0.0,0.0,0.0,-5.7703,-6.3243,-7.2245,-7.4899,-7.5822,-7.5438,-7.036,-6.382,-5.5934,-5.0087,0.0,0.0,0.0,0.0,0.0,0.0,0.0,0.0,0.0,0.0,0.0,0.0,0.0,0.0,0.0,0.0,0.0,0.0,0.0,0.0,0.0,0.0,0.0,0.0,0.0,0.0,0.0,0.0,0.0,0.0,0.0,0.0,0.0,0.0,0.0,0.0,0.0,0.0,0.0,0.0,0.0,0.0,0.0,0.0,0.0,0.0,0.0,0.0,0.0,0.0,0.0,0.0,0.0,0.0,0.0,0.0,0.0,0.0,0.0,0.0,0.0,0.0,0.0,0.0,0.0,0.0,0.0,0.0,0.0,0.0,0.0,0.0,0.0,0.0,0.0,0.0,0.0,0.0,0.0,0.0,0.0,0.0,0.0,0.0,0.0,0.0,0.0,0.0,0.0,0.0,0.0,0.0,0.0,0.0,0.0,0.0,0.0,0.0,0.0,0.0,0.0,0.0,-5.9165,-6.6244,-7.1706,-7.4514,-7.5361,-7.3822,-6.7513,-6.105,-5.4972,-4.7586,0.0,0.0,0.0,0.0,0.0,0.0,0.0,0.0,0.0,0.0,0.0,0.0,0.0,0.0,0.0,0.0,0.0,0.0,0.0,0.0,0.0,0.0,0.0,0.0,0.0,0.0,0.0,0.0,0.0,0.0,0.0,0.0,0.0,0.0,0.0,0.0,0.0,0.0,0.0,0.0,0.0,0.0,0.0,0.0,0.0,0.0,0.0,0.0,0.0,0.0,0.0,0.0,0.0,0.0,0.0,0.0,0.0,0.0,0.0,0.0,0.0,0.0,0.0,0.0,0.0,0.0,0.0,0.0,0.0,0.0,0.0,0.0,0.0,0.0,0.0,0.0,0.0,0.0,0.0,0.0,0.0,0.0,0.0,0.0,0.0,0.0,0.0,0.0,0.0,0.0,0.0,0.0,0.0,0.0,0.0,0.0,0.0,0.0,0.0,0.0,0.0,0.0,-5.6538,-6.2627,-6.986,-7.1514,-7.1591,-7.0437,-6.5551,-5.955,-5.2549,0.0,0.0,0.0,0.0,0.0,0.0,0.0,0.0,0.0,0.0,0.0,0.0,0.0,0.0,0.0,0.0,0.0,0.0,0.0,0.0,0.0,0.0,0.0,0.0,0.0,0.0,0.0,0.0,0.0,0.0,0.0,0.0,0.0,0.0,0.0,0.0,0.0,0.0,0.0,0.0,0.0,0.0,0.0,0.0,0.0,0.0,0.0,0.0,0.0,0.0,0.0,0.0,0.0,0.0,0.0,0.0,0.0,0.0,0.0,0.0,0.0,0.0,0.0,0.0,0.0,0.0,0.0,0.0,0.0,0.0,0.0,0.0,0.0,0.0,0.0,0.0,0.0,0.0,0.0,0.0,0.0,0.0,0.0,0.0,0.0,0.0,0.0,0.0,0.0,0.0,0.0,0.0,0.0,0.0,0.0,0.0,0.0,0.0,0.0,0.0,0.0,0.0,-5.0202,-5.5,-6.0435,-6.7359,-6.8552,-6.8321,-6.6898,-6.2435,-5.6868,-5.0279,0.0,0.0,0.0,0.0,0.0,0.0,0.0,0.0,0.0,0.0,0.0,0.0,0.0,0.0,0.0,0.0,0.0,0.0,0.0,0.0,0.0,0.0,0.0,0.0,0.0,0.0,0.0,0.0,0.0,0.0,0.0,0.0,0.0,0.0,0.0,0.0,0.0,0.0,0.0,0.0,0.0,0.0,0.0,0.0,0.0,0.0,0.0,0.0,0.0,0.0,0.0,0.0,0.0,0.0,0.0,0.0,0.0,0.0,0.0,0.0,0.0,0.0,0.0,0.0,0.0,0.0,0.0,0.0,0.0,0.0,0.0,0.0,0.0,0.0,0.0,0.0,0.0,0.0,0.0,0.0,0.0,0.0,0.0,0.0,0.0,0.0,0.0,0.0,0.0,0.0,0.0,0.0,0.0,0.0,0.0,0.0,0.0,0.0,0.0,0.0,0.0,0.0,-4.8856,-5.528,-6.0781,-6.4205,-6.6051,-6.6013,-6.3512,-5.7896,-5.2664,0.0,0.0,0.0,0.0,0.0,0.0,0.0,0.0,0.0,0.0,0.0,0.0,0.0,0.0,0.0,0.0,0.0,0.0,0.0,0.0,0.0,0.0,0.0,0.0,0.0,0.0,0.0,0.0,0.0,0.0,0.0,0.0,0.0,0.0,0.0,0.0,0.0,0.0,0.0,0.0,0.0,0.0,0.0,0.0,0.0,0.0,0.0,0.0,0.0,0.0,0.0,0.0,0.0,0.0,0.0,0.0,0.0,0.0,0.0,0.0,0.0,0.0,0.0,0.0,0.0,0.0,0.0,0.0,0.0,0.0,0.0,0.0,0.0,0.0,0.0,0.0,0.0,0.0,0.0,0.0,0.0,0.0,0.0,0.0,0.0,0.0,0.0,0.0,0.0,0.0,0.0,0.0,0.0,0.0,0.0,0.0,0.0,0.0,0.0,0.0,0.0,0.0,0.0,-4.8856,-5.428,-5.9242,-6.3281,-6.4128,-6.3628,-6.1704,-5.7742,-5.301,-4.7586,0.0,0.0,0.0,0.0,0.0,0.0,0.0,0.0,0.0,0.0,0.0,0.0,0.0,0.0,0.0,0.0,0.0,0.0,0.0,0.0,0.0,0.0,0.0,0.0,0.0,0.0,0.0,0.0,0.0,0.0,0.0,0.0,0.0,0.0,0.0,0.0,0.0,0.0,0.0,0.0,0.0,0.0,0.0,0.0,0.0,0.0,0.0,0.0,0.0,0.0,0.0,0.0,0.0,0.0,0.0,0.0,0.0,0.0,0.0,0.0,0.0,0.0,0.0,0.0,0.0,0.0,0.0,0.0,0.0,0.0,0.0,0.0,0.0,0.0,0.0,0.0,0.0,0.0,0.0,0.0,0.0,0.0,0.0,0.0,0.0,0.0,0.0,0.0,0.0,0.0,0.0,0.0,0.0,0.0,0.0,0.0,0.0,0.0,0.0,0.0,0.0,0.0,-4.8355,-5.3318,-5.7973,-6.1897,-6.2627,-6.2012,-5.9973,-5.6665,-5.2472,-4.7231,0.0,0.0,0.0,0.0,0.0,0.0,0.0,0.0,0.0,0.0,0.0,0.0,0.0,0.0,0.0,0.0,0.0,0.0,0.0,0.0,0.0,0.0,0.0,0.0,0.0,0.0,0.0,0.0,0.0,0.0,0.0,0.0,0.0,0.0,0.0,0.0,0.0,0.0,0.0,0.0,0.0,0.0,0.0,0.0,0.0,0.0,0.0,0.0,0.0,0.0,0.0,0.0,0.0,0.0,0.0,0.0,0.0,0.0,0.0,0.0,0.0,0.0,0.0,0.0,0.0,0.0,0.0,0.0,0.0,0.0,0.0,0.0,0.0,0.0,0.0,0.0,0.0,0.0,0.0,0.0,0.0,0.0,0.0,0.0,0.0,0.0,0.0,0.0,0.0,0.0,0.0,0.0,0.0,0.0,0.0,0.0,0.0,0.0,0.0,0.0,0.0,0.0,-4.7548,-5.2472,-5.6934,-6.0435,-6.1435,-6.0896,-5.8511,-5.5164,-5.1395,-4.7154,0.0,0.0,0.0,0.0,0.0,0.0,0.0,0.0,0.0,0.0,0.0,0.0,0.0,0.0,0.0,0.0,0.0,0.0,0.0,0.0,0.0,0.0,0.0,0.0,0.0,0.0,0.0,0.0,0.0,0.0,0.0,0.0,0.0,0.0,0.0,0.0,0.0,0.0,0.0,0.0,0.0,0.0,0.0,0.0,0.0,0.0,0.0,0.0,0.0,0.0,0.0,0.0,0.0,0.0,0.0,0.0,0.0,0.0,0.0,0.0,-4.8856,0.0,0.0,0.0,0.0,0.0,0.0,0.0,0.0,0.0,0.0,0.0,0.0,0.0,0.0,0.0,0.0,0.0,0.0,0.0,0.0,0.0,0.0,0.0,0.0,0.0,0.0,0.0,0.0,0.0,0.0,0.0,0.0,0.0,0.0,0.0,0.0,0.0,0.0,0.0,0.0,0.0,-4.7548,-5.201,-5.6319,-6.0358,-6.0358,-5.9588,-5.8396,-5.5164,-5.1395,-4.7154,-4.4162,0.0,0.0,0.0,0.0,0.0,0.0,0.0,0.0,0.0,0.0,0.0,0.0,0.0,0.0,0.0,0.0,0.0,0.0,0.0,0.0,0.0,0.0,0.0,0.0,0.0,0.0,0.0,0.0,0.0,0.0,0.0,0.0,0.0,0.0,0.0,0.0,0.0,0.0,0.0,0.0,0.0,0.0,0.0,0.0,0.0,0.0,0.0,0.0,0.0,0.0,0.0,0.0,0.0,0.0,0.0,0.0,0.0,0.0,0.0,0.0,-5.1433,0.0,0.0,0.0,0.0,0.0,0.0,0.0,0.0,0.0,0.0,0.0,0.0,0.0,0.0,0.0,0.0,0.0,0.0,0.0,0.0,0.0,0.0,0.0,0.0,0.0,0.0,0.0,0.0,0.0,0.0,0.0,0.0,0.0,0.0,0.0,0.0,0.0,0.0,0.0,0.0,-4.7548,-5.1125,-5.4895,-5.9127,-5.9204,-5.8588,-5.7742,-5.4934,-5.1741,-4.8317,-4.4932,0.0,0.0,0.0,0.0,0.0,0.0,0.0,0.0,0.0,0.0,0.0,0.0,0.0,0.0,0.0,0.0,0.0,0.0,0.0,0.0,0.0,0.0,0.0,0.0,0.0,0.0,0.0,0.0,0.0,0.0,0.0,0.0,0.0,0.0,0.0,0.0,0.0,0.0,0.0,0.0,0.0,0.0,0.0,0.0,0.0,0.0,0.0,0.0,0.0,0.0,0.0,0.0,0.0,-6.2435,-6.4089,-6.5269,-6.5269,-6.6013,-6.6859,-6.055,-5.7049,-5.5626,-5.3241,0.0,0.0,0.0,0.0,0.0,0.0,0.0,0.0,0.0,0.0,0.0,0.0,0.0,0.0,0.0,0.0,0.0,0.0,0.0,0.0,0.0,0.0,0.0,0.0,-5.1587,-5.2202,0.0,0.0,0.0,0.0,0.0,0.0,0.0,0.0,0.0,0.0,0.0,0.0,-4.7778,-5.0538,-5.3692,-5.7857,-5.8165,-5.7703,-5.6868,-5.4587,-5.2049,-4.9356,-4.5778,-4.2777,0.0,0.0,0.0,0.0,0.0,0.0,0.0,0.0,0.0,0.0,0.0,0.0,0.0,0.0,0.0,0.0,0.0,0.0,0.0,0.0,0.0,0.0,0.0,0.0,0.0,0.0,0.0,0.0,0.0,0.0,0.0,0.0,-4.4126,-4.5162,0.0,0.0,0.0,0.0,0.0,0.0,0.0,0.0,0.0,0.0,0.0,0.0,0.0,-5.8242,-6.0562,-6.5436,-6.7975,-6.8244,-7.2129,-7.3707,-7.3206,-7.3206,-7.2937,-7.2437,-7.1437,0.0,-6.0947,-5.9088,0.0,0.0,0.0,0.0,0.0,0.0,0.0,0.0,0.0,0.0,0.0,0.0,0.0,0.0,0.0,0.0,0.0,0.0,0.0,0.0,0.0,0.0,-5.3818,-5.4511,-5.5049,-5.4741,0.0,-4.924,-4.6201,-4.4316,-4.3393,0.0,0.0,0.0,0.0,0.0,0.0,0.0,-4.8702,-5.1433,-5.4395,-5.7934,-5.7627,-5.683,-5.5934,-5.4241,-5.1779,-4.8471,-4.7086,-4.4624,-4.0669,-4.0169,0.0,0.0,0.0,0.0,0.0,0.0,0.0,0.0,0.0,0.0,0.0,0.0,0.0,0.0,0.0,0.0,0.0,0.0,0.0,0.0,0.0,0.0,0.0,0.0,0.0,0.0,0.0,0.0,0.0,-4.4423,-4.612,-4.5782,-4.6266,-4.6094,0.0,0.0,0.0,0.0,0.0,0.0,0.0,0.0,0.0,-6.132,-6.3551,-6.5705,-6.7744,-7.2322,-7.4899,-7.5399,-7.8207,-7.9592,-7.9669,-7.8746,-7.8361,-7.84,-7.7438,-7.4322,-6.9513,-6.4436,-5.9935,-5.5857,0.0,0.0,0.0,0.0,-4.9856,-5.0779,-5.2125,-5.2587,0.0,-5.1779,0.0,0.0,0.0,0.0,0.0,0.0,0.0,0.0,0.0,0.0,0.0,-5.6857,-5.7896,-5.8088,-5.6434,-5.3857,-5.0625,0.0,-4.547,-4.4393,-4.17,0.0,0.0,0.0,0.0,-4.5509,-4.8317,-5.0894,-5.3433,-5.5895,-5.5818,-5.5434,-5.5049,-5.3049,-5.0933,-4.8971,-4.7163,-4.5124,-4.2739,-4.1739,-4.0315,0.0,0.0,0.0,0.0,0.0,0.0,0.0,0.0,0.0,0.0,0.0,0.0,0.0,0.0,0.0,0.0,0.0,0.0,0.0,0.0,0.0,0.0,0.0,0.0,0.0,0.0,0.0,0.0,-4.6871,-4.858,-4.6787,-4.9524,-5.0097,0.0,0.0,0.0,0.0,0.0,0.0,-5.9305,-6.0497,-6.3296,-6.8128,-7.0569,-7.2853,-7.5142,-7.8711,-8.0943,-8.1747,-8.3247,-8.4055,-8.4209,-8.2939,-8.2362,-8.2247,-8.0977,-7.9131,-7.6476,-6.9898,-6.4936,-6.1166,-5.8242,-5.6434,-5.5434,-5.5241,-5.5703,-5.6626,-5.7868,-5.8176,-5.7715,-5.6011,0.0,-5.2587,-4.9202,0.0,0.0,0.0,0.0,-5.0471,-5.3664,-5.5434,-5.678,-5.855,-5.9896,-6.0396,-5.8934,-5.7242,-5.4549,0.0,-4.8009,-4.6586,-4.3615,0.0,0.0,0.0,0.0,-4.6624,-4.8509,-5.0577,-5.2462,-5.401,-5.4164,-5.3972,-5.3549,-5.1789,-5.0173,-4.8856,-4.6971,-4.5432,-4.4355,-4.3085,-4.1931,-4.0854,0.0,0.0,0.0,0.0,0.0,0.0,0.0,0.0,0.0,0.0,0.0,0.0,0.0,0.0,0.0,0.0,0.0,0.0,0.0,0.0,0.0,0.0,0.0,0.0,0.0,0.0,0.0,0.0,0.0,-4.9076,-5.4098,0.0,0.0,0.0,0.0,-5.4975,-5.7977,-6.1279,-6.4639,-6.637,-6.9552,-7.4568,-7.6459,-7.9274,-8.3173,-8.5006,-8.6279,-8.7017,-8.794,-8.7517,-8.5978,-8.5901,-8.4555,-8.2285,-8.2208,-8.1208,-7.9323,-7.5707,-7.1245,-6.6551,-6.4782,-6.3089,-6.1562,-6.0704,-6.0973,-6.1716,-6.1831,-6.1293,-6.0704,-6.1408,-5.9446,-5.656,-5.5511,-5.4087,0.0,0.0,-5.4164,-5.478,-5.7357,-5.8127,-5.8588,-6.0281,-6.0742,-6.055,-5.9627,-5.8127,-5.6137,0.0,-5.0933,-4.8702,-4.6971,0.0,-4.5479,-4.5441,-4.6201,-4.774,-5.025,-5.1356,-5.2231,-5.3164,-5.328,-5.2626,-5.102,-5.0789,-4.9663,-4.7201,-4.6923,-4.6086,-4.4355,-4.4201,-4.3393,-4.1769,-4.0854,0.0,0.0,0.0,0.0,0.0,0.0,0.0,0.0,0.0,0.0,0.0,0.0,0.0,0.0,0.0,0.0,0.0,0.0,0.0,0.0,0.0,0.0,0.0,0.0,0.0,0.0,0.0,0.0,-5.6661,-6.1274,0.0,-5.765,-5.8301,-5.9869,-6.1964,-6.4429,-6.7831,-7.2413,-7.4265,-7.7316,-8.2073,-8.3372,-8.5188,-8.7713,-8.8864,-8.9033,-8.8248,-8.8556,-8.7517,-8.5324,-8.4747,-8.367,-8.2285,-8.1747,-8.1208,-8.0554,-7.9323,-7.613,-7.1783,-6.9513,-6.7975,-6.6821,-6.5359,-6.5397,-6.6051,-6.5513,-6.4782,-6.3782,-6.1858,-5.9319,-5.6934,-5.6626,-5.5742,-5.4972,-5.5857,-5.6511,-5.728,-5.8704,-5.9473,-6.005,-6.0666,-6.0358,-5.9896,-5.9588,-5.8165,-5.6714,-5.5818,-5.3126,-5.0317,-4.8048,-4.7894,-4.7663,-4.6586,-4.7625,-4.8856,-4.974,-5.1048,-5.2,-5.2308,-5.1895,-5.1356,-5.075,-4.9202,-4.7855,-4.6962,-4.5855,-4.5201,-4.5133,-4.4586,-4.4008,-4.3431,-4.3085,-4.1585,0.0,0.0,0.0,0.0,0.0,0.0,0.0,0.0,0.0,0.0,0.0,0.0,0.0,0.0,0.0,0.0,0.0,0.0,0.0,0.0,0.0,0.0,0.0,0.0,0.0,-5.6668,-6.1449,-6.2507,-6.7882,-6.9811,-6.5491,-6.605,-6.7631,-6.9953,-7.1637,-7.4487,-7.8775,-8.0099,-8.2348,-8.5895,-8.6548,-8.7497,-8.8896,-8.9638,-8.917,-8.7481,-8.7718,-8.6478,-8.4016,-8.3401,-8.2708,-8.1862,-8.1323,-8.1093,-8.1093,-8.0785,-7.8977,-7.6207,-7.4245,-7.2591,-7.1206,-6.9783,-6.9436,-6.9475,-6.8052,-6.7013,-6.582,-6.3012,-6.055,-5.8704,-5.8715,-5.8099,-5.755,-5.8127,-5.8704,-5.9281,-5.9781,-6.0358,-6.0742,-6.0435,-5.9935,-5.9435,-5.9165,-5.7973,-5.6983,-5.6983,-5.4703,-5.2164,-5.0164,-4.9817,-4.9471,-4.8355,-4.8894,-4.951,-4.9779,-5.0818,-5.1395,-5.1087,-5.0587,-5.001,-4.9471,-4.7855,-4.6778,-4.6471,-4.5393,-4.5017,-4.5594,-4.4739,-4.4316,-4.4316,-4.4047,-4.2508,-3.9708,0.0,0.0,0.0,0.0,0.0,0.0,0.0,0.0,0.0,0.0,0.0,0.0,0.0,0.0,0.0,0.0,0.0,0.0,0.0,0.0,0.0,0.0,0.0,-5.377,-6.1459,-6.6775,-6.6334,-7.3709,-7.6667,-7.1278,-7.4154,-7.7047,-7.8662,-7.9507,-8.1007,-8.3357,-8.3504,-8.4202,-8.5775,-8.5882,-8.6237,-8.6929,-8.7523,-8.6938,-8.5141,-8.5755,-8.4747,-8.2285,-8.2285,-8.1862,-8.1093,-8.1093,-8.1093,-8.0977,-8.0169,-7.9746,-7.9592,-7.8746,-7.6899,-7.463,-7.3783,-7.2899,-7.1745,-6.9244,-6.7821,-6.6821,-6.5166,-6.3512,-6.2139,-6.2139,-6.1524,-6.0781,-6.0781,-6.0781,-6.0781,-6.0781,-6.0781,-6.0589,-5.9742,-5.9511,-5.9242,-5.8473,-5.7588,-5.6945,-5.6945,-5.5626,-5.4241,-5.3395,-5.1895,-5.0789,-5.075,-5.001,0.0,-5.0596,-5.0712,-5.0366,-4.951,-4.9433,-4.874,-4.7077,-4.6923,-4.6547,-4.5671,-4.5556,-4.5556,-4.5594,-4.4739,-4.4316,-4.4308,-4.3547,-4.2277,-4.0538,0.0,0.0,0.0,0.0,0.0,0.0,0.0,0.0,0.0,0.0,0.0,0.0,0.0,0.0,0.0,0.0,0.0,0.0,0.0,0.0,0.0,-5.479,-5.9453,-6.1154,-6.7358,-7.3023,-7.6427,-8.0966,-8.299,-8.0855,-8.1631,-8.2443,-8.292,-8.3691,-8.4396,-8.496,-8.5547,-8.6006,-8.6359,-8.7434,-8.7863,-8.7473,-8.8124,-8.7561,-8.5828,-8.5411,-8.4209,-8.2285,-8.2285,-8.1862,-8.1093,-8.1093,-8.0746,-8.0131,-7.99,-7.8707,-7.7015,-7.6784,-7.6245,-7.5399,-7.3322,-7.1629,-7.009,-6.8129,-6.7282,-6.6936,-6.5859,-6.4397,-6.2974,-6.2974,-6.1935,-6.0781,-6.0781,-6.0781,-6.0781,-6.0781,-6.0781,-6.0742,-6.0512,-5.9511,-5.8588,-5.8357,-5.7126,-5.6049,-5.6049,-5.5703,-5.5126,-5.428,-5.3741,-5.301,-5.1779,-5.1356,0.0,-5.075,-5.0712,-5.0596,-5.0366,-4.9779,-4.8971,-4.7855,-4.724,-4.6547,-4.5671,-4.5017,-4.4932,-4.5556,-4.4739,-4.4468,-4.485,-4.4267,-4.3307,0.0,0.0,0.0,0.0,0.0,0.0,0.0,0.0,0.0,0.0,0.0,0.0,0.0,0.0,0.0,0.0,0.0,0.0,0.0,0.0,0.0,0.0,-6.0384,-6.6092,-6.977,-7.4022,-7.8295,-8.2517,-8.527,-8.6885,-8.7105,-8.6811,-8.6628,-8.6628,-8.6738,-8.6498,-8.5731,-8.6132,-8.6351,-8.6271,-8.6807,-8.6842,-8.629,-8.6611,-8.5858,-8.4072,-8.3879,-8.3093,-8.1785,-8.1785,-8.1323,0.0,-8.0554,-8.0054,-7.9246,-7.89,-7.7669,0.0,0.0,0.0,0.0,0.0,-7.0321,-6.8975,-6.759,-6.6859,-6.6436,-6.5628,-6.4205,-6.2781,-6.2781,-6.1858,-6.0781,-6.0781,-6.0781,-6.0781,-6.0781,-6.0781,-6.0704,-6.0319,-5.9511,-5.8627,-5.7896,-5.6973,-5.6137,-5.578,0.0,0.0,-5.5088,-5.4703,-5.4049,-5.2654,-5.2115,-5.1625,-5.0789,-5.0712,-5.0442,-4.9702,-4.9163,-4.8355,-4.7163,-4.6624,0.0,0.0,0.0,-4.4893,-4.5056,-4.4586,0.0,0.0,0.0,-4.3934,-4.3579,0.0,0.0,0.0,-4.1767,-4.1893,0.0,0.0,0.0,0.0,0.0,0.0,0.0,0.0,0.0,0.0,0.0,0.0,0.0,0.0,0.0,0.0,-6.5625,-7.1908,-7.8259,-8.0534,-8.2627,-8.56,-8.7435,-8.8977,-9.0225,-8.9784,-8.9345,-8.9235,-8.861,-8.7545,-8.6004,0.0,0.0,0.0,0.0,-8.4511,-8.4033,-8.3998,-8.3058,-8.1225,-8.1793,-8.1683,-8.0991,-8.1077,-8.0631,-7.9823,-7.9823,-7.9246,-7.8284,-7.7476,-7.6476,-7.5438,-7.5438,-7.3937,-7.1591,-6.9975,-6.8936,-6.8129,-6.7244,0.0,0.0,-6.4897,-6.3512,-6.2216,-6.2139,-6.1473,-6.0781,-6.0781,-6.0781,-6.0781,-6.0781,-6.0781,-6.0589,-5.9819,-5.9588,-5.9088,-5.7599,-5.7137,-5.6791,-5.6011,-5.578,-5.5703,-5.5703,-5.5126,-5.4318,-5.3356,-5.2538,-5.1741,-5.0827,-5.0712,-5.0048,-4.8432,0.0,0.0,-4.5819,-4.5666,-4.5618,-4.5514,-4.5475,-4.513,-4.4353,-4.4379,-4.4379,-4.4314,-4.4105,-4.4374,-4.5115,-4.5148,-4.5169,-4.5093,-4.3136,-4.3047,0.0,0.0,0.0,0.0,0.0,0.0,0.0,0.0,0.0,0.0,0.0,0.0,0.0,0.0,0.0,-6.52,-7.1029,-7.6533,-8.1746,-8.3875,-8.5343,-8.6628,-8.8757,-8.9748,-8.8757,-8.9124,-8.916,-8.85,-8.828,-8.7766,-8.6811,-8.6151,-8.549,-8.4866,-8.5181,-8.4458,-8.2481,-8.2911,-8.2288,-8.0651,0.0,0.0,-8.0315,-8.0855,-8.0631,-7.9823,-7.9823,-7.8938,-7.7476,-7.6592,-7.4514,-7.1898,-7.1898,-7.0744,-6.9013,-6.7975,-6.7513,-6.7244,-6.6397,-6.6013,-6.5743,-6.4897,-6.3897,-6.2935,-6.2293,-6.1473,0.0,-6.0781,-6.0781,-6.0781,-6.0781,-6.0781,-6.0742,-6.0589,-6.0012,-5.9396,-5.9088,-5.7934,-5.6945,-5.6791,-5.6175,-5.5703,-5.5703,-5.5549,-5.4934,-5.3433,-5.3049,-5.2395,-5.0904,-5.0712,-5.0289,-4.924,-4.9163,-4.8356,-4.6341,-4.6167,-4.5764,-4.4862,-4.48,-4.4724,-4.4535,-4.4805,-4.4827,-4.4535,-4.5023,-4.5189,-4.5115,-4.5381,-4.5485,-4.5485,-4.5068,-4.5056,0.0,0.0,0.0,0.0,0.0,0.0,0.0,0.0,0.0,0.0,0.0,-5.1236,-5.4491,0.0,-6.5136,-7.0027,-7.5161,-7.969,-8.2957,-8.5123,-8.6848,-8.8059,-8.8904,-8.9417,-8.9417,-8.9417,-8.9087,-8.828,-8.8206,-8.7655,-8.6444,-8.5637,-8.5013,-8.4609,-8.3746,-8.2883,-8.1969,-8.1758,-8.121,-8.0309,-8.0487,-8.0608,-8.0608,-8.0959,-8.04,-7.9131,-7.9131,-7.7938,-7.5861,-7.4168,-7.2206,-7.0206,-6.9321,-6.8475,-6.7705,-6.7244,-6.6859,-6.6359,-6.5551,-6.4974,-6.4474,-6.3628,-6.2743,-6.1973,-6.155,-6.1127,-6.0781,-6.0781,-6.0781,-6.0781,-6.0781,-6.0781,-6.0781,-6.0781,-6.0473,-6.0012,-5.9588,-5.8511,-5.7511,-5.7099,-5.6291,-5.5703,-5.5703,-5.5703,-5.5126,-5.3433,-5.3203,-5.2587,-5.0943,-5.0712,-5.0366,-4.9471,-4.9009,-4.8155,-4.6722,-4.6042,-4.5479,-4.4898,-4.4701,-4.4612,-4.4612,-4.4763,-4.4776,-4.4612,-4.4931,-4.5011,-4.4849,-4.5191,-4.5361,-4.5371,-4.5532,-4.5594,0.0,0.0,0.0,0.0,0.0,0.0,0.0,-4.5296,-4.7425,-5.0288,-5.3865,-5.7553,-6.1141,-6.6312,-7.1011,-7.414,-7.8222,-8.1636,-8.3398,-8.5196,-8.6848,-8.8281,-8.8316,-8.8647,-8.9784,-8.9307,-8.861,-8.7802,-8.7876,-8.7252,-8.5637,-8.4792,-8.4315,-8.4132,-8.1929,-8.0985,-8.1419,-8.0629,-8.0121,-7.9929,-8.0591,-8.0888,-8.0888,-8.1061,-8.0131,-7.8477,-7.8169,-7.6669,-7.4284,-7.2052,-7.0475,-6.9283,-6.7705,-6.7013,-6.6859,-6.6859,-6.6359,-6.5551,-6.4859,-6.4051,-6.3166,-6.2358,-6.1639,-6.1012,-6.0858,-6.0781,-6.0781,-6.0781,-6.0781,-6.0781,-6.0781,-6.0781,-6.0781,-6.0781,-6.0781,-6.0589,-5.9896,-5.9127,-5.8319,-5.7627,-5.6676,-5.5934,-5.5934,-5.5818,-5.5203,-5.3664,-5.3433,-5.2856,-5.1164,-5.0933,-5.0548,-4.951,-4.8779,-4.7914,-4.6858,-4.5698,-4.4966,-4.4908,-4.4625,-4.4441,-4.4411,-4.4465,-4.4468,-4.4468,-4.4572,-4.4612,-4.4612,-4.4931,-4.5115,-4.5126,-4.5438,-4.5594,-4.3277,-4.1772,-4.1829,-4.3664,-4.4305,-4.6104,0.0,-5.3628,-5.462,-5.9171,-6.1655,-6.3821,-6.6429,-7.0358,-7.425,-7.7524,-7.9727,-8.1819,-8.4132,-8.4095,-8.4132,-8.5049,-8.6958,-8.7986,-8.7472,-8.7325,-8.6921,-8.6114,-8.6738,-8.6444,-8.4829,-8.3985,-8.3214,-8.248,-8.0828,-7.9872,-7.9772,-7.963,-7.9503,-7.9313,-7.9908,-8.0201,-8.022,-8.0838,-8.0131,-7.84,-7.6938,-7.5284,-7.3553,-7.2476,-7.0667,-6.8436,-6.7475,-6.6667,-6.6013,-6.6013,-6.5474,-6.4743,-6.4628,-6.4051,-6.3166,-6.2358,-6.2024,-6.1831,-6.1012,-6.0781,-6.0781,-6.0781,-6.0781,-6.0781,-6.0781,-6.0781,-6.0781,-6.0781,-6.0781,-6.0781,-6.0666,-5.9973,-5.9358,-5.9242,-5.7934,-5.6868,-5.6868,-5.6214,-5.5395,-5.4472,-5.4357,-5.3741,-5.2,-5.1769,-5.1164,-4.9586,-4.9317,-4.8461,-4.6538,-4.5316,-4.4495,-4.4146,-4.4087,-4.3943,-4.3631,-4.3912,-4.4058,-4.4058,-4.4401,-4.4612,-4.4612,-4.4931,-4.5115,-4.5126,-4.5438,-4.5594,-4.5223,-4.4488,-4.4948,-4.6415,-4.86,-5.1499,-5.5978,-5.818,-6.0419,-6.4347,-6.721,-6.9596,-7.1541,-7.4808,-7.7708,-7.9066,-8.0645,-8.2039,-8.3067,-8.292,-8.2296,-8.1232,-8.2847,-8.4425,-8.549,-8.56,-8.5453,-8.5123,-8.5857,-8.56,-8.3985,-8.3141,-8.2333,-8.1525,-7.9947,-7.9245,-7.9474,-7.9376,-7.9444,-7.9706,-8.0352,-8.043,-7.9932,-8.0245,-7.94,-7.7669,-7.5476,-7.4168,-7.3308,-7.0975,-6.936,-6.8282,-6.6936,-6.6205,-6.5897,-6.5897,-6.5667,-6.5205,-6.4205,-6.3589,-6.3089,-6.1781,-6.1331,-6.1293,-6.0896,-6.0781,-6.0781,-6.0781,-6.0781,-6.0781,-6.0781,-6.0781,-6.0781,-6.0781,-6.0781,-6.0781,-6.0781,-6.0127,-5.9511,-5.9511,-5.8165,-5.6983,-5.6983,-5.6291,-5.5495,-5.4927,-5.4633,-5.4049,-5.2818,-5.2192,-5.1269,-4.9586,-4.9394,-4.8664,-4.6829,-4.5993,-4.5218,-4.4397,-4.4117,-4.3849,-4.3532,-4.3647,-4.371,-4.371,-4.408,-4.4247,-4.4247,-4.4612,-4.4908,-4.5115,-4.5243,-4.5678,-4.6324,-4.6838,-4.8159,-4.9627,-5.3041,-5.6822,-5.9685,-6.2658,-6.5742,-6.9009,-7.1725,-7.3927,-7.5322,-7.7708,-7.9543,-7.9764,-8.0755,-8.1599,-8.1819,-8.0901,-7.947,-7.7488,-7.7488,-7.8626,-8.1048,-8.27,-8.3618,-8.3618,-8.4352,-8.4095,-8.248,-8.1856,-8.1158,-8.0351,-7.8993,-7.8544,-7.9139,-7.9029,-7.9335,-8.0087,-8.0378,-8.0251,-7.9785,-7.9323,-7.8323,-7.6823,-7.4745,-7.3591,-7.2899,-6.9975,-6.8629,-6.8231,-6.6551,-6.5743,-6.5551,-6.5551,-6.5397,-6.5013,-6.3743,-6.3012,-6.2397,-6.1204,-6.0781,-6.0781,-6.0781,-6.0781,-6.0781,-6.0781,-6.0781,-6.0781,-6.0781,-6.0781,-6.0781,-6.0781,-6.0781,-6.0781,-6.0781,-6.0281,-5.9858,-5.9858,-5.8511,-5.7368,-5.7368,-5.6329,-5.5435,-5.5147,-5.474,-5.4188,-5.3295,-5.2329,-5.1272,-5.0054,-4.9296,-4.8383,-4.7026,-4.6271,-4.5444,-4.4479,-4.4161,-4.3849,-4.3532,-4.3515,-4.3515,-4.3515,-4.3742,-4.3865,-4.3865,-4.4233,-4.4661,-4.5116,-4.525,-4.5894,-4.57,-4.7664,-5.0271,-5.3445,-5.7226,-6.1263,-6.5301,-6.8128,-7.077,-7.4037,-7.5395,-7.624,-7.7053,-7.8002,-7.8883,-7.9653,-7.9837,-8.0131,-8.0938,-7.7635,-7.4808,-7.3927,-7.1138,-7.022,0.0,-7.7892,-8.1122,-8.1122,-8.1856,-8.1599,-7.9984,-7.9874,-7.9507,-7.8699,-7.7818,-7.7666,-7.8346,-7.8336,-7.8927,-8.0087,-7.9343,-7.9257,-7.9746,-7.813,-7.6899,-7.5976,-7.5053,-7.3745,-7.2091,-7.036,-6.9167,-6.8231,-6.6551,-6.5397,-6.4628,-6.4628,-6.4089,-6.3346,-6.332,-6.2243,-6.0858,-6.0819,-6.0781,-6.0781,-6.0781,-6.0781,-6.0781,-6.0781,-6.0781,-6.0781,-6.0781,-6.0781,-6.0781,-6.0781,-6.0781,-6.0781,-6.0781,-6.0781,-6.0742,-6.0742,-5.9396,-5.828,-5.828,-5.6498,-5.5121,-5.5107,-5.4775,-5.4176,-5.3314,-5.2085,-5.1294,-5.1242,-4.9079,-4.7474,-4.7044,-4.5568,-4.4465,-4.4043,-4.3998,-4.3849,-4.3532,-4.3515,-4.3515,-4.3515,-4.3515,-4.3532,-4.3532,-4.3849,-4.4423,-4.5221,-4.559,-4.6207,-4.7829,-5.0932,-5.462,-5.8914,-6.2218,-6.5632,-7.022,-7.1908,-7.2936,-7.4588,-7.301,-7.1431,-7.1688,-7.1982,-7.2789,-7.4661,-7.6313,-7.7818,-7.9213,-7.7745,-7.5028,-7.0991,-7.0991,-7.055,-6.8715,0.0,0.0,-7.925,-8.0131,-8.0131,-7.9066,-7.8993,-7.8626,-7.7781,-7.742,-7.7592,-7.8309,-7.8309,-7.8441,-7.868,-7.7721,-7.7555,-7.8092,-7.6361,-7.5399,-7.5053,-7.363,-7.2399,-7.1206,-6.9552,-6.8321,-6.7436,-6.632,-6.5705,-6.5397,-6.482,-6.4051,-6.3243,-6.2704,-6.2127,-6.1562,-6.0973,-6.0781,-6.0781,-6.0781,-6.0781,-6.0781,-6.0781,-6.0781,-6.0781,-6.0781,-6.0781,-6.0781,-6.0781,-6.0781,-6.0781,-6.0781,-6.0781,-6.0781,-6.0781,-5.9435,-5.8319,-5.8319,-5.6741,-5.5338,-5.4775,-5.4579,-5.4182,-5.3321,-5.2363,-5.1542,-5.0974,-4.9687,-4.8359,-4.7103,-4.6485,-4.558,-4.4087,-4.3982,-4.3849,-4.3532,-4.3515,-4.3515,-4.3515,-4.3515,-4.3614,-4.3818,-4.3921,-4.4674,-4.595,-4.6061,-4.7014,-5.1279,-5.5097,-5.9281,-6.3833,-6.6623,-6.9192,-7.2863,-7.3266,-7.2826,-7.2789,-7.0036,-6.7357,-6.6439,-6.6072,-6.6686,-6.9191,-7.1084,-7.3259,-7.6139,-7.4757,-7.2504,-7.0073,-6.9596,-6.8935,-6.7504,-6.9889,0.0,-7.657,-7.7855,-7.8259,-7.7745,-7.7965,-7.7892,-7.731,-7.7273,-7.751,-7.7932,-7.7932,-7.7686,-7.7236,-7.6668,-7.6282,-7.6031,-7.5095,-7.4361,-7.3745,-7.2322,-7.1245,-7.036,-6.8629,-6.7628,-6.7013,-6.6205,-6.5705,-6.532,-6.4474,-6.3589,-6.2781,-6.2293,-6.1908,-6.1562,-6.0973,-6.0781,-6.0781,-6.0781,-6.0781,-6.0781,-6.0781,-6.0781,-6.0781,-6.0781,-6.0781,-6.0781,-6.0781,-6.0781,-6.0781,-6.0781,-6.0781,-6.0781,-6.0781,-5.9665,-5.8627,-5.8357,-5.6729,-5.525,-5.4594,-5.4355,-5.405,-5.3508,-5.2435,-5.1534,-5.1008,-4.9693,-4.8371,-4.7115,-4.6778,-4.6072,-4.4744,-4.4395,-4.4169,-4.3955,-4.3662,-4.3515,-4.3515,-4.3515,-4.3761,-4.4246,-4.4383,-4.5288,-4.6796,-4.696,-4.7891,-5.5757,-5.9979,-6.4016,-6.8017,-7.0146,-7.1651,-7.3156,-7.2165,-7.0449,-6.8825,-6.6402,-6.3833,-6.141,-6.0456,-6.0969,-6.3726,-6.4977,-6.729,-7.2291,-6.9549,-6.8128,-7.1027,-6.7357,-6.5742,-6.8678,-6.8311,-6.9486,-7.3413,0.0,-7.6019,-7.6166,-7.69,-7.7273,-7.7273,-7.7273,-7.7273,-7.7273,-7.72,-7.6707,-7.5787,-7.6078,-7.5435,-7.3926,-7.4382,-7.3692,-7.2091,-7.1206,-7.036,-6.9436,-6.7782,-6.7051,-6.6898,-6.6128,-6.5282,-6.4436,-6.3551,-6.2743,-6.2101,-6.2062,-6.1473,-6.0781,-6.0781,-6.0781,-6.0781,-6.0781,-6.0781,-6.0781,-6.0781,-6.0781,-6.0781,-6.0781,-6.0781,-6.0781,-6.0781,-6.0781,-6.0781,-6.0781,-6.0781,-6.0781,-6.0781,-6.0089,-5.9231,-5.8335,-5.6499,-5.4995,-5.4516,-5.4083,-5.3777,-5.3777,-5.2363,-5.1358,-5.1356,-4.9233,-4.7596,-4.715,-4.6397,-4.5957,-4.5883,-4.5186,-4.4764,-4.4764,-4.4011,-4.3608,-4.3608,-4.3608,-4.4029,-4.4763,-4.5164,-4.6184,-4.7767,-4.8144,-4.8768,-5.9208,-6.3356,-6.7136,-7.0,-7.055,-7.0513,-7.0917,-6.8385,-6.5301,-6.3025,-5.8253,-5.4106,-5.2915,-5.3959,-5.644,-6.0711,-6.5584,-7.0395,-7.4676,-7.4838,-7.3964,-7.2386,-7.1651,-7.0844,-6.9889,-7.0146,-7.1321,0.0,-7.4074,-7.5102,-7.687,-7.7163,-7.7273,-7.7273,-7.7273,-7.7273,-7.7273,-7.6099,-7.5629,-7.5787,-7.4709,-7.4051,-7.387,-7.3365,-7.2448,-7.1206,-7.036,-6.9167,-6.7744,-6.7282,-6.6359,-6.5205,-6.5013,-6.4397,-6.3551,-6.2704,-6.2293,-6.2024,-6.1358,-6.0973,-6.0781,-6.0781,-6.0781,-6.0781,-6.0781,-6.0781,-6.0781,-6.0781,-6.0781,-6.0781,-6.0781,-6.0781,-6.0781,-6.0781,-6.0781,-6.0781,-6.0781,-6.0781,-6.0781,-6.0781,-6.0089,-5.8942,-5.7175,-5.6136,-5.5195,-5.4123,-5.3869,-5.3777,-5.3777,-5.2638,-5.159,-5.102,-4.9858,-4.8549,-4.7205,-4.6892,-4.6526,-4.5957,-4.57,-4.559,-4.559,-4.5406,-4.5296,-4.5296,-4.5296,-4.5493,-4.5964,-4.6078,-4.6952,-4.8516,-4.8606,-4.9284,-6.3246,-6.699,-7.0146,-7.1505,-7.0697,-6.9192,-6.7797,-6.431,-6.0309,-5.6455,-5.1903,-4.8196,-4.6654,-4.8086,-5.1079,-5.6036,-6.163,-6.7237,-7.2822,-7.4206,-7.4522,-7.4147,-7.3854,-7.3303,-7.2312,-7.2312,-7.301,-7.4625,-7.4441,-7.4992,-7.668,-7.709,-7.7273,-7.7273,-7.7273,-7.7127,-7.679,-7.5542,-7.4903,-7.4848,-7.3524,-7.2773,-7.2549,-7.1996,-7.1301,-7.0501,0.0,-6.8363,-6.7628,-6.6859,-6.5782,-6.4589,-6.4589,-6.4089,-6.3192,-6.2397,-6.2101,-6.1985,-6.1089,-6.0781,-6.0781,-6.0781,-6.0781,-6.0781,-6.0781,-6.0781,-6.0781,-6.0781,-6.0781,-6.0781,-6.0781,-6.0781,-6.0781,-6.0781,-6.0781,-6.0781,-6.0781,-6.0781,-6.0746,-6.0521,-5.9792,-5.8769,-5.7399,-5.6343,-5.5459,-5.4735,-5.4147,-5.3777,-5.3777,-5.2882,-5.2038,-5.1373,-5.0618,-4.9591,-4.8306,-4.8196,-4.7829,-4.7021,-4.6617,-4.6434,-4.6434,-4.6104,-4.5883,-4.5883,-4.5883,-4.6157,-4.6718,-4.6901,-4.7626,-4.8843,-4.9007,-4.9493,-6.7357,-7.044,-7.2789,-7.2569,-7.0513,-6.7687,-6.4237,-6.0052,-5.5354,-4.9904,-4.682,-4.4415,-4.2213,-4.3424,-4.6415,-5.1743,-5.6478,-6.2181,-6.9757,-7.136,-7.2899,-7.5909,-7.5028,-7.4441,-7.5175,-7.4478,-7.4625,-7.6166,-7.5506,-7.5432,-7.624,-7.6937,-7.7273,-7.7273,-7.7273,-7.6937,-7.6093,-7.5322,-7.4515,-7.3699,-7.2606,-7.1653,-7.0871,-7.0592,-7.023,-6.9742,0.0,0.0,-6.801,-6.6654,-6.5474,-6.4589,-6.4474,-6.3897,-6.3051,-6.2243,-6.1947,-6.1831,-6.105,-6.0781,-6.0781,-6.0781,-6.0781,-6.0781,-6.0781,-6.0781,-6.0781,-6.0781,-6.0781,-6.0781,-6.0781,-6.0781,-6.0781,-6.0781,-6.0781,-6.0781,-6.0781,-6.0781,-6.0634,-6.0118,-5.9449,-5.876,-5.811,-5.6856,-5.586,-5.5697,-5.4686,-5.3944,-5.3888,-5.3182,-5.2511,-5.2038,-5.1389,-5.0618,-4.9831,-4.9647,-4.928,-4.8526,-4.77,-4.7259,-4.7259,-4.6581,-4.6214,-4.6214,-4.6214,-4.6581,-4.7259,-4.7621,-4.8157,-4.8895,-4.9265,-4.9445,-7.0183,-7.2569,-7.4184,-7.2826,-6.9706,-6.5705,-6.1117,-5.539,-4.9831,-4.5461,-4.2616,-4.0598,-3.9533,-4.2286,-4.6728,-5.3031,-5.8056,-6.4005,-7.2002,-7.381,-7.4992,-7.687,-7.6833,-7.6723,-7.687,-7.6166,-7.6093,0.0,-7.635,-7.624,-7.7053,-7.72,-7.7273,-7.7273,-7.7273,-7.6937,-7.6093,-7.5322,-7.4515,-7.367,-7.2169,-7.1263,-7.0884,-7.0171,-6.9325,-6.8375,-6.8552,0.0,-6.6697,-6.6842,-6.5974,-6.4551,-6.382,-6.3012,-6.2216,-6.132,-6.1012,-6.1012,-6.0858,-6.0781,-6.0781,-6.0781,-6.0781,-6.0781,-6.0781,-6.0781,-6.0781,-6.0781,-6.0781,-6.0781,-6.0781,-6.0781,-6.0781,-6.0781,-6.0781,-6.0781,-6.0781,-6.0781,-6.0533,-5.9712,-5.9725,-5.9383,-5.7866,-5.7359,-5.6831,-5.5792,-5.5164,-5.4666,-5.4354,-5.3592,-5.2815,-5.2071,-5.1867,-5.1463,-5.0655,-4.9978,-4.9537,-4.939,-4.8563,-4.8086,-4.8086,-4.7976,-4.7902,-4.7902,-4.7902,-4.7939,-4.8086,-4.8162,-4.842,-4.8878,-4.8961,-4.9187,-7.2018,-7.4001,-7.5028,-7.301,-6.8531,-6.3209,-5.7923,-5.1683,-4.5883,-4.1846,-4.0084,-3.9166,-3.8762,-4.1662,-4.5516,-4.9884,-5.4693,-6.0529,-6.8238,-7.0734,-7.301,-7.6313,-7.7047,-7.7273,-7.7273,-7.6974,-7.687,-7.7273,-7.6937,-7.69,-7.7273,-7.7273,-7.7273,-7.7273,-7.7273,-7.6686,-7.5506,-7.5102,-7.4294,-7.3046,-7.1431,-7.0606,-7.0412,-6.9218,-6.8517,-6.8232,-6.8036,0.0,-6.659,-6.6659,-6.5676,-6.4134,-6.3514,-6.282,-6.1985,-6.1127,-6.0781,-6.0781,-6.0781,-6.0781,-6.0781,-6.0781,-6.0781,-6.0781,-6.0781,-6.0781,-6.0781,-6.0781,-6.0781,-6.0781,-6.0781,-6.0781,-6.0781,-6.0781,-6.0622,-6.0456,-6.0456,-6.0231,-5.987,-5.9158,-5.9212,-5.9027,-5.7942,-5.7423,-5.6931,-5.6316,-5.5702,-5.5101,-5.4479,-5.4069,-5.3518,-5.2711,-5.2637,-5.2307,-5.1499,-5.1059,-5.0492,-4.9647,-4.9591,-4.9224,-4.8343,-4.8746,-4.8746,-4.8306,-4.8306,-4.8306,-4.8306,-4.8746,-4.9065,-4.9252,-4.9695,-4.999,-7.3046,-7.4992,-7.5689,-7.2936,-6.7357,-6.1043,-5.5207,-4.8857,-4.315,-3.946,-3.8689,-3.8689,-3.8689,-4.0891,-4.3681,-4.6636,-5.0618,-5.6014,-6.3686,-6.699,-7.0367,-7.5028,-7.6607,-7.7273,-7.7273,-7.7273,-7.7273,-7.7273,-7.7273,0.0,-7.7273,-7.7273,-7.7273,-7.7273,-7.7127,-7.6319,-7.4918,-7.4735,-7.3854,-7.2239,-7.077,-7.0,-6.9779,-6.8348,-6.793,-6.832,-6.7746,0.0,0.0,-6.6458,-6.5432,-6.3899,-6.3521,-6.3015,-6.2375,-6.1603,-6.1358,-6.132,-6.1127,-6.1089,-6.105,-6.0858,-6.0781,-6.0781,-6.0781,-6.0781,-6.0781,-6.0781,-6.0935,-6.1089,-6.1089,-6.1204,-6.1269,-6.1005,-6.0412,-5.9916,-5.9823,-5.9576,-5.923,-5.8673,-5.8632,-5.8549,-5.8074,-5.7483,-5.7079,-5.7079,-5.6381,-5.5611,-5.4987,-5.4766,-5.4399,-5.3775,-5.3408,-5.2931,-5.2307,-5.2087,-5.1463,-5.0198,-5.0545,-5.0215,-4.8893,-4.9481,-4.9517,-4.8857,-4.8857,-4.8857,-4.8857,-4.9517,-4.9867,-4.9867,-5.0508,-5.0802,-7.3046,-7.5432,-7.6246,-7.2357,-6.6512,-6.0052,-5.3665,-4.7205,-4.1809,-3.9239,-3.8689,-3.8689,-3.8689,-3.9533,-4.1735,-4.6342,-4.871,-5.3004,-6.1814,-6.5778,-6.9302,-7.3413,-7.5946,-7.7273,-7.7273,-7.7273,-7.7273,-7.7273,-7.7273,0.0,-7.7273,-7.7273,-7.7273,-7.7273,-7.6607,-7.5799,-7.4918,-7.4184,-7.301,-7.1431,-7.0513,-6.9706,-6.8972,-6.8091,-6.7741,-6.7784,-6.821,0.0,0.0,-6.6551,-6.5804,-6.4311,-6.3921,-6.3696,-6.3588,-6.3194,-6.3089,-6.2974,-6.2243,-6.1985,-6.187,-6.105,-6.0781,-6.0781,-6.0781,-6.0781,-6.0781,-6.0781,-6.1358,-6.1985,-6.1985,-6.2512,-6.2784,-6.1635,-6.0393,-5.9337,-5.8932,-5.9121,-5.9121,-5.8238,-5.8397,-5.8549,-5.8074,-5.7923,-5.7886,-5.7886,-5.7189,-5.6675,-5.6602,-5.5941,-5.5486,-5.539,-5.4069,-5.3167,-5.3093,-5.2417,-5.194,-5.1793,-5.1169,-5.0729,-5.0582,-5.0655,-5.0655,-5.0582,-5.0582,-5.0582,-5.0582,-5.0655,-5.0692,-5.0692,-5.0765,-5.0802,-7.1211,-7.4037,-7.5109,-7.2063,-6.5705,-5.8731,-5.3225,-4.6581,-4.1022,-3.9093,-3.8689,-3.8689,-3.8689,-3.935,-4.0671,-4.3113,-4.4452,-4.7609,-5.462,-5.7556,-6.1741,-6.9192,-7.1798,-7.4111,-7.7017,-7.7273,-7.7273,-7.7273,-7.7273,0.0,-7.7273,-7.7273,-7.7053,-7.6607,-7.6276,-7.5469,-7.4184,-7.3854,-7.2899,-7.1293,-7.0477,-6.9669,-6.8862,-6.8054,-6.7687,-6.7714,-6.793,0.0,0.0,-6.6105,-6.5373,-6.3862,-6.35,-6.3562,-6.3741,-6.3126,-6.3052,-6.3231,-6.2935,-6.282,-6.2704,-6.1858,-6.1601,-6.1473,-6.0973,-6.1166,-6.1601,-6.1601,-6.2166,-6.2771,-6.2473,-6.2383,-6.2265,-6.1759,-6.1016,-6.0372,-6.0187,-6.0062,-5.9885,-5.9522,-5.921,-5.8932,-5.8754,-5.8327,-5.7997,-5.7997,-5.774,-5.7336,-5.6859,-5.6528,-5.6124,-5.5669,-5.5023,-5.4436,-5.3959,-5.3628,-5.3041,-5.205,-5.216,-5.183,-5.0839,-5.1279,-5.1279,-5.0802,-5.0802,-5.0802,-5.0802,-5.1279,-5.1499,-5.1536,-5.2013,-5.2234,-6.8238,-7.1623,-7.3266,-7.0844,-6.4494,-5.7519,-5.2417,-4.5993,-4.0618,-3.9019,-3.8689,-3.8689,-3.8689,-3.9166,-3.99,-4.0912,-4.1772,-4.4195,-4.9664,-5.2234,-5.6455,-6.4273,-6.7026,-7.0146,-7.4735,-7.6466,-7.7273,-7.7273,0.0,0.0,-7.7273,-7.7053,-7.668,-7.613,-7.5652,-7.4845,-7.3707,-7.323,-7.2312,-7.0954,-7.0146,-6.9302,-6.8531,-6.7944,-6.7577,-6.7357,0.0,0.0,0.0,-6.5286,-6.4624,-6.3371,-6.3259,-6.3446,-6.3693,-6.3426,-6.3547,-6.3834,-6.3706,-6.3666,-6.3551,-6.2704,-6.2435,-6.2308,-6.1543,-6.1709,-6.2139,-6.2397,-6.2938,-6.3381,-6.3175,-6.2571,-6.1995,-6.1995,-6.1409,-6.0892,-6.0892,-6.0651,-6.0419,-6.0419,-5.9942,-5.9478,-5.9221,-5.8731,-5.8253,-5.8033,-5.7997,-5.7813,-5.7226,-5.7152,-5.6932,-5.6345,-5.6308,-5.5868,-5.484,-5.4546,-5.4032,-5.3115,-5.3151,-5.2931,-5.2234,-5.2527,-5.2564,-5.2234,-5.1977,-5.1977,-5.2234,-5.2307,-5.2491,-5.2711,-5.3041,-5.3203,-6.4053,-6.8284,-7.077,-6.8348,-6.2842,-5.6528,-5.0802,-4.5149,-4.0618,-3.9019,-3.8689,-3.8689,-3.8689,-3.8726,-3.9239,-4.0838,-4.1772,-4.4011,-4.8913,-5.238,-5.5611,-5.8891,-6.2181,-6.5742,-6.9779,-7.4515,-7.7273,-7.7273,0.0,0.0,-7.7273,-7.657,-7.6093,-7.6093,-7.4551,-7.3707,-7.3707,-7.2129,-7.0917,-7.011,-6.9302,-6.8495,-6.7687,-6.7687,-6.7247,0.0,0.0,0.0,0.0,-6.4115,-6.3576,-6.288,-6.3385,-6.3593,-6.3745,-6.471,-6.5077,-6.5024,-6.4705,-6.4589,-6.4436,-6.3589,-6.3269,-6.3207,-6.2724,-6.2344,-6.2293,-6.3051,-6.3521,-6.3899,-6.4291,-6.3381,-6.2385,-6.2385,-6.1365,-6.0419,-6.0419,-6.0419,-6.0419,-6.0419,-6.0382,-6.0126,-5.9331,-5.9184,-5.8914,-5.8107,-5.7997,-5.7997,-5.7997,-5.7997,-5.796,-5.796,-5.796,-5.7336,-5.5721,-5.484,-5.473,-5.55,-5.4069,-5.3922,-5.5464,-5.4803,-5.473,-5.5537,-5.4766,-5.473,-5.5559,-5.3959,-5.3592,-5.4363,-5.3592,-5.3203,-5.6161,-5.9148,-6.0933,-5.9061,-5.495,-5.0472,-4.7021,-4.313,-3.9974,-3.8909,-3.8689,-3.8689,-3.8689,-3.8689,-3.9606,-4.2286,-4.2506,-4.3608,-4.7352,-5.0692,-5.4766,-6.0199,-6.8128,-7.3634,0.0,0.0,-7.7273,0.0,0.0,0.0,-7.7273,-7.6019,-7.5285,-7.5285,-7.3707,-7.2606,-7.2092,-7.1027,-7.0073,-6.9302,-6.9009,-6.8495,-6.7687,-6.7687,0.0,0.0,0.0,0.0,0.0,-6.409,-6.3576,-6.2805,-6.299,-6.3285,-6.3637,-6.3958,-6.4313,-6.4605,-6.4516,-6.4453,-6.4322,-6.3432,-6.3166,-6.3133,-6.2997,-6.3352,-6.3924,-6.4412,-6.4106,-6.3681,-6.3817,-6.329,-6.2656,-6.2656,-6.2365,-6.201,-6.201,-6.201,-6.201,-6.201,-6.1594,-6.1153,-6.0896,-5.9942,-5.9111,-5.8854,-5.8364,-5.7997,-5.7997,-5.7997,-5.7997,-5.7997,-5.7997,-5.7556,-5.6528,-5.6198,-5.5904,-5.5611,-5.5097,-5.506,-5.5596,-5.5354,-5.5317,-5.5596,-5.5354,-5.5354,-5.5596,-5.5097,-5.495,-5.5207,-5.495,-5.484,-5.0215,-5.3151,-5.4766,-5.3739,-5.0655,-4.7241,-4.4819,-4.1992,-3.968,-3.8872,-3.8689,-3.8689,-3.8689,-3.8689,-3.957,-4.2176,-4.2176,-4.2983,-4.6195,-4.9481,-5.3922,-6.0382,-6.8825,0.0,0.0,-7.6209,0.0,0.0,0.0,0.0,-7.6393,-7.5175,-7.4331,-7.4001,-7.301,-7.2275,-7.1762,-7.0954,-7.0146,-6.9339,-6.9045,-6.8495,-6.7687,-6.7393,0.0,0.0,0.0,0.0,0.0,-6.3613,-6.3282,-6.278,-6.278,-6.3014,-6.3317,-6.3543,-6.3808,-6.4119,-6.4313,-6.4389,-6.4313,-6.3766,-6.3426,-6.3347,-6.354,-6.4023,-6.4512,-6.4527,-6.4099,-6.3565,-6.334,-6.3062,-6.2853,-6.3209,-6.3062,-6.289,-6.3209,-6.3025,-6.278,-6.278,-6.2401,-6.1961,-6.163,-6.0786,-5.9905,-5.9294,-5.8767,-5.8327,-5.8033,-5.7997,-5.7997,-5.7997,-5.7997,-5.7813,-5.7299,-5.6969,-5.6712,-5.6528,-5.5941,-5.589,-5.6455,-5.6198,-5.6198,-5.6492,-5.6198,-5.6198,-5.6492,-5.6198,-5.5904,-5.5633,-5.5904,-5.5868,0.0,-4.9224,-5.1059,-5.1059,-4.8746,-4.5902,-4.3681,-4.1422,0.0,-3.8836,-3.8689,-3.8726,-3.8762,-3.8799,-3.935,-4.1058,-4.1352,-4.2489,-4.57,-4.9407,-5.4069,-6.0272,-6.6035,0.0,-7.022,-7.4478,0.0,0.0,0.0,0.0,-7.4955,-7.4147,-7.334,-7.2532,-7.2459,-7.2349,-7.2239,-7.1468,-7.066,-6.9926,-6.9119,-6.8348,-6.7577,-6.6769,0.0,0.0,0.0,0.0,0.0,-6.278,-6.278,-6.278,-6.278,-6.278,-6.2855,-6.334,-6.3565,-6.3593,-6.4099,-6.4275,-6.4275,-6.4275,-6.3954,-6.3615,-6.4119,-6.4275,-6.4178,-6.3723,-6.3587,-6.3431,-6.2917,-6.2879,-6.3099,-6.3833,-6.3429,-6.3099,-6.3833,-6.3392,-6.278,-6.278,-6.278,-6.2585,-6.1814,-6.163,-6.108,-5.9588,-5.9294,-5.9001,-5.8253,-5.818,-5.8143,-5.8107,-5.8107,-5.807,-5.7997,-5.7336,-5.7189,-5.796,-5.6602,-5.6418,-5.7923,-5.7299,-5.7262,-5.7997,-5.7262,-5.7262,-5.7997,-5.7262,-5.6492,-5.5816,-5.6528,-5.6492,-3.8469,0.0,-4.1846,-4.1846,-4.1258,-4.0524,0.0,-3.9386,-3.8946,-3.8726,-3.8689,-3.8909,-3.9496,-3.9606,-4.0561,-4.337,-4.3847,-4.5002,-4.8288,-5.5794,-6.2438,-6.6439,-7.1908,-7.4441,-7.2165,-7.4625,0.0,0.0,0.0,-7.5102,-7.4918,-7.4147,-7.334,-7.2532,-7.1908,-7.0991,-6.9779,-6.8935,-6.8458,-6.8238,-6.743,-6.6953,-6.6733,-6.5962,0.0,0.0,0.0,0.0,-6.278,-6.278,-6.278,-6.278,-6.278,-6.278,-6.2805,-6.2941,-6.299,-6.3014,-6.3121,-6.3191,-6.3191,-6.3191,-6.3073,-6.3014,-6.3144,-6.3191,-6.3238,-6.352,-6.3294,-6.2941,-6.283,-6.3282,-6.3686,-6.3209,-6.3466,-6.3686,-6.3209,-6.2952,-6.278,-6.278,-6.278,-6.2768,-6.2548,-6.1998,-6.1484,-6.108,-6.0529,-6.0052,-5.9869,-5.9832,-5.9612,-5.8988,-5.8914,-5.8694,-5.8033,-5.7813,-5.7813,-5.7997,-5.7629,-5.7593,-5.796,-5.7813,-5.7813,-5.7997,-5.7813,-5.7813,-5.7997,-5.7813,-5.7629,-5.7446,-5.7629,-5.7629,-3.5481,-3.7184,-3.8689,-3.8689,-3.8982,-3.9239,-3.9239,-3.8982,-3.8689,-3.8689,-3.8689,-3.8946,-3.9753,-3.99,-4.0818,-4.3681,-4.4158,-4.5957,-5.1059,-5.7923,-6.387,-6.7871,-7.2349,-7.4588,0.0,0.0,0.0,0.0,0.0,-7.3817,-7.3817,-7.2679,-7.1835,-7.1394,-7.0624,-6.9963,-6.9449,-6.9009,-6.8421,-6.7687,-6.7247,-6.6659,-6.5925,-6.5118,-6.4494,0.0,0.0,0.0,-6.278,-6.278,-6.278,-6.278,-6.278,-6.278,-6.278,-6.278,-6.278,-6.278,-6.278,-6.278,-6.278,-6.278,-6.278,-6.278,-6.278,-6.278,-6.2953,-6.3625,-6.3628,-6.3503,-6.387,-6.431,-6.4604,-6.453,-6.4567,-6.453,-6.4053,-6.3649,-6.3282,-6.2879,-6.278,-6.278,-6.278,-6.2438,-6.2034,-6.1667,-6.1227,-6.0823,-6.0456,-6.0419,-6.0236,-5.9795,-5.9758,-5.9575,-5.9134,-5.9098,-5.8951,-5.8584,-5.8217,-5.818,-5.8547,-5.8217,-5.7997,-5.7997,-5.7997,-5.7997,-5.7997,-5.7997,-5.7997,-5.7997,-5.7997,-5.7997,-3.4931,-3.6912,-3.8689,-3.8542,-3.9203,-3.9863,-3.9753,-3.9203,-3.8689,-3.8689,-3.8799,-3.9129,-3.9937,-4.0377,-4.1368,-4.3681,-4.48,-4.7755,-5.4693,-5.9171,-6.3246,-6.7393,-7.0954,0.0,0.0,0.0,0.0,0.0,0.0,-7.2312,-7.2312,-7.0917,-7.0036,-6.9926,-6.9265,-6.9119,-6.9559,-6.9559,-6.8862,-6.7504,-6.7247,-6.6439,-6.5081,-6.4273,-6.3906,0.0,0.0,0.0,-6.278,-6.278,-6.278,-6.278,-6.278,-6.278,-6.278,-6.278,-6.278,-6.278,-6.278,-6.278,-6.278,-6.278,-6.278,-6.2817,-6.2989,-6.2915,-6.3,-6.4163,-6.4273,-6.4237,-6.4934,-6.5301,-6.5595,-6.6035,-6.5815,-6.5448,-6.5338,-6.4677,-6.3906,-6.3319,-6.3074,-6.3062,-6.3147,-6.3184,-6.2952,-6.2254,-6.2144,-6.1851,-6.108,-6.097,-6.086,-6.0603,-6.0566,-6.0529,-6.0419,-6.0419,-6.0162,-5.9588,-5.8804,-5.8621,-5.9184,-5.8547,-5.8143,-5.7997,-5.7997,-5.7997,-5.7997,-5.7997,-5.7997,-5.7997,-5.7997,-5.7997,-3.5679,-3.7367,-3.8542,-3.786,-3.8814,-3.9717,-3.9056,-3.8799,-3.8689,-3.8689,-3.9239,-3.9974,-4.0781,-4.2599,-4.4525,-4.6269,-5.0582,-5.5537,0.0,0.0,-6.7871,-6.8641,0.0,0.0,0.0,0.0,0.0,0.0,0.0,-7.1505,-7.1505,-7.0587,-6.9779,-6.9119,-6.8972,-6.8311,-6.7063,-6.7063,-6.6916,-6.6659,-6.5301,-6.453,-6.4237,-6.3392,-6.3025,0.0,0.0,-6.278,-6.278,-6.278,-6.278,-6.278,-6.278,-6.278,-6.278,-6.278,-6.278,-6.278,-6.278,-6.278,-6.278,-6.278,-6.278,-6.2952,-6.3686,-6.3392,-6.3282,-6.5485,-6.5154,-6.4127,-6.4237,-6.5301,-6.5999,-6.4751,-6.5411,-6.6145,-6.5448,-6.4677,-6.4237,-6.4824,-6.4383,-6.4127,-6.4824,-6.4934,-6.4897,-6.4751,-6.4751,-6.4457,-6.3649,-6.3539,-6.2989,-6.1557,-6.141,-6.1153,-6.0456,-6.0419,-6.0639,-6.119,-6.0493,-5.9795,-5.9221,-5.9074,-5.8694,-5.7997,-5.7997,-5.7997,-5.7997,-5.7997,-5.7997,-5.7997,-5.7997,-5.7997,-3.5261,-3.6817,-3.8065,-3.8138,-3.968,-4.1111,-4.0744,-4.0304,-3.9994,-3.9994,-4.0304,-4.0928,-4.2176,-4.4011,-4.6728,-5.0986,-5.5721,-5.9758,-6.2438,-6.5595,-6.7944,0.0,0.0,0.0,0.0,0.0,0.0,0.0,0.0,0.0,-7.0624,-6.9486,-6.8825,-6.8898,-6.8495,-6.7687,-6.6512,-6.6072,-6.5632,-6.5191,-6.4457,-6.3833,-6.3392,-6.2989,-6.2585,-6.2181,0.0,-6.2548,-6.2181,-6.2622,-6.278,-6.278,-6.278,-6.278,-6.278,-6.278,-6.278,-6.278,-6.278,-6.278,-6.278,-6.278,-6.278,-6.2989,-6.3833,-6.3796,-6.3906,-6.5925,-6.5668,-6.4934,-6.5815,-6.6586,-6.6953,-6.6219,-6.6586,-6.6916,-6.6109,-6.5668,-6.5375,-6.5301,-6.5007,-6.4861,-6.5264,-6.5301,-6.5301,-6.5301,-6.5301,-6.5191,-6.4787,-6.4751,-6.4457,-6.3686,-6.3613,-6.3282,-6.2475,-6.2401,-6.1998,-6.1006,-6.1006,-6.0676,-5.9905,-5.9869,-5.9465,-5.8657,-5.8657,-5.8657,-5.8657,-5.8217,-5.8217,-5.8657,-5.8217,-5.7997,-3.5371,-3.6523,-3.7749,-3.8726,-4.0377,-4.1956,-4.269,-4.2249,-4.1829,-4.2379,-4.2673,-4.3057,-4.3901,-4.614,-4.9811,-5.5757,-6.0089,-6.3172,-6.4347,-6.6476,-6.8348,-6.9596,0.0,0.0,0.0,0.0,0.0,0.0,0.0,0.0,-6.9522,-6.8164,-6.7614,-6.8054,-6.7467,-6.6733,-6.5962,-6.5118,-6.453,-6.409,-6.387,-6.3356,-6.2511,-6.2511,-6.2181,-6.163,-6.2254,-6.2291,-6.1924,-6.2548,-6.278,-6.278,-6.278,-6.278,-6.278,-6.278,-6.278,-6.278,-6.278,-6.278,-6.278,-6.278,-6.2952,-6.3282,-6.4127,-6.4383,-6.4714,-6.6329,-6.6219,-6.5852,-6.71,-6.754,-6.7677,-6.7467,-6.754,-6.7504,-6.6916,-6.6623,-6.6366,-6.5962,-6.5705,-6.5632,-6.5852,-6.5852,-6.5852,-6.5852,-6.5852,-6.5778,-6.5632,-6.5595,-6.5521,-6.5338,-6.5301,-6.5044,-6.442,-6.4383,-6.3576,-6.1667,-6.1777,-6.152,-6.0713,-6.0676,-6.0309,-5.9478,-5.9478,-5.9478,-5.9478,-5.8877,-5.8767,-5.9184,-5.8584,-5.818,-3.7088,-3.7419,-3.786,-3.9423,-3.9937,-4.0855,-4.3864,-4.3901,-4.3975,-4.6195,-4.7259,-4.7352,-4.5993,-5.0141,-5.517,-5.9391,-6.3466,-6.6953,-6.9265,0.0,-7.2129,0.0,0.0,0.0,0.0,0.0,0.0,0.0,0.0,0.0,-6.7907,-6.7063,-6.6256,-6.5595,-6.5521,-6.5081,-6.4273,-6.3429,-6.3356,-6.409,-6.3282,-6.2475,-6.1704,-6.1704,-6.163,-6.1594,-6.1667,-6.2071,-6.2707,-6.278,-6.278,-6.278,-6.278,-6.278,-6.278,-6.278,-6.278,-6.278,-6.278,-6.278,-6.278,-6.278,-6.3356,-6.4163,-6.4971,-6.5228,-6.5558,-6.7136,-6.7026,-6.6439,-6.6549,-6.7136,-6.7504,-6.6769,-6.7136,-6.7677,-6.7614,-6.7026,-6.6696,-6.7393,-6.6916,-6.6659,-6.7393,-6.7504,-6.7504,-6.7504,-6.7504,-6.7247,-6.6512,-6.6402,-6.6145,-6.5375,-6.5301,-6.5301,-6.5228,-6.5228,-6.5154,-6.4971,-6.3539,-6.2365,-6.1557,-6.152,-6.1153,-6.0346,-6.0309,-6.0309,-6.0309,-6.0272,-5.9869,-5.9184,-5.9148,-5.8731,-3.6684,-3.7125,-3.7896,-3.9512,-4.0267,-4.1479,-4.4709,-4.6397,-4.7682,-4.9114,-5.0839,-5.1903,-5.1316,-5.3775,-5.7226,-6.1263,-6.4897,-6.8091,-7.0513,-7.1394,0.0,0.0,0.0,0.0,0.0,0.0,0.0,0.0,0.0,0.0,0.0,-6.5925,0.0,-6.5301,-6.4824,-6.4163,-6.3319,-6.2475,-6.1961,-6.1814,-6.1484,-6.1153,-6.086,-6.086,-6.0566,-6.0162,-6.1153,-6.1484,-6.141,-6.2377,-6.278,-6.278,-6.278,-6.278,-6.278,-6.278,-6.278,-6.278,-6.278,-6.278,-6.278,-6.278,-6.3392,-6.4237,-6.5081,-6.5668,-6.6292,-6.7393,-6.7467,-6.7247,-6.7247,-6.7467,-6.7614,-6.732,-6.7467,-6.7687,-6.7687,-6.7467,-6.732,-6.7614,-6.7871,-6.7944,-6.7724,-6.8091,-6.8458,-6.8458,-6.8458,-6.8348,-6.8017,-6.7981,-6.7687,-6.688,-6.6329,-6.6035,-6.6035,-6.5595,-6.5301,-6.5301,-6.4237,-6.3466,-6.3172,-6.2622,-6.1961,-6.1153,-6.1153,-6.1153,-6.1153,-6.0639,-6.0493,-6.0676,-6.0199,-5.9795,-3.6486,-3.7074,-3.8138,-3.9239,-4.0891,-4.315,-4.6654,-4.8967,-5.1022,-5.3335,-5.4326,-5.4913,-5.5427,-5.6235,-5.8143,0.0,-6.5558,-6.8458,-7.0624,0.0,0.0,0.0,0.0,0.0,0.0,0.0,0.0,0.0,0.0,0.0,0.0,-6.4677,0.0,0.0,-6.3356,-6.2658,-6.2071,-6.1227,-6.0566,-6.0015,-5.9758,-5.9795,-6.0015,-6.0015,-5.9722,-5.9258,-6.0382,-6.0823,-6.086,-6.1704,-6.2218,-6.2438,-6.267,-6.278,-6.278,-6.278,-6.278,-6.278,-6.278,-6.278,-6.278,-6.278,-6.3576,-6.4567,-6.5154,-6.6035,-6.699,-6.754,-6.7687,-6.7687,-6.7687,-6.7687,-6.7687,-6.7687,-6.7687,-6.7687,-6.7687,-6.7687,-6.7687,-6.7687,-6.8128,-6.8421,-6.8128,-6.8531,-6.9009,-6.9229,-6.9302,-6.9302,-6.9302,-6.9082,-6.8678,-6.8128,-6.7357,-6.699,-6.7247,-6.6512,-6.6072,-6.6072,-6.5301,-6.464,-6.4127,-6.3539,-6.2842,-6.1998,-6.1998,-6.1998,-6.1998,-6.1447,-6.13,-6.1594,-6.1043,-6.0639,-3.6964,-3.7477,-3.8726,-3.8726,-4.1772,-4.5792,-4.9921,-5.1463,-5.3628,-5.9281,-5.7886,-5.6147,-5.774,-5.7409,-5.8143,-6.212,-6.5558,-6.8238,0.0,0.0,0.0,0.0,0.0,0.0,0.0,0.0,0.0,0.0,0.0,0.0,0.0,0.0,0.0,0.0,-6.0823,-6.0382,-6.0382,-5.9588,-5.9184,-5.9184,-5.84,-5.8437,-5.9184,-5.9184,-5.9184,-5.9184,-5.9184,-6.0126,-6.152,-6.075,-6.0896,-6.1667,-6.2511,-6.278,-6.278,-6.278,-6.278,-6.278,-6.278,-6.278,-6.278,-6.278,-6.3918,-6.5301,-6.5301,-6.6402,-6.7687,-6.7687,-6.7687,-6.7687,-6.7687,-6.7687,-6.7687,-6.7687,-6.7687,-6.7687,-6.7687,-6.7687,-6.7687,-6.7714,-6.7724,-6.7981,-6.8788,-6.8935,-6.9192,-7.0,-7.011,-7.011,-7.011,-6.9412,-6.8898,-6.8898,-6.8164,-6.8017,-6.8825,-6.8164,-6.7687,-6.7687,-6.6953,-6.5778,-6.4163,-6.4127,-6.3723,-6.2842,-6.2817,-6.278,-6.278,-6.278,-6.2401,-6.1594,-6.1594,-6.119,-3.7639,-3.8337,-3.9827,-4.0965,-4.381,-4.759,-5.227,-5.3959,-5.6308,-6.2548,-6.1704,-6.0126,-6.119,-6.0713,-6.0566,-6.1777,-6.4714,-6.721,0.0,0.0,0.0,0.0,0.0,0.0,0.0,0.0,0.0,0.0,0.0,0.0,0.0,0.0,0.0,0.0,-5.9979,-5.9551,-5.9551,-5.8767,-5.8364,-5.8364,-5.8107,-5.8107,-5.8364,-5.8364,-5.8364,-5.84,-5.8927,-5.9478,-5.9979,-6.0896,-6.1374,-6.1667,-6.2511,-6.278,-6.278,-6.278,-6.278,-6.278,-6.278,-6.278,-6.278,-6.278,-6.3918,-6.5191,-6.464,-6.5962,-6.7577,-6.7026,-6.7247,-6.7687,-6.7687,-6.7687,-6.7687,-6.7687,-6.7687,-6.7687,-6.7687,-6.7687,-6.7871,-6.8421,-6.9009,-6.9449,-6.9706,-7.022,-7.0697,-7.0917,-7.0954,-7.0734,-7.0183,-6.9412,-6.8898,-6.8898,-6.8164,-6.8017,-6.8825,-6.8164,-6.7687,-6.7687,-6.7467,-6.688,-6.5815,-6.5228,-6.4824,-6.4567,-6.4016,-6.3723,-6.3723,-6.3099,-6.2695,-6.2438,-6.2438,-6.2658,-3.8741,-3.9879,-4.1699,-4.3314,-4.6397,-5.0325,-5.5207,-5.7923,-6.075,-6.5301,-6.431,-6.2732,-6.3246,-6.2108,0.0,-6.1961,-6.4016,0.0,0.0,0.0,0.0,0.0,0.0,0.0,0.0,0.0,0.0,0.0,0.0,0.0,0.0,0.0,0.0,0.0,-5.9134,-5.8731,-5.8731,-5.8253,-5.7997,-5.7997,-5.7997,-5.7997,-5.7997,-5.7997,-5.7997,-5.8033,-5.8877,-5.9001,-5.8877,-6.0786,-6.141,-6.1227,-6.2365,-6.278,-6.278,-6.278,-6.278,-6.278,-6.278,-6.278,-6.278,-6.278,-6.3723,-6.4714,-6.4237,-6.5558,-6.71,-6.6623,-6.7063,-6.7687,-6.7687,-6.7687,-6.7687,-6.7687,-6.7687,-6.7687,-6.7687,-6.7944,-6.8311,-6.8825,-6.9559,-7.0183,-7.0513,-7.0991,-7.1403,-7.1725,-7.1476,-7.1027,-7.0183,-6.9669,-6.9522,-6.9816,-6.9119,-6.8862,-6.9339,-6.8641,-6.8017,-6.7724,-6.7687,-6.7467,-6.699,-6.6219,-6.5632,-6.5301,-6.4494,-6.409,-6.409,-6.3576,-6.3319,-6.3319,-6.3649,-6.409,-3.979,-4.1662,-4.4011,-4.57,-4.9407,-5.3849,-5.8377,-6.2438,-6.5595,-6.7063,-6.5668,-6.42,-6.42,-6.2365,-6.1263,-6.2511,-6.3466,0.0,0.0,0.0,0.0,0.0,0.0,0.0,0.0,0.0,0.0,0.0,0.0,0.0,0.0,0.0,0.0,-5.9074,-5.84,-5.7997,-5.7997,-5.7997,-5.7997,0.0,-5.7997,-5.7997,-5.7997,-5.7997,-5.7997,-5.8033,-5.8767,-5.8694,-5.818,-6.0529,-6.1043,-6.0566,-6.2181,-6.278,-6.278,-6.278,-6.278,-6.278,-6.278,-6.278,-6.278,-6.278,-6.3392,-6.409,-6.409,-6.5228,-6.6512,-6.6512,-6.7063,-6.7687,-6.7687,-6.7687,-6.7687,-6.7687,-6.7687,-6.7687,-6.7687,-6.8311,-6.8935,-6.9009,-6.9596,-7.0367,-7.1284,-7.1329,-7.1578,-7.2386,-7.1872,-7.1138,-7.0293,-7.022,-7.0477,-7.1219,-7.0587,-7.011,-7.0183,-6.9412,-6.8605,-6.7834,-6.7724,-6.7687,-6.7687,-6.699,-6.6256,-6.5521,-6.4714,-6.4273,-6.42,-6.4127,-6.409,-6.4127,-6.4861,-6.5264,-3.9129,-4.1662,-4.5002,-4.7241,-5.2784,-5.8253,-6.0566,-6.2768,-6.4457,-6.4787,-6.4971,-6.5044,-6.5044,-6.4604,-6.3723,-6.2108,0.0,0.0,0.0,0.0,0.0,0.0,0.0,0.0,0.0,0.0,0.0,0.0,0.0,0.0,0.0,0.0,0.0,-5.8253,-5.8107,-5.7997,-5.7997,-5.7997,-5.7997,0.0,-5.7997,-5.7997,-5.7997,-5.7997,-5.7997,-5.7997,-5.818,-5.8143,-5.8143,-5.9905,-6.0566,-6.0566,-6.2181,-6.278,-6.278,-6.278,-6.278,-6.278,-6.278,-6.278,-6.278,-6.278,-6.3392,-6.409,-6.409,-6.5228,-6.6512,-6.6512,-6.7063,-6.7687,-6.7687,-6.7687,-6.7687,-6.7687,-6.7687,-6.7687,-6.7687,-6.8311,-6.9082,-6.9706,-6.9963,-7.055,-7.1982,-7.1725,-7.1578,-7.2386,-7.2349,-7.1945,-7.1174,-7.1064,-7.1138,-7.1256,-7.0587,-7.0367,-7.0991,-6.9743,-6.8825,-6.8641,-6.8054,-6.7687,-6.7687,-6.7504,-6.7357,-6.7173,-6.6402,-6.5668,-6.5044,-6.442,-6.409,-6.409,-6.4273,-6.5044,-3.9643,-4.2506,-4.6324,-5.0692,-5.5537,-5.9515,-6.075,-6.1704,-6.2328,-6.2328,-6.3613,-6.4494,-6.3686,-6.3539,-6.2989,0.0,0.0,0.0,0.0,0.0,0.0,0.0,0.0,0.0,0.0,0.0,0.0,0.0,0.0,0.0,0.0,-5.8217,-5.7997,-5.7997,-5.7997,-5.7813,-5.7446,-5.7446,-5.7446,-5.7446,-5.7446,-5.7629,-5.7997,-5.7997,-5.7997,-5.7997,-5.7997,-5.7997,-5.8107,-5.9758,-6.0162,-6.0015,-6.2034,-6.2585,-6.2291,-6.2658,-6.278,-6.278,-6.278,-6.278,-6.278,-6.278,-6.3099,-6.3466,-6.3466,-6.464,-6.5925,-6.5925,-6.6769,-6.7687,-6.7687,-6.7687,-6.7687,-6.7687,-6.7687,-6.7687,-6.7687,-6.8311,-6.9155,-6.9926,-7.0403,-7.1064,-7.2275,-7.2165,-7.1908,-7.1945,-7.1945,-7.1798,-7.1329,-7.1293,-7.1439,-7.1835,-7.1505,-7.1248,-7.1293,-7.0183,-6.9302,-6.8935,-6.8128,-6.7687,-6.7687,-6.7687,-6.7687,-6.7687,-6.6916,-6.6292,-6.5888,-6.5448,-6.5228,-6.5264,-6.5632,-6.6256,-3.9753,-4.313,-4.7609,-5.3849,-5.7226,-5.9184,-6.0015,-6.0309,-6.0309,-6.0052,-6.1851,-6.3025,-6.163,-6.1374,-6.1117,0.0,0.0,0.0,0.0,0.0,0.0,0.0,0.0,0.0,0.0,0.0,0.0,0.0,0.0,0.0,-5.7776,-5.7666,-5.7593,-5.7593,-5.7593,-5.7262,-5.6602,-5.6602,-5.6675,-5.6822,-5.6932,-5.7373,-5.7997,-5.7997,-5.7997,-5.7997,-5.7997,-5.7997,-5.8107,-5.9612,-5.9795,-5.9404,-6.1557,-6.2071,-6.1667,-6.2365,-6.2695,-6.278,-6.278,-6.278,-6.278,-6.278,-6.278,-6.2817,-6.2989,-6.409,-6.5338,-6.5485,-6.6549,-6.7687,-6.7687,-6.7687,-6.7687,-6.7687,-6.7687,-6.7687,-6.7687,-6.8311,-6.9119,-6.9743,-7.066,-7.1541,-7.2202,-7.2422,-7.2275,-7.1615,-7.1541,-7.1541,-7.1541,-7.1541,-7.1762,-7.2422,-7.2496,-7.2239,-7.155,-7.066,-6.9816,-6.9155,-6.8201,-6.7687,-6.7687,-6.7687,-6.7687,-6.7687,-6.7026,-6.6623,-6.6512,-6.6512,-6.6512,-6.6512,-6.7173,-6.7577,-3.6853,-4.1846,-4.8177,-5.3298,-5.6381,-5.8364,-5.9184,-5.9905,-6.0015,-5.8621,-5.9685,-6.0823,-6.0603,-6.0566,0.0,0.0,0.0,0.0,0.0,0.0,0.0,0.0,0.0,0.0,0.0,0.0,0.0,0.0,0.0,0.0,-5.6969,-5.6308,-5.5904,-5.5904,-5.5904,-5.589,-5.5757,-5.5757,-5.6088,-5.6822,-5.7519,-5.7886,-5.7997,-5.7997,-5.7997,-5.7997,-5.7997,-5.7997,-5.807,-5.8988,-5.9294,-5.9294,-6.0346,-6.108,-6.1594,-6.1704,-6.2218,-6.278,-6.278,-6.278,-6.278,-6.278,-6.278,-6.2952,-6.3686,-6.4567,-6.5448,-6.6145,-6.699,-6.7687,-6.7687,-6.7687,-6.7687,-6.7687,-6.7687,-6.7687,-6.7687,-6.8311,-6.8935,-6.9045,-7.0293,-7.1329,-7.1439,-7.2055,-7.2459,-7.2349,-7.2349,-7.2349,-7.2349,-7.2349,-7.2386,-7.2496,-7.2496,-7.2459,-7.2349,-7.0954,-7.0036,-6.9963,-6.8531,-6.7687,-6.7687,-6.7687,-6.7687,-6.7687,-6.7577,-6.7173,-6.6512,-6.6512,-6.6512,-6.6512,-6.6623,-6.7026,-3.8909,-4.2653,-4.6948,-5.183,-5.4179,-5.5647,-5.6895,-5.7446,-5.7519,-5.6785,-5.7226,-5.785,-5.829,0.0,0.0,0.0,0.0,0.0,0.0,0.0,0.0,0.0,0.0,0.0,0.0,0.0,0.0,0.0,0.0,-5.6124,-5.6124,-5.5794,-5.5596,-5.5596,-5.5596,-5.5354,-5.4913,-5.4913,-5.5097,-5.5464,-5.6748,-5.7336,-5.7336,-5.7776,-5.7997,-5.7997,-5.7997,-5.7997,-5.807,-5.8877,-5.8927,-5.8657,-5.9905,-6.0346,-6.0382,-6.1263,-6.1814,-6.2181,-6.2658,-6.278,-6.278,-6.278,-6.3135,-6.3613,-6.398,-6.4971,-6.6035,-6.6402,-6.7063,-6.7687,-6.7687,-6.7687,-6.7687,-6.7687,-6.8017,-6.8385,-6.8385,-6.8311,-6.8495,-6.9412,-7.0513,-7.1439,-7.1908,-7.2275,-7.2496,-7.2496,-7.2496,-7.2496,-7.2496,-7.2496,-7.2496,-7.2496,-7.2496,-7.2496,-7.2496,-7.1431,-7.077,-7.077,-6.9265,-6.8568,-6.9009,-6.8164,-6.7907,-6.8348,-6.7907,-6.7504,-6.7173,-6.7173,-6.7173,-6.7173,-6.7173,-6.7357,-3.968,-4.2103,-4.4562,-4.904,-5.1206,-5.2711,-5.4289,-5.484,-5.506,0.0,-5.495,-5.4913,-5.5757,0.0,0.0,0.0,0.0,0.0,0.0,0.0,0.0,0.0,0.0,0.0,0.0,0.0,0.0,0.0,0.0,-5.528,-5.528,-5.5097,-5.4987,-5.4987,-5.4987,-5.4693,-5.4106,-5.4289,-5.4399,-5.4436,-5.5831,-5.6602,-5.6822,-5.7409,-5.7813,-5.7997,-5.7997,-5.7997,-5.8033,-5.8657,-5.8547,-5.8107,-5.9318,-5.9575,-5.9368,-6.0786,-6.141,-6.1704,-6.2511,-6.278,-6.278,-6.278,-6.3392,-6.409,-6.409,-6.5228,-6.6512,-6.6512,-6.7063,-6.7687,-6.7687,-6.7834,-6.7981,-6.7981,-6.8605,-6.9192,-6.9192,-6.8715,-6.8715,-7.0146,-7.0881,-7.155,-7.2349,-7.2496,-7.2496,-7.2496,-7.2496,-7.2496,-7.2496,-7.2496,-7.2496,-7.2496,-7.2496,-7.2496,-7.2496,-7.1762,-7.1293,-7.1293,-7.0,-6.9486,-7.0073,-6.8935,-6.8568,-6.9192,-6.8605,-6.8091,-6.7687,-6.7687,-6.7687,-6.7687,-6.7687,-6.7687,-3.6119,-3.8322,-4.0928,-4.4268,-4.7388,-5.0141,-5.1793,-5.2784,-5.3555,-5.4326,-5.3261,-5.2417,0.0,0.0,0.0,0.0,0.0,0.0,0.0,0.0,0.0,0.0,0.0,0.0,0.0,0.0,0.0,0.0,0.0,-5.4473,-5.4473,-5.3739,-5.3314,-5.3314,-5.3314,-5.3298,-5.324,-5.4032,-5.4399,-5.4399,-5.5244,-5.6051,-5.6822,-5.6859,-5.7299,-5.7997,-5.7997,-5.7997,-5.7997,-5.8033,-5.8033,-5.7997,-5.807,-5.8584,-5.9294,-6.0162,-6.0933,-6.1704,-6.2511,-6.278,-6.278,-6.278,-6.3392,-6.409,-6.409,-6.5228,-6.6512,-6.6512,-6.7063,-6.7687,-6.7687,-6.8274,-6.8862,-6.8862,-6.9449,-7.0036,-7.0036,-7.0,-7.022,-7.1101,-7.1256,-7.155,-7.2349,-7.2496,-7.2496,-7.2496,-7.2496,-7.2496,-7.2496,-7.2496,-7.2496,-7.2496,-7.2496,-7.2496,-7.2496,-7.1762,-7.1293,-7.1293,-7.0513,-7.0073,-7.011,-7.0,-7.0,-7.0036,-7.0,-6.9229,-6.7687,-6.7687,-6.7687,-6.7687,-6.7687,-6.7687,-3.5973,-3.7309,-3.9145,-4.2359,-4.4415,-4.6067,-4.7719,-4.9114,-5.0141,-5.0435,-5.0435,-5.0655,0.0,0.0,0.0,0.0,0.0,0.0,0.0,0.0,0.0,0.0,0.0,0.0,0.0,0.0,0.0,0.0,0.0,0.0,-5.2123,-5.183,-5.1903,-5.2417,-5.2417,-5.2674,-5.3167,-5.3482,-5.3628,-5.3665,-5.4436,-5.5244,-5.6051,-5.6565,-5.7262,-5.7997,-5.7997,-5.7997,-5.7997,-5.7997,-5.7997,-5.7997,-5.7997,-5.818,-5.8584,-5.9905,-6.0566,-6.1006,-6.2365,-6.278,-6.278,-6.278,-6.3759,-6.4861,-6.4861,-6.5999,-6.7247,-6.7247,-6.7834,-6.8458,-6.8458,-6.9082,-6.9816,-7.033,-7.066,-7.1027,-7.1541,-7.0844,-7.033,-7.1138,-7.1293,-7.155,-7.2349,-7.2496,-7.2496,-7.2496,-7.2496,-7.2496,-7.2496,-7.2496,-7.2496,-7.2496,-7.2496,-7.2496,-7.2496,-7.2239,-7.2092,-7.2092,-7.1321,-7.1101,-7.1615,-7.066,-7.033,-7.0881,-7.0367,-6.9816,-6.9229,-6.9229,-6.8972,-6.8458,-6.8458,-6.8201,-3.5385,-3.6266,-3.7749,-4.0414,-4.1699,-4.2763,-4.4672,-4.592,-4.6838,-4.7388,-4.7719,-4.8233,0.0,0.0,0.0,0.0,0.0,0.0,0.0,0.0,0.0,0.0,0.0,0.0,0.0,0.0,0.0,0.0,0.0,0.0,-5.0839,-5.0802,-5.1169,-5.1977,-5.1977,-5.238,-5.3167,-5.3203,-5.3203,-5.3203,-5.3739,-5.4546,-5.5611,-5.6161,-5.6969,-5.7997,-5.7997,-5.7997,-5.7997,-5.7997,-5.7997,-5.7997,-5.7997,-5.7997,-5.818,-5.9795,-6.0419,-6.0639,-6.2254,-6.278,-6.278,-6.278,-6.3918,-6.5301,-6.5301,-6.6402,-6.7687,-6.7687,-6.8274,-6.8898,-6.8898,-6.9706,-7.0697,-7.1505,-7.1725,-7.1872,-7.2386,-7.1651,-7.1064,-7.1615,-7.1725,-7.1872,-7.2422,-7.2496,-7.2496,-7.2496,-7.2496,-7.2496,-7.2496,-7.2496,-7.2496,-7.2496,-7.2496,-7.2496,-7.2496,-7.2496,-7.2496,-7.2496,-7.2018,-7.1945,-7.2496,-7.1468,-7.1174,-7.1688,-7.1174,-7.0917,-7.0881,-7.0367,-6.9816,-6.9302,-6.9302,-6.9009,0.0,0.0,0.0,-3.8248,-3.9203,-4.0414,-4.278,-4.3368,-4.3828,-4.5443,-4.5186,-4.5131,0.0,0.0,0.0,0.0,0.0,0.0,0.0,0.0,0.0,0.0,0.0,0.0,0.0,0.0,0.0,0.0,0.0,-5.0765,-5.0729,-5.0765,-5.1132,-5.1903,-5.1977,-5.238,-5.3188,-5.3167,-5.3203,-5.3203,-5.3203,-5.4032,-5.5596,-5.5596,-5.6455,-5.7997,-5.7997,-5.7997,-5.7997,-5.7997,-5.7997,-5.7997,-5.7997,-5.7997,-5.818,-5.9795,-6.0419,-6.0639,-6.2254,-6.278,-6.278,-6.278,-6.3943,-6.5264,-6.5301,-6.6402,-6.765,-6.7687,-6.8274,-6.8898,-6.8972,-7.0146,-7.1513,-7.2312,-7.2496,-7.2496,-7.2496,-7.2496,-7.2496,-7.2496,-7.2496,-7.2496,-7.2496,-7.2496,-7.2496,-7.2496,-7.2496,-7.2496,-7.2496,-7.2496,-7.2496,-7.2496,-7.2532,-7.2532,-7.2496,-7.2532,-7.2532,-7.2496,-7.2496,-7.2496,-7.2496,-7.2496,-7.2496,-7.2496,-7.2496,-7.2496,-7.2496,-7.0917,-7.0146,-7.011,-7.011,-7.011,-3.4894,0.0,0.0,0.0,0.0,0.0,-3.8888,-4.0063,-4.1185,-4.2213,-4.3167,-4.4158,0.0,0.0,0.0,0.0,0.0,0.0,0.0,0.0,0.0,0.0,0.0,0.0,0.0,0.0,0.0,0.0,-4.926,-4.9664,-4.904,-4.9591,-5.0051,-5.0271,-5.141,-5.2087,-5.2344,-5.2931,-5.3203,-5.3203,-5.3203,-5.4032,-5.5596,-5.5596,-5.6455,-5.7997,-5.7997,-5.7997,-5.7997,-5.7997,-5.7997,-5.7997,-5.7997,-5.7997,-5.818,-5.9795,-6.0419,-6.0639,-6.2254,-6.278,-6.278,-6.278,-6.3539,-6.453,-6.5118,-6.6035,-6.6953,-6.754,-6.8274,-6.9192,-7.033,-7.1394,-7.2239,-7.2459,-7.2496,-7.2496,-7.2496,-7.2496,-7.2496,-7.2496,-7.2496,-7.2496,-7.2496,-7.2496,-7.2496,-7.2496,-7.2496,-7.2496,-7.2496,-7.2496,-7.2496,-7.2496,-7.301,-7.312,-7.2569,-7.3046,-7.312,-7.2532,-7.2496,-7.2496,-7.2496,-7.2496,-7.2496,-7.2496,-7.2496,-7.2496,-7.2496,-7.2055,-7.1541,-7.0954,-7.0367,-7.011,-3.5848,-3.6156,-3.6795,-3.6795,0.0,0.0,-3.7734,-3.8484,-3.9218,0.0,-4.1332,0.0,0.0,0.0,0.0,0.0,0.0,0.0,0.0,0.0,0.0,0.0,0.0,0.0,0.0,-4.7021,0.0,-4.7113,-4.8012,-4.8489,-4.8306,-4.8783,-4.9243,-4.961,-5.0528,-5.1132,-5.1499,-5.2307,-5.2711,-5.2711,-5.3041,-5.3885,-5.5097,-5.5427,-5.6271,-5.7519,-5.785,-5.7997,-5.7997,-5.7997,-5.7997,-5.7997,-5.7997,-5.8217,-5.8657,-5.9942,-6.0603,-6.108,-6.2365,-6.278,-6.278,-6.278,-6.3613,-6.4677,-6.5154,-6.6109,-6.71,-6.7577,-6.8531,-6.9706,-7.0991,-7.1908,-7.2496,-7.2496,-7.2496,-7.2496,-7.2496,-7.2496,-7.2496,-7.2496,-7.2496,-7.2496,-7.2496,-7.2496,-7.2606,-7.2936,-7.301,-7.301,-7.301,-7.3303,-7.3377,-7.3046,-7.3707,-7.4001,-7.356,-7.3927,-7.4001,-7.3523,-7.3193,-7.3156,-7.3487,-7.3193,-7.301,-7.301,-7.301,-7.2826,-7.2496,-7.2496,-7.2275,-7.1798,-7.1321,-7.1101,-3.7074,-3.7235,-3.7713,-3.7529,-3.7052,0.0,-3.8028,-3.7881,-3.7896,-3.9218,-3.9643,0.0,0.0,0.0,0.0,0.0,0.0,0.0,0.0,0.0,0.0,0.0,0.0,0.0,-4.5773,-4.5773,-4.6067,-4.6782,-4.7003,-4.7406,-4.8122,-4.8269,-4.8673,-4.9427,-4.9537,-4.9941,-5.0655,-5.1463,-5.1903,-5.2013,-5.2711,-5.3518,-5.4436,-5.5133,-5.5941,-5.6859,-5.7556,-5.7923,-5.7997,-5.7997,-5.7997,-5.7997,-5.7997,-5.851,-5.9294,-6.0126,-6.0896,-6.1704,-6.2511,-6.278,-6.278,-6.278,-6.3833,-6.5081,-6.5264,-6.6292,-6.7467,-6.7677,-6.8788,-7.0146,-7.0844,-7.1725,-7.2386,-7.2386,-7.2422,-7.2496,-7.2496,-7.2496,-7.2496,-7.2496,-7.2496,-7.2532,-7.2606,-7.2569,-7.2789,-7.356,-7.3707,-7.3707,-7.3707,-7.4404,-7.4625,-7.3891,-7.4551,-7.5028,-7.4918,-7.4992,-7.5028,-7.4918,-7.4221,-7.4147,-7.4882,-7.4147,-7.3707,-7.3707,-7.3597,-7.3193,-7.2496,-7.2496,-7.2496,-7.2496,-7.2496,-7.2496,-3.9276,-3.9328,-3.9108,-3.7823,-3.786,0.0,-3.6105,-3.6633,-3.7419,0.0,-3.8028,-3.8982,0.0,0.0,0.0,0.0,0.0,0.0,0.0,0.0,0.0,0.0,0.0,0.0,-4.4892,-4.4929,-4.4984,-4.5168,-4.6379,-4.7186,-4.7333,-4.7976,-4.8379,-4.8563,-4.9224,-4.9684,-4.9831,-5.0618,-5.1353,-5.1977,-5.216,-5.3004,-5.4399,-5.4546,-5.5427,-5.6822,-5.6969,-5.7409,-5.7997,-5.7997,-5.7997,-5.7997,-5.7997,-5.851,-5.9294,-6.0126,-6.0896,-6.1704,-6.2511,-6.278,-6.278,-6.278,-6.3,-6.3514,-6.4897,-6.5521,-6.6035,-6.732,-6.8385,-6.9192,-6.9339,-7.0477,-7.1513,-7.1513,-7.2055,-7.2496,-7.2496,-7.2496,-7.2496,-7.2496,-7.2496,-7.2716,-7.334,-7.2936,-7.2789,-7.356,-7.3707,-7.3707,-7.3707,-7.4404,-7.4845,-7.4698,-7.5395,-7.5616,-7.4955,-7.5506,-7.5579,-7.4955,-7.4771,-7.4735,-7.4918,-7.4147,-7.3707,-7.3707,-7.3046,-7.2679,-7.2496,-7.2496,-7.2496,-7.2496,-7.2496,-7.2496,-4.0598,-4.0487,0.0,-3.8998,0.0,0.0,0.0,-3.6853,-3.7125,-3.7918,-3.7771,-3.7734,-3.8542,0.0,0.0,0.0,0.0,0.0,0.0,0.0,0.0,0.0,0.0,0.0,-4.4011,-4.4085,-4.4268,-4.4654,-4.581,-4.6672,-4.7076,-4.7095,-4.7462,-4.8269,-4.8343,-4.8563,-4.893,-4.9774,-5.0618,-5.1389,-5.1793,-5.2637,-5.3812,-5.4216,-5.506,-5.6235,-5.6638,-5.7262,-5.7997,-5.7997,-5.7997,-5.7997,-5.7997,-5.8731,-5.9869,-6.0272,-6.1153,-6.2254,-6.2658,-6.278,-6.278,-6.278,-6.3099,-6.3686,-6.4934,-6.5852,-6.6659,-6.7467,-6.8274,-6.8898,-6.8898,-6.9816,-7.0697,-7.0697,-7.1321,-7.1908,-7.1908,-7.2239,-7.2496,-7.2496,-7.2496,-7.2642,-7.3046,-7.3083,-7.3377,-7.4184,-7.4625,-7.4735,-7.4368,-7.4992,-7.5359,-7.4955,-7.5616,-7.6093,-7.6099,-7.6497,-7.6533,-7.6099,-7.5726,-7.5689,-7.6063,-7.5322,-7.4698,-7.4294,-7.3523,-7.3083,-7.3083,-7.3523,-7.3487,-7.3083,-7.3083,-7.3083,0.0,0.0,0.0,0.0,0.0,-3.9386,0.0,0.0,0.0,0.0,0.0,0.0,0.0,0.0,0.0,0.0,0.0,0.0,0.0,0.0,0.0,0.0,0.0,0.0,0.0,-4.3294,-4.3608,-4.4415,-4.5076,-4.5773,-4.6599,-4.6177,-4.6581,-4.7993,-4.7443,-4.748,-4.8306,-4.915,-4.9994,-5.0802,-5.161,-5.2417,-5.3203,-5.4032,-5.484,-5.5647,-5.6455,-5.7262,-5.7997,-5.7997,-5.7997,-5.7997,-5.7997,-5.8877,-6.0162,-6.0162,-6.119,-6.2585,-6.2585,-6.267,-6.278,-6.278,-6.3503,-6.4457,-6.5118,-6.6402,-6.7687,-6.7687,-6.8164,-6.8678,-6.8678,-6.9265,-6.9853,-6.9853,-7.0624,-7.1293,-7.1293,-7.1945,-7.2496,-7.2496,-7.2496,-7.2606,-7.2899,-7.3377,-7.4037,-7.4992,-7.5542,-7.5616,-7.4992,-7.5616,-7.5836,-7.5212,-7.5873,-7.6607,-7.7237,-7.7273,-7.7273,-7.7273,-7.6717,-7.6644,-7.7273,-7.6533,-7.5726,-7.4918,-7.4258,-7.3927,-7.3927,-7.4588,-7.4588,-7.3927,-7.3927,-7.3854,0.0,0.0,0.0,0.0,-4.1442,0.0,0.0,0.0,-3.8102,-3.6964,0.0,0.0,0.0,0.0,0.0,0.0,0.0,0.0,0.0,0.0,0.0,0.0,0.0,0.0,0.0,0.0,-4.2763,-4.3571,-4.3718,-4.4121,-4.4929,-4.5553,-4.6324,-4.7223,-4.7149,-4.748,-4.8306,-4.9114,-4.9958,-5.0802,-5.161,-5.2417,-5.3203,-5.4032,-5.484,-5.5647,-5.6455,-5.7262,-5.7997,-5.7997,-5.7997,-5.7997,-5.7997,-5.8547,-5.9331,-5.9331,-6.0346,-6.1741,-6.1741,-6.2218,-6.278,-6.278,-6.387,-6.5191,-6.5264,-6.6402,-6.7687,-6.7687,-6.776,-6.7834,-6.7834,-6.8421,-6.9045,-6.9045,-7.022,-7.1293,-7.1293,-7.1945,-7.2496,-7.2496,-7.2496,-7.2973,-7.4404,-7.4111,-7.4221,-7.5726,-7.5432,-7.5028,-7.4918,-7.5616,-7.6056,-7.5983,-7.668,-7.72,-7.7273,-7.7273,-7.7273,-7.7273,-7.72,-7.72,-7.7273,-7.6533,-7.5726,-7.4918,-7.4808,-7.4771,-7.4771,-7.4882,-7.4845,-7.4771,-7.4771,-7.4368,0.0,0.0,0.0,0.0,0.0,0.0,-3.8946,0.0,-3.8065,0.0,0.0,0.0,0.0,0.0,0.0,0.0,-3.6795,0.0,0.0,0.0,0.0,0.0,0.0,0.0,0.0,0.0,0.0,0.0,0.0,-4.3864,-4.4672,-4.4562,-4.5076,-4.6361,-4.6397,-4.6782,-4.759,-4.8893,-4.9958,-5.0802,-5.161,-5.2417,-5.3203,-5.4032,-5.484,-5.5647,-5.6455,-5.7262,-5.7997,-5.7997,-5.7997,-5.7997,-5.7997,-5.851,-5.9184,-5.9184,-5.9942,-6.097,-6.1447,-6.1814,-6.2181,-6.2658,-6.3918,-6.5301,-6.5301,-6.6402,-6.7687,-6.7687,-6.7687,-6.7687,-6.7687,-6.7944,-6.8311,-6.8788,-6.9779,-7.0734,-7.1183,-7.1945,-7.2496,-7.2496,-7.2899,-7.356,-7.4698,-7.4625,-7.4625,-7.5322,-7.5506,-7.5616,-7.5616,-7.5469,-7.5579,-7.6056,-7.6423,-7.679,-7.7237,-7.7273,-7.7273,-7.7273,-7.7273,-7.7273,-7.7273,-7.6533,-7.5946,-7.5616,-7.5616,-7.5616,-7.5616,-7.6093,-7.6283,-7.6246,-7.5359,-7.4735,-4.3515,0.0,0.0,0.0,0.0,0.0,0.0,0.0,0.0,0.0,0.0,0.0,0.0,0.0,0.0,-3.6707,0.0,-3.645,0.0,0.0,0.0,0.0,0.0,0.0,0.0,0.0,0.0,-4.313,-4.3167,-4.3534,-4.4342,-4.3828,-4.4121,-4.5516,-4.5773,-4.6287,-4.7076,-4.8967,-5.0215,-5.0802,-5.183,-5.2637,-5.3203,-5.4252,-5.4913,-5.5317,-5.6602,-5.7336,-5.7703,-5.7923,-5.7997,-5.7997,-5.7997,-5.8364,-5.8877,-5.8877,-5.9391,-6.0199,-6.1006,-6.1557,-6.2034,-6.2622,-6.3918,-6.5301,-6.5301,-6.6402,-6.7687,-6.7687,-6.7687,-6.7687,-6.7687,-6.7687,-6.7907,-6.8715,-6.9522,-7.033,-7.1138,-7.1945,-7.2496,-7.2496,-7.3156,-7.3891,-7.4478,-7.4955,-7.5322,-7.5542,-7.5873,-7.6093,-7.6093,-7.5579,-7.5469,-7.6056,-7.6313,-7.668,-7.7237,-7.7273,-7.7273,-7.7273,-7.7273,-7.7273,-7.7273,-7.6754,-7.6423,-7.6423,-7.6423,-7.6423,-7.6423,-7.7047,-7.7273,-7.7273,-7.6099,-7.5469,0.0,0.0,0.0,-4.1719,0.0,0.0,0.0,0.0,-4.0765,0.0,0.0,0.0,0.0,0.0,-3.9276,-3.7713,-3.7456,0.0,0.0,0.0,0.0,0.0,0.0,0.0,0.0,0.0,0.0,-4.2286,-4.2323,-4.269,-4.3515,-4.3497,-4.3864,-4.4709,-4.548,-4.6287,-4.7076,-4.9554,-5.0765,-5.0839,-5.2417,-5.3167,-5.324,-5.484,-5.5133,-5.4583,-5.6932,-5.7519,-5.6895,-5.7666,-5.7997,-5.7997,-5.7997,-5.8033,-5.8033,-5.8033,-5.8547,-5.9331,-6.0162,-6.1484,-6.2743,-6.278,-6.3918,-6.5301,-6.5301,-6.6402,-6.7687,-6.7687,-6.7687,-6.7687,-6.7687,-6.7687,-6.7907,-6.8715,-6.9522,-7.033,-7.1138,-7.1945,-7.2496,-7.2496,-7.3156,-7.3707,-7.3707,-7.5028,-7.635,-7.709,-7.6607,-7.6093,-7.6093,-7.6093,-7.6056,-7.6093,-7.6827,-7.7273,-7.7273,-7.7273,-7.7273,-7.7273,-7.7273,-7.7273,-7.7273,-7.7273,-7.7237,-7.7237,-7.7237,-7.7237,-7.7237,-7.7273,-7.7273,-7.7273,-7.7237,-7.6827,0.0,0.0,-4.5039,-4.3167,0.0,0.0,0.0,0.0,0.0,0.0,0.0,0.0,0.0,0.0,-3.9533,-3.8469,-3.7404,-3.6303,0.0,0.0,0.0,0.0,0.0,0.0,0.0,0.0,0.0,-4.1499,-4.1992,-4.2653,0.0,-4.3515,-4.3608,-4.3901,-4.5186,-4.603,-4.6324,-4.9297,-5.0802,-5.0839,-5.2454,-5.3203,-5.3261,-5.4326,-5.4656,-5.4509,-5.6381,-5.7042,-5.6859,-5.7666,-5.7997,-5.7997,-5.7997,-5.7997,-5.7997,-5.7997,-5.851,-5.9368,-6.075,-6.1887,-6.278,-6.278,-6.3918,-6.5301,-6.5301,-6.6402,-6.7687,-6.7687,-6.7687,-6.7687,-6.7687,-6.7687,-6.8017,-6.9376,-6.9889,-7.0477,-7.1798,-7.2312,-7.2496,-7.2496,-7.3156,-7.3854,-7.4404,-7.5395,-7.6203,-7.646,-7.6276,-7.6276,-7.6827,-7.6423,-7.6313,-7.6864,-7.7127,-7.7273,-7.7273,-7.7273,-7.7273,-7.7273,-7.7273,-7.7273,-7.7273,-7.7273,-7.7273,-7.7273,-7.7273,-7.7273,-7.7273,-7.7273,-7.7273,-7.7273,-7.7273,-7.69,-4.5149,-4.5516,0.0,-4.4268,-4.3534,0.0,-4.1111,0.0,0.0,0.0,0.0,0.0,0.0,0.0,-4.0304,-3.8909,-3.7588,-3.6229,0.0,-3.4564,0.0,0.0,0.0,0.0,0.0,0.0,-4.0194,-4.1022,-4.1572,-4.2359,0.0,0.0,-4.3515,-4.3515,-4.5039,-4.5883,-4.5883,-4.915,-5.0802,-5.0839,-5.2454,-5.3203,-5.3203,-5.4032,-5.4399,-5.4473,-5.6124,-5.6822,-5.6859,-5.7666,-5.7997,-5.7997,-5.7997,-5.7997,-5.7997,-5.7997,-5.8694,-5.9808,-6.1153,-6.2144,-6.278,-6.278,-6.3918,-6.5301,-6.5301,-6.6402,-6.7614,-6.7357,-6.7467,-6.7614,-6.7357,-6.7467,-6.8091,-6.9706,-7.011,-7.055,-7.2165,-7.2496,-7.2569,-7.2863,-7.3597,-7.4368,-7.5212,-7.5983,-7.6533,-7.6533,-7.6533,-7.6717,-7.7237,-7.6864,-7.6754,-7.7237,-7.7273,-7.7273,-7.7273,-7.7273,-7.7273,-7.7273,-7.7273,-7.7273,-7.7273,-7.7273,-7.7714,-7.8594,-7.775,-7.7714,-7.8626,-7.7714,-7.7273,-7.7273,-7.7273,-7.7047]},{"header":{"parameterUnit":"m.s-1","parameterCategory":1,"la1":30.6,"la2":29.2853,"lo1":-89.7004,"lo2":-87.6739,"dy":0.0162,"dx":0.0183,"nx":112,"ny":82,"refTime":"2024-03-29T18:00:00:Z","depth":0,"parameterNumber":3,"parameterNumberName":"V-component_of_WINDS"},"data":[0.0,0.0,0.0,0.0,0.0,0.0,0.0,0.0,0.0,0.0,0.0,0.0,0.0,0.0,0.0,0.0,0.0,0.0,0.0,0.0,0.0,0.0,0.0,0.0,0.0,0.0,0.0,0.0,0.0,0.0,0.0,0.0,0.0,0.0,0.0,0.0,0.0,0.0,0.0,0.0,0.0,0.0,0.0,0.0,0.0,0.0,0.0,0.0,0.0,0.0,0.0,0.0,0.0,0.0,0.0,0.0,0.0,0.0,0.0,0.0,0.0,0.0,0.0,0.0,0.0,0.0,0.0,0.0,0.0,0.0,0.0,0.0,0.0,0.0,0.0,0.0,0.0,0.0,0.0,0.0,0.0,0.0,0.0,0.0,0.0,0.0,0.0,0.0,0.0,0.0,0.862,1.0442,1.2589,1.3831,1.3709,1.3431,1.2305,1.0066,0.0,0.0,0.0,0.0,0.0,0.0,0.0,0.0,0.0,0.0,0.0,0.0,0.0,0.0,0.0,0.0,0.0,0.0,0.0,0.0,0.0,0.0,0.0,0.0,0.0,0.0,0.0,0.0,0.0,0.0,0.0,0.0,0.0,0.0,0.0,0.0,0.0,0.0,0.0,0.0,0.0,0.0,0.0,0.0,0.0,0.0,0.0,0.0,0.0,0.0,0.0,0.0,0.0,0.0,0.0,0.0,0.0,0.0,0.0,0.0,0.0,0.0,0.0,0.0,0.0,0.0,0.0,0.0,0.0,0.0,0.0,0.0,0.0,0.0,0.0,0.0,0.0,0.0,0.0,0.0,0.0,0.0,0.0,0.0,0.0,0.0,0.0,0.0,0.0,0.0,0.0,0.0,0.0,0.0,0.0,0.0,0.0,0.0,0.0,0.0,0.0,0.0,0.0,0.0,0.9142,1.2019,1.3363,1.4027,1.4007,1.3166,1.1993,1.0487,0.0,0.0,0.0,0.0,0.0,0.0,0.0,0.0,0.0,0.0,0.0,0.0,0.0,0.0,0.0,0.0,0.0,0.0,0.0,0.0,0.0,0.0,0.0,0.0,0.0,0.0,0.0,0.0,0.0,0.0,0.0,0.0,0.0,0.0,0.0,0.0,0.0,0.0,0.0,0.0,0.0,0.0,0.0,0.0,0.0,0.0,0.0,0.0,0.0,0.0,0.0,0.0,0.0,0.0,0.0,0.0,0.0,0.0,0.0,0.0,0.0,0.0,0.0,0.0,0.0,0.0,0.0,0.0,0.0,0.0,0.0,0.0,0.0,0.0,0.0,0.0,0.0,0.0,0.0,0.0,0.0,0.0,0.0,0.0,0.0,0.0,0.0,0.0,0.0,0.0,0.0,0.0,0.0,0.0,0.0,0.0,0.0,0.0,0.0,0.0,0.0,0.0,0.0,0.8874,1.0212,1.2617,1.337,1.3709,1.3709,1.282,1.1653,1.0215,0.9354,0.0,0.0,0.0,0.0,0.0,0.0,0.0,0.0,0.0,0.0,0.0,0.0,0.0,0.0,0.0,0.0,0.0,0.0,0.0,0.0,0.0,0.0,0.0,0.0,0.0,0.0,0.0,0.0,0.0,0.0,0.0,0.0,0.0,0.0,0.0,0.0,0.0,0.0,0.0,0.0,0.0,0.0,0.0,0.0,0.0,0.0,0.0,0.0,0.0,0.0,0.0,0.0,0.0,0.0,0.0,0.0,0.0,0.0,0.0,0.0,0.0,0.0,0.0,0.0,0.0,0.0,0.0,0.0,0.0,0.0,0.0,0.0,0.0,0.0,0.0,0.0,0.0,0.0,0.0,0.0,0.0,0.0,0.0,0.0,0.0,0.0,0.0,0.0,0.0,0.0,0.0,0.0,0.0,0.0,0.0,0.0,0.0,0.0,0.0,0.0,0.0,0.0,1.0175,1.1151,1.2739,1.3207,1.337,1.3302,1.2406,1.1253,0.9863,0.8832,0.0,0.0,0.0,0.0,0.0,0.0,0.0,0.0,0.0,0.0,0.0,0.0,0.0,0.0,0.0,0.0,0.0,0.0,0.0,0.0,0.0,0.0,0.0,0.0,0.0,0.0,0.0,0.0,0.0,0.0,0.0,0.0,0.0,0.0,0.0,0.0,0.0,0.0,0.0,0.0,0.0,0.0,0.0,0.0,0.0,0.0,0.0,0.0,0.0,0.0,0.0,0.0,0.0,0.0,0.0,0.0,0.0,0.0,0.0,0.0,0.0,0.0,0.0,0.0,0.0,0.0,0.0,0.0,0.0,0.0,0.0,0.0,0.0,0.0,0.0,0.0,0.0,0.0,0.0,0.0,0.0,0.0,0.0,0.0,0.0,0.0,0.0,0.0,0.0,0.0,0.0,0.0,0.0,0.0,0.0,0.0,0.0,0.0,0.0,0.0,0.0,0.0,1.0432,1.1681,1.2644,1.3139,1.3288,1.3017,1.1904,1.0765,0.9693,0.8391,0.0,0.0,0.0,0.0,0.0,0.0,0.0,0.0,0.0,0.0,0.0,0.0,0.0,0.0,0.0,0.0,0.0,0.0,0.0,0.0,0.0,0.0,0.0,0.0,0.0,0.0,0.0,0.0,0.0,0.0,0.0,0.0,0.0,0.0,0.0,0.0,0.0,0.0,0.0,0.0,0.0,0.0,0.0,0.0,0.0,0.0,0.0,0.0,0.0,0.0,0.0,0.0,0.0,0.0,0.0,0.0,0.0,0.0,0.0,0.0,0.0,0.0,0.0,0.0,0.0,0.0,0.0,0.0,0.0,0.0,0.0,0.0,0.0,0.0,0.0,0.0,0.0,0.0,0.0,0.0,0.0,0.0,0.0,0.0,0.0,0.0,0.0,0.0,0.0,0.0,0.0,0.0,0.0,0.0,0.0,0.0,0.0,0.0,0.0,0.0,0.0,0.0,1.0033,1.1043,1.2318,1.261,1.2623,1.242,1.1558,1.05,0.9266,0.0,0.0,0.0,0.0,0.0,0.0,0.0,0.0,0.0,0.0,0.0,0.0,0.0,0.0,0.0,0.0,0.0,0.0,0.0,0.0,0.0,0.0,0.0,0.0,0.0,0.0,0.0,0.0,0.0,0.0,0.0,0.0,0.0,0.0,0.0,0.0,0.0,0.0,0.0,0.0,0.0,0.0,0.0,0.0,0.0,0.0,0.0,0.0,0.0,0.0,0.0,0.0,0.0,0.0,0.0,0.0,0.0,0.0,0.0,0.0,0.0,0.0,0.0,0.0,0.0,0.0,0.0,0.0,0.0,0.0,0.0,0.0,0.0,0.0,0.0,0.0,0.0,0.0,0.0,0.0,0.0,0.0,0.0,0.0,0.0,0.0,0.0,0.0,0.0,0.0,0.0,0.0,0.0,0.0,0.0,0.0,0.0,0.0,0.0,0.0,0.0,0.0,0.8852,0.976,1.0656,1.1877,1.2088,1.2047,1.1796,1.1009,0.9963,0.8866,0.0,0.0,0.0,0.0,0.0,0.0,0.0,0.0,0.0,0.0,0.0,0.0,0.0,0.0,0.0,0.0,0.0,0.0,0.0,0.0,0.0,0.0,0.0,0.0,0.0,0.0,0.0,0.0,0.0,0.0,0.0,0.0,0.0,0.0,0.0,0.0,0.0,0.0,0.0,0.0,0.0,0.0,0.0,0.0,0.0,0.0,0.0,0.0,0.0,0.0,0.0,0.0,0.0,0.0,0.0,0.0,0.0,0.0,0.0,0.0,0.0,0.0,0.0,0.0,0.0,0.0,0.0,0.0,0.0,0.0,0.0,0.0,0.0,0.0,0.0,0.0,0.0,0.0,0.0,0.0,0.0,0.0,0.0,0.0,0.0,0.0,0.0,0.0,0.0,0.0,0.0,0.0,0.0,0.0,0.0,0.0,0.0,0.0,0.0,0.0,0.0,0.0,0.8615,0.9747,1.0717,1.1321,1.1647,1.164,1.1199,1.0209,0.9286,0.0,0.0,0.0,0.0,0.0,0.0,0.0,0.0,0.0,0.0,0.0,0.0,0.0,0.0,0.0,0.0,0.0,0.0,0.0,0.0,0.0,0.0,0.0,0.0,0.0,0.0,0.0,0.0,0.0,0.0,0.0,0.0,0.0,0.0,0.0,0.0,0.0,0.0,0.0,0.0,0.0,0.0,0.0,0.0,0.0,0.0,0.0,0.0,0.0,0.0,0.0,0.0,0.0,0.0,0.0,0.0,0.0,0.0,0.0,0.0,0.0,0.0,0.0,0.0,0.0,0.0,0.0,0.0,0.0,0.0,0.0,0.0,0.0,0.0,0.0,0.0,0.0,0.0,0.0,0.0,0.0,0.0,0.0,0.0,0.0,0.0,0.0,0.0,0.0,0.0,0.0,0.0,0.0,0.0,0.0,0.0,0.0,0.0,0.0,0.0,0.0,0.0,0.0,0.8615,0.9571,1.0446,1.1158,1.1307,1.1219,1.088,1.0181,0.9347,0.8391,0.0,0.0,0.0,0.0,0.0,0.0,0.0,0.0,0.0,0.0,0.0,0.0,0.0,0.0,0.0,0.0,0.0,0.0,0.0,0.0,0.0,0.0,0.0,0.0,0.0,0.0,0.0,0.0,0.0,0.0,0.0,0.0,0.0,0.0,0.0,0.0,0.0,0.0,0.0,0.0,0.0,0.0,0.0,0.0,0.0,0.0,0.0,0.0,0.0,0.0,0.0,0.0,0.0,0.0,0.0,0.0,0.0,0.0,0.0,0.0,0.0,0.0,0.0,0.0,0.0,0.0,0.0,0.0,0.0,0.0,0.0,0.0,0.0,0.0,0.0,0.0,0.0,0.0,0.0,0.0,0.0,0.0,0.0,0.0,0.0,0.0,0.0,0.0,0.0,0.0,0.0,0.0,0.0,0.0,0.0,0.0,0.0,0.0,0.0,0.0,0.0,0.0,0.8526,0.9401,1.0222,1.0914,1.1043,1.0934,1.0575,0.9992,0.9252,0.8381,0.0,0.0,0.0,0.0,0.0,0.0,0.0,0.0,0.0,0.0,0.0,0.0,0.0,0.0,0.0,0.0,0.0,0.0,0.0,0.0,0.0,0.0,0.0,0.0,0.0,0.0,0.0,0.0,0.0,0.0,0.0,0.0,0.0,0.0,0.0,0.0,0.0,0.0,0.0,0.0,0.0,0.0,0.0,0.0,0.0,0.0,0.0,0.0,0.0,0.0,0.0,0.0,0.0,0.0,0.0,0.0,0.0,0.0,0.0,0.0,0.0,0.0,0.0,0.0,0.0,0.0,0.0,0.0,0.0,0.0,0.0,0.0,0.0,0.0,0.0,0.0,0.0,0.0,0.0,0.0,0.0,0.0,0.0,0.0,0.0,0.0,0.0,0.0,0.0,0.0,0.0,0.0,0.0,0.0,0.0,0.0,0.0,0.0,0.0,0.0,0.0,0.0,0.8384,0.9252,1.0039,1.0656,1.0833,1.0738,1.0317,0.9727,0.9062,0.8368,0.0,0.0,0.0,0.0,0.0,0.0,0.0,0.0,0.0,0.0,0.0,0.0,0.0,0.0,0.0,0.0,0.0,0.0,0.0,0.0,0.0,0.0,0.0,0.0,0.0,0.0,0.0,0.0,0.0,0.0,0.0,0.0,0.0,0.0,0.0,0.0,0.0,0.0,0.0,0.0,0.0,0.0,0.0,0.0,0.0,0.0,0.0,0.0,0.0,0.0,0.0,0.0,0.0,0.0,0.0,0.0,0.0,0.0,0.0,0.0,0.8615,0.0,0.0,0.0,0.0,0.0,0.0,0.0,0.0,0.0,0.0,0.0,0.0,0.0,0.0,0.0,0.0,0.0,0.0,0.0,0.0,0.0,0.0,0.0,0.0,0.0,0.0,0.0,0.0,0.0,0.0,0.0,0.0,0.0,0.0,0.0,0.0,0.0,0.0,0.0,0.0,0.0,0.8384,0.9171,0.993,1.0643,1.0643,1.0507,1.0297,0.9727,0.9062,0.8368,0.7787,0.0,0.0,0.0,0.0,0.0,0.0,0.0,0.0,0.0,0.0,0.0,0.0,0.0,0.0,0.0,0.0,0.0,0.0,0.0,0.0,0.0,0.0,0.0,0.0,0.0,0.0,0.0,0.0,0.0,0.0,0.0,0.0,0.0,0.0,0.0,0.0,0.0,0.0,0.0,0.0,0.0,0.0,0.0,0.0,0.0,0.0,0.0,0.0,0.0,0.0,0.0,0.0,0.0,0.0,0.0,0.0,0.0,0.0,0.0,0.0,0.9069,0.0,0.0,0.0,0.0,0.0,0.0,0.0,0.0,0.0,0.0,0.0,0.0,0.0,0.0,0.0,0.0,0.0,0.0,0.0,0.0,0.0,0.0,0.0,0.0,0.0,0.0,0.0,0.0,0.0,0.0,0.0,0.0,0.0,0.0,0.0,0.0,0.0,0.0,0.0,0.0,0.8384,0.9015,0.968,1.0426,1.0439,1.0331,1.0181,0.9686,0.9123,0.852,0.7923,0.0,0.0,0.0,0.0,0.0,0.0,0.0,0.0,0.0,0.0,0.0,0.0,0.0,0.0,0.0,0.0,0.0,0.0,0.0,0.0,0.0,0.0,0.0,0.0,0.0,0.0,0.0,0.0,0.0,0.0,0.0,0.0,0.0,0.0,0.0,0.0,0.0,0.0,0.0,0.0,0.0,0.0,0.0,0.0,0.0,0.0,0.0,0.0,0.0,0.0,0.0,0.0,0.0,1.1009,1.1301,1.1582,1.1582,1.164,1.1789,1.0677,1.0059,0.9808,0.9388,0.0,0.0,0.0,0.0,0.0,0.0,0.0,0.0,0.0,0.0,0.0,0.0,0.0,0.0,0.0,0.0,0.0,0.0,0.0,0.0,0.0,0.0,0.0,0.0,0.9096,0.9205,0.0,0.0,0.0,0.0,0.0,0.0,0.0,0.0,0.0,0.0,0.0,0.0,0.8425,0.8968,0.9528,1.0202,1.0256,1.0175,0.9963,0.9625,0.9178,0.8703,0.8072,0.7543,0.0,0.0,0.0,0.0,0.0,0.0,0.0,0.0,0.0,0.0,0.0,0.0,0.0,0.0,0.0,0.0,0.0,0.0,0.0,0.0,0.0,0.0,0.0,0.0,0.0,0.0,0.0,0.0,0.0,0.0,0.0,0.0,1.2914,1.226,0.0,0.0,0.0,0.0,0.0,0.0,0.0,0.0,0.0,0.0,0.0,0.0,0.0,1.027,1.0611,1.1538,1.1986,1.2033,1.2718,1.2996,1.2908,1.2908,1.2861,1.2773,1.2596,0.0,1.0678,1.0419,0.0,0.0,0.0,0.0,0.0,0.0,0.0,0.0,0.0,0.0,0.0,0.0,0.0,0.0,0.0,0.0,0.0,0.0,0.0,0.0,0.0,0.0,0.949,0.9612,0.9707,0.9652,0.0,0.8682,0.8147,0.7814,0.7651,0.0,0.0,0.0,0.0,0.0,0.0,0.0,0.8587,0.9069,0.9591,1.0215,1.0161,0.9957,0.9863,0.9564,0.913,0.8547,0.8303,0.7868,0.7125,0.7038,0.0,0.0,0.0,0.0,0.0,0.0,0.0,0.0,0.0,0.0,0.0,0.0,0.0,0.0,0.0,0.0,0.0,0.0,0.0,0.0,0.0,0.0,0.0,0.0,0.0,0.0,0.0,0.0,0.0,1.3688,1.3881,1.2804,1.3103,1.2405,0.0,0.0,0.0,0.0,0.0,0.0,0.0,0.0,0.0,1.0812,1.1206,1.1586,1.1945,1.2752,1.3207,1.3295,1.379,1.4034,1.4048,1.3885,1.3817,1.3824,1.3654,1.3105,1.2257,1.1362,1.0568,0.9849,0.0,0.0,0.0,0.0,0.8791,0.8954,0.9191,0.9273,0.0,0.913,0.0,0.0,0.0,0.0,0.0,0.0,0.0,0.0,0.0,0.0,0.0,1.0025,1.0209,1.0243,0.9951,0.9496,0.8927,0.0,0.8018,0.7828,0.7353,0.0,0.0,0.0,0.0,0.8024,0.852,0.8974,0.9422,0.9856,0.9842,0.9774,0.9707,0.9354,0.8981,0.8635,0.8316,0.7957,0.7536,0.736,0.7109,0.0,0.0,0.0,0.0,0.0,0.0,0.0,0.0,0.0,0.0,0.0,0.0,0.0,0.0,0.0,0.0,0.0,0.0,0.0,0.0,0.0,0.0,0.0,0.0,0.0,0.0,0.0,0.0,1.4891,1.5317,1.3693,1.4905,1.4483,0.0,0.0,0.0,0.0,0.0,0.0,1.4512,1.4734,1.4613,1.4093,1.4438,1.4574,1.4266,1.4944,1.4911,1.4414,1.4679,1.4821,1.4848,1.4624,1.4523,1.4502,1.4278,1.3953,1.3485,1.2325,1.145,1.0785,1.027,0.9951,0.9774,0.9741,0.9822,0.9985,1.0139,1.0193,1.0112,0.9876,0.0,0.9273,0.8676,0.0,0.0,0.0,0.0,0.8899,0.9462,0.9774,1.0012,1.0324,1.0561,1.0649,1.0392,1.0093,0.9618,0.0,0.8465,0.8214,0.774,0.0,0.0,0.0,0.0,0.8221,0.8554,0.8975,0.9309,0.9523,0.9551,0.9517,0.9442,0.9074,0.879,0.8615,0.8282,0.8011,0.7821,0.7597,0.7394,0.7204,0.0,0.0,0.0,0.0,0.0,0.0,0.0,0.0,0.0,0.0,0.0,0.0,0.0,0.0,0.0,0.0,0.0,0.0,0.0,0.0,0.0,0.0,0.0,0.0,0.0,0.0,0.0,0.0,0.0,1.5946,1.8298,0.0,0.0,0.0,0.0,1.5894,1.6762,1.7716,1.8611,1.8953,1.9616,2.068,2.1024,2.0317,1.863,1.8845,1.775,1.5343,1.5506,1.5432,1.516,1.5147,1.4909,1.4509,1.4496,1.4319,1.3987,1.3349,1.2562,1.1735,1.1423,1.1124,1.0786,1.0704,1.0751,1.0813,1.0833,1.0739,1.0704,1.0759,1.0415,0.9909,0.9788,0.9537,0.0,0.0,0.9551,0.9659,1.0114,1.0249,1.0331,1.0629,1.0711,1.0677,1.0514,1.0249,0.9835,0.0,0.8981,0.8587,0.8282,0.0,0.7968,0.7961,0.8147,0.8418,0.8804,0.9055,0.9268,0.9374,0.9395,0.9279,0.8939,0.8898,0.8757,0.8323,0.8327,0.8126,0.7821,0.7794,0.7651,0.7412,0.7204,0.0,0.0,0.0,0.0,0.0,0.0,0.0,0.0,0.0,0.0,0.0,0.0,0.0,0.0,0.0,0.0,0.0,0.0,0.0,0.0,0.0,0.0,0.0,0.0,0.0,0.0,0.0,0.0,1.889,2.1098,0.0,1.8246,1.9154,1.9887,1.976,2.1401,2.155,1.9827,2.016,1.9456,1.7445,1.7531,1.7429,1.695,1.7173,1.6702,1.556,1.5615,1.5432,1.5045,1.4943,1.4753,1.4509,1.4414,1.4319,1.4204,1.3987,1.3424,1.2657,1.2257,1.1986,1.1782,1.1525,1.1531,1.1647,1.1552,1.1423,1.1246,1.0907,1.046,1.0039,0.9985,0.9829,0.9693,0.9849,0.9964,1.01,1.0351,1.0487,1.0588,1.0697,1.0643,1.0561,1.0507,1.0256,0.9936,0.9842,0.9367,0.8872,0.8472,0.8445,0.8404,0.8214,0.8397,0.8615,0.8771,0.9001,0.9228,0.9282,0.915,0.9055,0.8892,0.8676,0.8438,0.8333,0.8085,0.797,0.7907,0.7862,0.776,0.7658,0.7597,0.7333,0.0,0.0,0.0,0.0,0.0,0.0,0.0,0.0,0.0,0.0,0.0,0.0,0.0,0.0,0.0,0.0,0.0,0.0,0.0,0.0,0.0,0.0,0.0,0.0,0.0,1.9236,2.1309,2.099,2.3622,2.4379,2.1675,2.2824,2.3866,2.4087,2.5544,2.5557,2.3709,2.3917,2.3031,2.0721,2.0679,2.0401,1.9708,1.9053,1.8041,1.6708,1.5862,1.5248,1.4814,1.4706,1.4584,1.4434,1.434,1.4299,1.4299,1.4245,1.3926,1.3437,1.3091,1.28,1.2556,1.2305,1.2244,1.225,1.1999,1.1816,1.1606,1.1111,1.0677,1.0351,1.0287,1.0179,1.0148,1.0249,1.0351,1.0453,1.0541,1.0643,1.0711,1.0656,1.0568,1.048,1.0432,1.0222,0.9984,0.9984,0.9646,0.9198,0.8845,0.8784,0.8723,0.8526,0.8621,0.873,0.8777,0.896,0.9062,0.9008,0.892,0.8818,0.8723,0.8438,0.8248,0.8194,0.8004,0.7887,0.7988,0.7889,0.7814,0.7814,0.7767,0.7495,0.6957,0.0,0.0,0.0,0.0,0.0,0.0,0.0,0.0,0.0,0.0,0.0,0.0,0.0,0.0,0.0,0.0,0.0,0.0,0.0,0.0,0.0,0.0,0.0,1.7926,2.1162,2.3237,2.2356,2.6011,2.7715,2.5153,2.6624,2.8043,2.8631,2.8938,2.9384,3.0237,3.029,3.0543,3.0902,3.0835,2.9589,2.7096,2.4684,2.1878,1.8778,1.6378,1.4943,1.4509,1.4509,1.4434,1.4299,1.4299,1.4299,1.4278,1.4136,1.4061,1.4034,1.3885,1.3559,1.3159,1.301,1.2854,1.2651,1.221,1.1959,1.1782,1.1491,1.1199,1.0887,1.0887,1.0779,1.0717,1.0717,1.0717,1.0717,1.0717,1.0717,1.0683,1.0534,1.0493,1.0446,1.031,1.0154,0.9977,0.9977,0.9808,0.9564,0.9415,0.915,0.8898,0.8892,0.8818,0.0,0.8865,0.8885,0.8824,0.873,0.8716,0.8594,0.8354,0.8327,0.8208,0.8002,0.7982,0.7982,0.7988,0.7889,0.7814,0.7862,0.7678,0.7455,0.7194,0.0,0.0,0.0,0.0,0.0,0.0,0.0,0.0,0.0,0.0,0.0,0.0,0.0,0.0,0.0,0.0,0.0,0.0,0.0,0.0,0.0,1.8933,2.0981,2.1206,2.3935,2.6308,2.7346,2.9269,3.0103,2.9229,2.9611,3.0007,3.0181,3.0461,2.9886,2.8118,2.8209,2.7427,2.5478,2.3837,2.2519,2.1506,1.9033,1.7318,1.6198,1.5445,1.4848,1.4509,1.4509,1.4434,1.4299,1.4299,1.4238,1.4129,1.4089,1.3878,1.358,1.3539,1.3444,1.3295,1.2929,1.263,1.2359,1.2013,1.1864,1.1803,1.1613,1.1355,1.1104,1.1104,1.0921,1.0717,1.0717,1.0717,1.0717,1.0717,1.0717,1.0711,1.067,1.0493,1.0331,1.029,1.0073,0.9883,0.9883,0.9822,0.972,0.9571,0.9476,0.9347,0.913,0.9055,0.0,0.8892,0.8885,0.8865,0.8824,0.8777,0.8635,0.8438,0.833,0.8208,0.8002,0.7887,0.7923,0.7982,0.7889,0.8292,0.938,0.8304,0.8124,0.0,0.0,0.0,0.0,0.0,0.0,0.0,0.0,0.0,0.0,0.0,0.0,0.0,0.0,0.0,0.0,0.0,0.0,0.0,0.0,0.0,0.0,2.1161,2.3648,2.4964,2.6759,2.8497,3.0034,3.1036,3.1623,3.1704,3.1597,3.153,3.153,3.157,3.0737,2.8893,2.8924,2.8265,2.6582,2.5199,2.3778,2.2517,1.9896,1.7858,1.6437,1.5357,1.4652,1.4421,1.4421,1.434,0.0,1.4204,1.4116,1.3973,1.3912,1.3695,0.0,0.0,0.0,0.0,0.0,1.24,1.2162,1.1918,1.1789,1.1714,1.1572,1.1321,1.107,1.107,1.0907,1.0717,1.0717,1.0717,1.0717,1.0717,1.0717,1.0704,1.0636,1.0493,1.0337,1.0209,1.0046,0.9835,0.9836,0.0,0.0,0.9713,0.9646,0.953,0.9344,0.9248,0.9103,0.8898,0.8885,0.8838,0.8764,0.8669,0.8526,0.8316,0.8221,0.0,0.0,0.0,0.7916,0.7894,0.7862,0.0,0.0,0.0,0.8988,0.9711,0.0,0.0,0.0,0.7647,0.7387,0.0,0.0,0.0,0.0,0.0,0.0,0.0,0.0,0.0,0.0,0.0,0.0,0.0,0.0,0.0,0.0,2.3562,2.6172,2.8484,2.9312,3.0074,3.1156,3.1824,3.2385,3.2839,3.2679,3.2629,3.2589,3.2251,3.1864,3.1303,0.0,0.0,0.0,0.0,2.9203,2.6798,2.4086,2.1287,1.8566,1.6084,1.4771,1.4646,1.4387,1.4217,1.4075,1.4075,1.3973,1.3804,1.3661,1.3485,1.3302,1.3302,1.3037,1.2623,1.2338,1.2155,1.2013,1.1857,0.0,0.0,1.1443,1.1199,1.09,1.0887,1.0839,1.0717,1.0717,1.0717,1.0717,1.0717,1.0717,1.0683,1.0548,1.0507,1.0419,1.0092,1.0011,0.995,0.9876,0.9836,0.9822,0.9822,0.972,0.9578,0.9408,0.9323,0.9123,0.8905,0.8885,0.8825,0.854,0.0,0.0,0.8285,0.8258,0.83,0.8435,0.8428,0.8364,0.827,0.8125,0.8125,0.8263,0.9124,0.9736,1.0002,0.9854,0.9756,0.9739,0.819,0.759,0.0,0.0,0.0,0.0,0.0,0.0,0.0,0.0,0.0,0.0,0.0,0.0,0.0,0.0,0.0,2.3008,2.5502,2.7856,2.9753,3.0528,3.1062,3.153,3.2305,3.2666,3.2305,3.2438,3.2452,3.2211,3.2131,3.1944,3.1597,3.1356,3.1116,3.0889,2.8811,2.7137,2.6006,2.3481,2.1761,2.0764,0.0,0.0,1.7071,1.5168,1.4217,1.4075,1.4075,1.3919,1.3661,1.3505,1.3139,1.2678,1.2678,1.2474,1.2169,1.1986,1.1904,1.1857,1.1708,1.164,1.1592,1.1443,1.1267,1.1097,1.0914,1.0839,0.0,1.0717,1.0717,1.0717,1.0717,1.0717,1.0711,1.0683,1.0582,1.0473,1.0419,1.0215,0.9977,0.995,0.9842,0.9822,0.9822,0.9795,0.9686,0.9422,0.9354,0.9239,0.8919,0.8885,0.8811,0.8682,0.8669,0.8962,0.9692,0.976,1.0146,1.1082,1.117,1.1151,1.1104,1.0138,1.004,1.1104,0.9314,0.8886,1.0002,0.8924,0.8379,0.8379,0.8048,0.7894,0.0,0.0,0.0,0.0,0.0,0.0,0.0,0.0,0.0,0.0,0.0,1.8207,1.943,0.0,2.3306,2.5056,2.7171,2.9005,3.0194,3.0982,3.161,3.2051,3.2358,3.2545,3.2545,3.2545,3.2425,3.2131,3.2104,3.1904,3.1463,3.1169,3.0942,3.0795,2.9143,2.7431,2.5943,2.3251,2.1097,1.9559,1.72,1.6034,1.6034,1.4822,1.4177,1.3953,1.3953,1.3743,1.3376,1.3078,1.2732,1.2379,1.2223,1.2074,1.1938,1.1857,1.1789,1.1701,1.1558,1.1457,1.1369,1.1219,1.1063,1.0928,1.0853,1.0778,1.0717,1.0717,1.0717,1.0717,1.0717,1.0717,1.0717,1.0717,1.0663,1.0582,1.0507,1.0317,1.0141,1.0004,0.9862,0.9822,0.9822,0.9822,0.972,0.9422,0.9381,0.9273,0.8925,0.8885,0.8824,0.8723,0.8642,0.8762,0.9188,0.9786,1.0343,1.0935,1.156,1.1901,1.1901,1.1317,1.1268,1.1901,1.0632,1.0288,1.0974,0.9657,0.9023,0.8973,0.8336,0.7988,0.0,0.0,0.0,0.0,0.0,0.0,0.0,1.6486,1.7261,1.8303,1.9207,2.038,2.2178,2.3727,2.5321,2.6893,2.847,2.9713,3.0354,3.1009,3.161,3.2241,3.2144,3.2265,3.2679,3.2505,3.2251,3.1957,3.1984,3.1757,3.1169,3.0862,3.0688,3.0621,2.982,2.8281,2.5867,2.3501,2.1094,1.8453,1.6122,1.4992,1.4992,1.4476,1.4129,1.3838,1.3783,1.3519,1.3098,1.2705,1.2427,1.2216,1.1938,1.1816,1.1789,1.1789,1.1701,1.1558,1.1436,1.1294,1.1138,1.0995,1.0799,1.0758,1.0731,1.0717,1.0717,1.0717,1.0717,1.0717,1.0717,1.0717,1.0717,1.0717,1.0717,1.0683,1.0561,1.0426,1.0283,1.0161,0.993,0.9863,0.9863,0.9842,0.9734,0.9462,0.9422,0.932,0.9022,0.8981,0.8913,0.873,0.8601,0.8556,0.8685,0.9713,1.0485,1.073,1.1697,1.2377,1.263,1.2436,1.228,1.228,1.2047,1.1901,1.1901,1.0632,1.0002,0.9953,0.8627,0.7988,1.5752,1.5204,1.5276,1.5946,1.6126,1.678,0.0,1.9519,1.988,2.1537,2.2364,2.315,2.4096,2.5521,2.6933,2.8217,2.9018,2.978,3.0621,3.0608,3.0621,3.0955,3.165,3.2024,3.1837,3.1784,3.1637,3.1343,3.157,3.1463,3.0875,3.0568,3.0287,3.002,2.9419,2.7795,2.5248,2.4916,2.3455,2.0789,1.854,1.7413,1.7326,1.5256,1.4129,1.3824,1.3566,1.3275,1.2969,1.2779,1.2461,1.2067,1.1898,1.1755,1.164,1.164,1.1545,1.1416,1.1396,1.1294,1.1138,1.0995,1.0867,1.0833,1.0758,1.0717,1.0717,1.0717,1.0717,1.0717,1.0717,1.0717,1.0717,1.0717,1.0717,1.0717,1.0697,1.0575,1.0466,1.0446,1.0215,0.9963,0.9963,0.9849,0.9768,0.9605,0.9585,0.9476,0.9228,0.9187,0.9022,0.8743,0.8696,0.9036,0.9892,1.1036,1.2183,1.3392,1.3584,1.4172,1.5343,1.4268,1.368,1.368,1.2522,1.1901,1.1901,1.0632,1.0002,0.9953,0.8627,0.7988,1.646,1.6192,1.6415,1.6951,1.7689,1.8744,2.0374,2.1176,2.1991,2.342,2.4462,2.5331,2.6039,2.7228,2.8283,2.8778,2.9352,2.986,3.0234,3.0181,2.9953,2.9566,3.0154,3.0728,3.1116,3.1156,3.1102,3.0982,3.1249,3.1156,3.0568,3.0261,2.9967,2.9673,2.9098,2.7577,2.5153,2.3607,2.1659,1.9228,1.6896,1.5725,1.5628,1.4601,1.4,1.3695,1.3308,1.3078,1.3009,1.2515,1.223,1.204,1.1803,1.1674,1.1619,1.1619,1.1579,1.1497,1.1321,1.1212,1.1124,1.0894,1.0745,1.0739,1.0738,1.0717,1.0717,1.0717,1.0717,1.0717,1.0717,1.0717,1.0717,1.0717,1.0717,1.0717,1.0717,1.0602,1.0493,1.0493,1.0256,0.9984,0.9984,0.9862,1.0098,1.0988,1.0249,0.953,0.9313,0.9262,0.9098,0.8743,0.871,0.88,0.905,1.0196,1.1431,1.2678,1.3488,1.4459,1.5737,1.5296,1.4997,1.4997,1.374,1.3054,1.3054,1.1745,1.073,1.0002,0.941,0.8827,1.686,1.7048,1.7528,1.8063,1.9305,2.0681,2.1724,2.2806,2.3928,2.5117,2.6106,2.6907,2.7415,2.8283,2.8951,2.9032,2.9392,2.97,2.978,2.9446,2.8925,2.8203,2.8203,2.8617,2.9499,3.01,3.0434,3.0434,3.0702,3.0608,3.002,2.9793,2.9539,2.9245,2.8751,2.7333,2.5047,2.3128,2.0702,1.7755,1.5988,1.4783,1.4068,1.3987,1.381,1.3546,1.318,1.2976,1.2854,1.2338,1.2101,1.2108,1.1735,1.1592,1.1558,1.1558,1.1531,1.1463,1.124,1.1111,1.1002,1.0792,1.0717,1.0717,1.0717,1.0717,1.0717,1.0717,1.0717,1.0717,1.0717,1.0717,1.0717,1.0717,1.0717,1.0717,1.0717,1.0629,1.0555,1.0555,1.0317,1.0051,1.0051,1.0313,1.0838,1.2037,1.1511,1.0902,1.0782,1.0231,0.9734,0.9446,0.9248,0.9241,0.9461,1.0205,1.1173,1.2387,1.3343,1.4459,1.5737,1.5784,1.5784,1.5784,1.4902,1.4411,1.4411,1.3102,1.2019,1.1196,1.0811,1.028,1.6633,1.7289,1.8235,1.9452,2.0828,2.2298,2.3768,2.4796,2.5758,2.6947,2.7442,2.7749,2.814,2.839,2.8711,2.8991,2.9058,2.9165,2.9459,2.8257,2.7228,2.6907,2.5892,2.5558,0.0,2.835,2.9526,2.9526,2.9793,2.97,2.9112,2.9072,2.8938,2.8644,2.8323,2.7122,2.4702,2.4605,2.2353,1.7755,1.7499,1.6215,1.4061,1.3777,1.3559,1.3397,1.3234,1.3003,1.2712,1.2406,1.2196,1.2108,1.1735,1.1531,1.1396,1.1396,1.1301,1.1241,1.1165,1.0975,1.0731,1.0724,1.0717,1.0717,1.0717,1.0717,1.0717,1.0717,1.0717,1.0717,1.0717,1.0717,1.0717,1.0717,1.0717,1.0717,1.0717,1.0717,1.0711,1.0711,1.0473,1.0276,1.0276,1.1302,1.2157,1.2217,1.3467,1.439,1.4286,1.2625,1.1372,1.1243,1.0712,1.0906,1.2331,1.2103,1.2436,1.3728,1.3872,1.4459,1.5737,1.5784,1.5784,1.5784,1.5784,1.5737,1.5737,1.4459,1.3953,1.415,1.2911,1.2435,1.7408,1.8475,1.988,2.1443,2.2645,2.3888,2.5558,2.6172,2.6547,2.7148,2.6573,2.5999,2.6092,2.6199,2.6493,2.7175,2.7776,2.8323,2.8831,2.8297,2.7308,2.5838,2.5838,2.5678,2.501,0.0,0.0,2.8845,2.9165,2.9165,2.8778,2.8751,2.8617,2.831,2.8274,2.7096,2.4691,2.4691,2.3049,1.9799,1.7943,1.5955,1.377,1.3464,1.3295,1.3234,1.2983,1.2766,1.2556,1.2264,1.2047,1.1891,1.1694,1.1586,1.1531,1.143,1.1294,1.1151,1.1056,1.0955,1.0786,1.0751,1.0717,1.0717,1.0717,1.0717,1.0717,1.0717,1.0717,1.0717,1.0717,1.0717,1.0717,1.0717,1.0717,1.0717,1.0717,1.0717,1.0717,1.0717,1.048,1.0283,1.0283,1.0452,1.1322,1.3467,1.4242,1.4518,1.4412,1.3603,1.303,1.2887,1.2561,1.2394,1.2566,1.2456,1.2801,1.3848,1.392,1.4459,1.5737,1.5784,1.5784,1.5784,1.5784,1.5391,1.4555,1.4112,1.3127,1.1563,1.1112,1.0638,1.8664,2.0054,2.1577,2.3233,2.4249,2.5184,2.652,2.6667,2.6507,2.6493,2.5491,2.4516,2.4182,2.4048,2.4189,2.4842,2.5697,2.6574,2.7337,2.7025,2.6479,2.5504,2.5331,2.509,2.4569,2.5438,0.0,2.7869,2.8337,2.8484,2.8297,2.8377,2.835,2.8234,2.8221,2.7448,2.5981,2.5981,2.4588,2.1874,1.8495,1.6127,1.4607,1.3664,1.3112,1.3003,1.2752,1.2562,1.2406,1.2101,1.1925,1.1816,1.1674,1.1586,1.1518,1.1369,1.1212,1.107,1.0914,1.0847,1.0786,1.0751,1.0717,1.0717,1.0717,1.0717,1.0717,1.0717,1.0717,1.0717,1.0717,1.0717,1.0717,1.0717,1.0717,1.0717,1.0717,1.0717,1.0717,1.0717,1.0521,1.0337,1.029,1.0514,1.1555,1.4183,1.5074,1.5435,1.5343,1.4974,1.4716,1.4566,1.4191,1.3984,1.4236,1.4134,1.4306,1.4863,1.48,1.5101,1.5944,1.5838,1.5784,1.5784,1.5784,1.5443,1.4751,1.4207,1.3254,1.1885,1.1383,1.0837,2.0294,2.183,2.33,2.4756,2.5531,2.6079,2.6627,2.6266,2.5728,2.505,2.4168,2.3233,2.2352,2.2004,2.1965,2.2254,2.3169,2.4242,2.5334,2.4885,2.4796,2.5852,2.4516,2.3928,2.4997,2.4863,2.5291,2.672,0.0,2.7669,2.7722,2.7989,2.8221,2.8221,2.8221,2.8221,2.8221,2.8194,2.6787,2.3986,1.941,1.6896,1.6304,1.429,1.3077,1.2712,1.2556,1.2406,1.2244,1.1952,1.1823,1.1796,1.166,1.1511,1.1362,1.1206,1.1063,1.088,1.0873,1.0839,1.0717,1.0717,1.0717,1.0717,1.0717,1.0717,1.0717,1.0717,1.0717,1.0717,1.0717,1.0717,1.0717,1.0717,1.0717,1.0717,1.0717,1.0717,1.0717,1.0717,1.0595,1.0511,1.0417,1.1495,1.2886,1.448,1.602,1.702,1.702,1.6698,1.6378,1.6254,1.5582,1.5695,1.7103,1.6887,1.6727,1.67,1.6446,1.6348,1.6348,1.6019,1.5872,1.5872,1.5872,1.5971,1.6237,1.4838,1.4341,1.4775,1.3351,1.2839,2.155,2.306,2.4436,2.5478,2.5678,2.5665,2.5812,2.489,2.3768,2.2939,2.1203,1.9693,1.9194,1.9639,2.0473,2.1872,2.379,2.5535,2.6904,2.7146,2.6921,2.6346,2.6079,2.5785,2.5438,2.5531,2.5959,0.0,2.6961,2.7335,2.8073,2.8181,2.8221,2.8221,2.8221,2.8221,2.8221,2.7792,2.6318,2.3986,2.2307,1.9755,1.6377,1.5762,1.4411,1.2556,1.2406,1.2196,1.1945,1.1864,1.1701,1.1497,1.1463,1.1355,1.1206,1.1056,1.0914,1.0867,1.0819,1.0751,1.0717,1.0717,1.0717,1.0717,1.0717,1.0717,1.0717,1.0717,1.0717,1.0717,1.0717,1.0717,1.0717,1.0717,1.0717,1.0717,1.0717,1.0717,1.0717,1.0717,1.0595,1.0791,1.1697,1.3154,1.4661,1.6161,1.6727,1.702,1.702,1.774,1.8143,1.788,1.7533,1.7252,1.7181,1.7125,1.6991,1.6727,1.6633,1.6593,1.6593,1.6526,1.6486,1.6486,1.6486,1.6054,1.5157,1.4805,1.3685,1.1928,1.1557,1.087,2.302,2.4382,2.5531,2.6026,2.5732,2.5184,2.4676,2.3407,2.1951,2.0548,1.8891,1.7542,1.6981,1.7502,1.8528,1.9981,2.2203,2.4389,2.6056,2.6826,2.7216,2.6987,2.6881,2.668,2.6319,2.6319,2.6573,2.7161,2.7094,2.7295,2.7909,2.8154,2.8221,2.8221,2.8221,2.8167,2.7949,2.7495,2.6617,2.5225,2.3624,2.1556,1.9016,1.7867,1.6052,1.3784,0.0,1.2902,1.1925,1.1789,1.1599,1.1389,1.1389,1.1301,1.1214,1.1002,1.088,1.086,1.0772,1.0717,1.0717,1.0717,1.0717,1.0717,1.0717,1.0717,1.0717,1.0717,1.0717,1.0717,1.0717,1.0717,1.0717,1.0717,1.0717,1.0717,1.0717,1.0717,1.0916,1.1696,1.1758,1.209,1.3582,1.444,1.5185,1.6019,1.6619,1.702,1.702,1.7502,1.8045,1.8635,1.8424,1.805,1.7582,1.7542,1.7408,1.7114,1.6967,1.6901,1.6901,1.678,1.67,1.67,1.67,1.6402,1.5858,1.5182,1.4164,1.2859,1.2219,1.154,2.4516,2.5638,2.6493,2.6413,2.5665,2.4636,2.338,2.1857,2.0147,1.8102,1.6983,1.6166,1.5364,1.5805,1.6722,1.7943,2.0139,2.2402,2.4531,2.5621,2.6533,2.7629,2.7308,2.7094,2.7362,2.7108,2.7161,2.7722,2.7482,2.7455,2.7749,2.8003,2.8221,2.8221,2.8221,2.8003,2.7696,2.7415,2.7121,2.6733,2.4294,2.2936,2.2431,2.0242,1.7999,1.5861,0.0,0.0,1.2452,1.1828,1.1545,1.1389,1.1369,1.1267,1.1118,1.0975,1.0853,1.0833,1.0765,1.0717,1.0717,1.0717,1.0717,1.0717,1.0717,1.0717,1.0717,1.0717,1.0717,1.0717,1.0717,1.0717,1.0717,1.0717,1.0717,1.0717,1.0717,1.0717,1.1306,1.3259,1.3384,1.3768,1.5706,1.5701,1.5491,1.5642,1.6459,1.7138,1.7315,1.7088,1.7379,1.8748,1.8704,1.8424,1.8075,1.8009,1.7876,1.7662,1.742,1.7259,1.7259,1.6954,1.682,1.682,1.682,1.6954,1.7259,1.5992,1.5357,1.5358,1.4126,1.348,2.5545,2.6413,2.7001,2.6507,2.5371,2.3915,2.2245,2.016,1.8075,1.649,1.5511,1.4776,1.4389,1.5391,1.7007,1.9105,2.1059,2.3217,2.6029,2.6773,2.7295,2.8073,2.806,2.802,2.8073,2.7722,2.7696,0.0,2.7789,2.7749,2.814,2.8194,2.8221,2.8221,2.8221,2.8003,2.7696,2.7415,2.7121,2.6814,2.5911,2.4364,2.252,2.1789,2.0124,1.7683,1.5984,0.0,1.4253,1.2539,1.1633,1.1382,1.1253,1.1111,1.09,1.0812,1.0758,1.0758,1.0731,1.0717,1.0717,1.0717,1.0717,1.0717,1.0717,1.0717,1.0717,1.0717,1.0717,1.0717,1.0717,1.0717,1.0717,1.0717,1.0717,1.0717,1.0717,1.0717,1.163,1.4819,1.427,1.4188,1.7141,1.7605,1.7987,1.9143,1.819,1.7828,1.9114,1.9044,1.8897,1.8888,1.8878,1.8731,1.8437,1.8129,1.7969,1.7916,1.7675,1.7502,1.7502,1.7462,1.7435,1.7435,1.7435,1.7448,1.7502,1.7292,1.6554,1.5411,1.5144,1.4395,2.6213,2.6934,2.7308,2.6573,2.4943,2.3006,2.1082,1.8811,1.67,1.5231,1.4589,1.4255,1.4108,1.5164,1.6567,1.8156,1.9907,2.2031,2.4836,2.5745,2.6573,2.7776,2.8043,2.8221,2.8221,2.8016,2.8073,2.8221,2.8003,2.7989,2.8221,2.8221,2.8221,2.8221,2.8221,2.8006,2.7482,2.7335,2.7041,2.6587,2.5999,2.5177,2.4073,2.3581,2.2097,1.9968,1.8948,0.0,1.6294,1.4245,1.3213,1.2757,1.1628,1.1077,1.086,1.0778,1.0717,1.0717,1.0717,1.0717,1.0717,1.0717,1.0717,1.0717,1.0717,1.0717,1.0717,1.0717,1.0717,1.0717,1.0717,1.0717,1.0717,1.0717,1.1372,1.2025,1.2025,1.2734,1.4166,1.6754,1.656,1.6786,1.9247,1.9562,1.9672,2.0358,1.952,1.9107,1.9694,1.9679,1.9479,1.9185,1.9158,1.9038,1.8744,1.8584,1.8315,1.8009,1.805,1.7916,1.7595,1.7742,1.7742,1.7582,1.7582,1.7582,1.7582,1.7742,1.7435,1.6779,1.693,1.6666,2.6587,2.7295,2.7549,2.6547,2.4516,2.2218,2.0094,1.7782,1.5759,1.4362,1.4082,1.4082,1.4082,1.4883,1.5899,1.7032,1.8424,2.0388,2.318,2.4382,2.5611,2.7308,2.7883,2.8221,2.8221,2.8221,2.8221,2.8221,2.8221,0.0,2.8221,2.8221,2.8221,2.8221,2.8167,2.7872,2.7268,2.7201,2.6881,2.6293,2.5758,2.5478,2.5398,2.4877,2.3722,2.2198,2.1686,0.0,0.0,1.6339,1.5257,1.4605,1.2635,1.175,1.1561,1.1001,1.0819,1.0812,1.0778,1.0772,1.0765,1.0731,1.0717,1.0717,1.0717,1.0717,1.0717,1.0717,1.0744,1.0772,1.0772,1.0792,1.0872,1.1238,1.2634,1.397,1.4362,1.52,1.6496,1.864,1.8768,1.9024,2.0779,2.0922,2.0775,2.0775,2.0521,2.0241,2.0013,1.9933,1.98,1.9573,1.9439,1.9265,1.9038,1.8958,1.8731,1.8209,1.8397,1.8277,1.7796,1.8009,1.8023,1.7782,1.7782,1.7782,1.7782,1.8023,1.8089,1.8089,1.8384,1.849,2.6587,2.7455,2.7846,2.6425,2.4209,2.1857,1.9533,1.7181,1.5217,1.4282,1.4082,1.4082,1.4082,1.4389,1.519,1.6924,1.7729,1.9292,2.2498,2.3941,2.5224,2.672,2.7642,2.8221,2.8221,2.8221,2.8221,2.8221,2.8221,0.0,2.8221,2.8221,2.8221,2.8221,2.7883,2.7589,2.7268,2.7001,2.6573,2.5999,2.5665,2.5371,2.5104,2.4783,2.4488,2.4253,2.241,0.0,0.0,1.8456,1.7325,1.6707,1.4684,1.3902,1.3661,1.1855,1.1124,1.1104,1.0975,1.086,1.084,1.0765,1.0717,1.0717,1.0717,1.0717,1.0717,1.0717,1.0819,1.086,1.086,1.1023,1.1495,1.289,1.4499,1.6108,1.7667,1.6883,1.6883,2.0195,1.961,1.9024,2.0779,2.1082,2.1069,2.1069,2.0815,2.0628,2.0601,2.0361,2.0127,2.016,1.9679,1.9417,1.939,1.9078,1.8905,1.8851,1.8624,1.8464,1.841,1.8437,1.8437,1.841,1.841,1.841,1.841,1.8437,1.845,1.845,1.8477,1.849,2.5919,2.6947,2.743,2.6318,2.3915,2.1376,1.9372,1.6954,1.4981,1.4229,1.4082,1.4082,1.4082,1.4322,1.4803,1.5745,1.6179,1.7328,1.988,2.0949,2.2472,2.5184,2.6132,2.6974,2.8127,2.8221,2.8221,2.8221,2.8221,0.0,2.8221,2.8221,2.814,2.7883,2.7762,2.7468,2.7001,2.6881,2.6533,2.6037,2.5651,2.5358,2.5064,2.477,2.4636,2.4562,2.3722,0.0,0.0,2.0526,1.9442,1.8765,1.6718,1.5187,1.4058,1.3202,1.2185,1.122,1.1097,1.1077,1.1056,1.0907,1.0793,1.0839,1.0751,1.0785,1.0793,1.0793,1.0962,1.1351,1.2498,1.3687,1.4733,1.5327,1.6778,1.817,1.8905,1.9298,1.9964,2.1371,2.0967,2.058,2.1312,2.1229,2.1109,2.1109,2.1015,2.0869,2.0695,2.0575,2.0428,2.0193,2.0027,1.9813,1.9639,1.9519,1.9305,1.8945,1.8985,1.8865,1.8504,1.8664,1.8664,1.849,1.849,1.849,1.849,1.8664,1.8744,1.8758,1.8931,1.9011,2.4836,2.6157,2.6667,2.5785,2.3474,2.0935,1.9078,1.674,1.4834,1.4202,1.4082,1.4082,1.4082,1.4255,1.4522,1.4941,1.5204,1.6086,1.8076,1.9011,2.0548,2.3394,2.4396,2.5531,2.7201,2.7926,2.8221,2.8221,0.0,0.0,2.8221,2.814,2.7909,2.7709,2.7535,2.7241,2.6827,2.6653,2.6319,2.5825,2.5531,2.5224,2.4943,2.473,2.4596,2.4516,0.0,0.0,0.0,2.2162,2.131,2.0743,1.8738,1.7074,1.5807,1.457,1.329,1.2047,1.1448,1.1226,1.1206,1.1056,1.1009,1.1057,1.1545,1.1298,1.0887,1.1002,1.1523,1.2536,1.444,1.6255,1.763,1.763,1.8921,2.0153,2.0153,2.1106,2.1991,2.1991,2.1817,2.1722,2.1628,2.1376,2.1203,2.1122,2.1109,2.1042,2.0828,2.0802,2.0722,2.0508,2.0494,2.0334,1.996,1.9853,1.9666,1.9332,1.9345,1.9265,1.9011,1.9118,1.9132,1.9011,1.8918,1.8918,1.9011,1.9038,1.9105,1.9185,1.9305,1.943,2.3313,2.4938,2.5758,2.4877,2.2873,2.0575,1.849,1.6433,1.4834,1.4202,1.4082,1.4082,1.4082,1.4095,1.4282,1.4914,1.5204,1.6019,1.7742,1.9065,2.0241,2.1507,2.2632,2.3928,2.5398,2.7121,2.8221,2.8221,0.0,0.0,2.8221,2.7869,2.7696,2.7696,2.7134,2.6827,2.6827,2.6253,2.5812,2.5518,2.5224,2.493,2.4636,2.4636,2.4476,0.0,0.0,0.0,0.0,2.3257,2.314,2.2654,2.0825,2.0051,1.9565,1.576,1.4353,1.4044,1.2065,1.1389,1.1362,1.1212,1.1227,1.1572,1.3404,1.2543,1.0914,1.1118,1.2635,1.4605,1.6627,1.8324,1.9595,1.9595,2.0831,2.1991,2.1991,2.1991,2.1991,2.1991,2.1977,2.1884,2.1668,2.1614,2.1443,2.1149,2.1109,2.1109,2.1109,2.1109,2.1096,2.1096,2.1096,2.0869,2.0281,1.996,1.992,2.0201,1.9679,1.9626,2.0187,1.9947,1.992,2.0214,1.9933,1.992,2.0153,1.9639,1.9506,1.9786,1.9506,1.943,2.0441,2.1601,2.2178,2.1496,2.0,1.837,1.7114,1.5698,1.4549,1.4162,1.4082,1.4082,1.4082,1.4082,1.4416,1.5391,1.5471,1.5872,1.7235,1.845,1.9933,2.1911,2.4796,2.68,0.0,0.0,2.8221,0.0,0.0,0.0,2.8221,2.7669,2.7402,2.7402,2.6827,2.6426,2.6239,2.5852,2.5504,2.5224,2.5117,2.493,2.4636,2.4636,0.0,0.0,0.0,0.0,0.0,2.3327,2.314,2.2859,2.2229,2.1252,1.9912,1.8718,1.7458,1.6183,1.5563,1.5325,1.5368,1.5229,1.5165,1.5303,1.5853,1.3827,1.1559,1.2959,1.5761,1.8411,1.9055,2.0488,2.1881,2.1881,2.2238,2.2646,2.2646,2.2646,2.2646,2.2646,2.2418,2.2258,2.2164,2.1817,2.1588,2.1494,2.1243,2.1109,2.1109,2.1109,2.1109,2.1109,2.1109,2.0949,2.0575,2.0454,2.0347,2.0241,2.0054,2.004,2.0167,2.0147,2.0134,2.0167,2.0147,2.0147,2.0167,2.0054,2.0,2.0094,2.0,1.996,1.8277,1.9345,1.9933,1.9559,1.8437,1.7194,1.6313,1.5284,1.4442,1.4148,1.4082,1.4082,1.4082,1.4082,1.4402,1.5351,1.5351,1.5645,1.6871,1.8009,1.9626,2.1977,2.505,0.0,0.0,2.7832,0.0,0.0,0.0,0.0,2.7899,2.7362,2.7054,2.6934,2.6573,2.6306,2.6119,2.5825,2.5531,2.5237,2.513,2.493,2.4636,2.4529,0.0,0.0,0.0,0.0,0.0,2.3153,2.3033,2.2928,2.2928,2.216,2.1032,2.034,1.9356,1.8159,1.7458,1.7178,1.7157,1.7086,1.759,1.8015,1.7323,1.5444,1.4007,1.6014,1.8229,2.0271,2.0963,2.2022,2.2954,2.3006,2.2953,2.2968,2.3006,2.2939,2.2928,2.2928,2.2712,2.2552,2.2432,2.2124,2.1804,2.1655,2.139,2.1229,2.1122,2.1109,2.1109,2.1109,2.1109,2.1042,2.0855,2.0735,2.0641,2.0575,2.0361,2.0273,2.0548,2.0454,2.0454,2.0561,2.0454,2.0454,2.0561,2.0454,2.0347,2.018,2.0347,2.0334,0.0,1.7916,1.8584,1.8584,1.7742,1.6764,1.5899,1.5025,0.0,1.4135,1.4082,1.4095,1.4108,1.4122,1.4322,1.4995,1.5102,1.5517,1.6633,1.7983,1.9679,2.1937,2.4035,0.0,2.5558,2.7108,0.0,0.0,0.0,0.0,2.7281,2.6987,2.6694,2.64,2.6373,2.6333,2.6293,2.6012,2.5718,2.5451,2.5157,2.4877,2.4596,2.4302,0.0,0.0,0.0,0.0,0.0,2.2928,2.2928,2.2928,2.2928,2.2928,2.2722,2.0963,2.0271,2.0051,1.8229,1.7599,1.7599,1.7599,1.8868,1.9982,1.8159,1.7599,1.7949,1.9634,2.0201,2.0686,2.2435,2.2886,2.2966,2.3233,2.3086,2.2966,2.3233,2.3073,2.2928,2.2928,2.2928,2.2779,2.2498,2.2432,2.2231,2.1762,2.1655,2.1547,2.1203,2.1176,2.1162,2.1149,2.1149,2.1136,2.1109,2.0869,2.0815,2.1096,2.0601,2.0535,2.1082,2.0855,2.0842,2.1109,2.0842,2.0842,2.1109,2.0842,2.0561,2.0247,2.0575,2.0561,1.4001,0.0,1.5231,1.5231,1.5017,1.475,0.0,1.4335,1.4175,1.4095,1.4082,1.4162,1.4376,1.4416,1.4763,1.5839,1.6013,1.638,1.7516,2.0307,2.2726,2.4182,2.6172,2.7094,2.6266,2.7161,0.0,0.0,0.0,2.7335,2.7268,2.6987,2.6694,2.64,2.6172,2.5838,2.5398,2.509,2.4917,2.4836,2.4543,2.4369,2.4289,2.4008,0.0,0.0,0.0,0.0,2.2928,2.2928,2.2928,2.2928,2.2928,2.2928,2.2859,2.2366,2.2229,2.216,2.1734,2.1527,2.1527,2.1527,2.1872,2.216,2.1665,2.1527,2.139,2.0409,2.1101,2.2366,2.2791,2.3033,2.318,2.3006,2.31,2.318,2.3006,2.2913,2.2928,2.2928,2.2928,2.2846,2.2766,2.2565,2.2378,2.2231,2.2031,2.1857,2.179,2.1777,2.1697,2.147,2.1443,2.1363,2.1122,2.1042,2.1042,2.1109,2.0975,2.0962,2.1096,2.1042,2.1042,2.1109,2.1042,2.1042,2.1109,2.1042,2.0975,2.0909,2.0975,2.0975,1.2958,1.3534,1.4082,1.4082,1.4188,1.4282,1.4282,1.4188,1.4082,1.4082,1.4082,1.4175,1.4469,1.4522,1.4856,1.5899,1.6072,1.6727,1.8584,2.1082,2.3247,2.4703,2.6333,2.7148,0.0,0.0,0.0,0.0,0.0,2.6867,2.6867,2.6453,2.6146,2.5985,2.5705,2.5464,2.5277,2.5117,2.4903,2.4636,2.4476,2.4262,2.3995,2.3701,2.3474,0.0,0.0,0.0,2.2928,2.2928,2.2928,2.2928,2.2928,2.2928,2.2928,2.2928,2.2928,2.2928,2.2928,2.2928,2.2928,2.2928,2.2928,2.2928,2.2928,2.2928,2.268,2.183,2.2298,2.3113,2.3247,2.3407,2.3514,2.3487,2.35,2.3487,2.3313,2.3166,2.3033,2.2886,2.2928,2.2928,2.2928,2.2726,2.2579,2.2445,2.2285,2.2138,2.2004,2.1991,2.1924,2.1764,2.175,2.1683,2.1523,2.151,2.1456,2.1323,2.1189,2.1176,2.1309,2.1189,2.1109,2.1109,2.1109,2.1109,2.1109,2.1109,2.1109,2.1109,2.1109,2.1109,1.2757,1.3481,1.4082,1.4028,1.4269,1.4509,1.4469,1.4269,1.4082,1.4082,1.4122,1.4242,1.4536,1.4696,1.5057,1.5899,1.6251,1.7382,1.9907,2.1537,2.302,2.4529,2.5825,0.0,0.0,0.0,0.0,0.0,0.0,2.6319,2.6319,2.5812,2.5491,2.5451,2.5211,2.5157,2.5317,2.5317,2.5064,2.4569,2.4476,2.4182,2.3688,2.3394,2.326,0.0,0.0,0.0,2.2928,2.2928,2.2928,2.2928,2.2928,2.2928,2.2928,2.2928,2.2928,2.2928,2.2928,2.2928,2.2928,2.2928,2.2928,2.2941,2.2926,2.2899,2.3008,2.3354,2.3394,2.338,2.3634,2.3768,2.3875,2.4035,2.3955,2.3821,2.3781,2.3541,2.326,2.3046,2.3035,2.2953,2.3062,2.3075,2.2913,2.2659,2.2619,2.2512,2.2231,2.2191,2.2151,2.2058,2.2044,2.2031,2.1991,2.1991,2.1897,2.1762,2.1403,2.1336,2.1614,2.1309,2.1162,2.1109,2.1109,2.1109,2.1109,2.1109,2.1109,2.1109,2.1109,2.1109,1.2986,1.3601,1.4028,1.3733,1.4079,1.4456,1.4215,1.4122,1.4082,1.4082,1.4282,1.4549,1.4843,1.5558,1.6206,1.6898,1.841,2.0214,0.0,0.0,2.4703,2.4983,0.0,0.0,0.0,0.0,0.0,0.0,0.0,2.6026,2.6026,2.5692,2.5398,2.5157,2.5104,2.4863,2.4409,2.4409,2.4356,2.4262,2.3768,2.3487,2.338,2.3073,2.2939,0.0,0.0,2.2928,2.2928,2.2928,2.2928,2.2928,2.2928,2.2928,2.2928,2.2928,2.2928,2.2928,2.2928,2.2928,2.2928,2.2928,2.2928,2.2913,2.318,2.3073,2.3033,2.3834,2.3714,2.334,2.338,2.3768,2.4022,2.3567,2.3808,2.4075,2.3821,2.3541,2.338,2.3594,2.3434,2.334,2.3594,2.3634,2.3621,2.3567,2.3567,2.346,2.3166,2.3126,2.2926,2.2405,2.2352,2.2258,2.2004,2.1991,2.2071,2.2271,2.2017,2.1764,2.1628,2.1574,2.1363,2.1109,2.1109,2.1109,2.1109,2.1109,2.1109,2.1109,2.1109,2.1109,1.2878,1.34,1.3854,1.3881,1.4442,1.4963,1.483,1.4669,1.4606,1.4606,1.4669,1.4897,1.5351,1.6019,1.7007,1.8557,2.0281,2.175,2.2726,2.3875,2.473,0.0,0.0,0.0,0.0,0.0,0.0,0.0,0.0,0.0,2.5705,2.5291,2.505,2.5077,2.493,2.4636,2.4209,2.4048,2.3888,2.3728,2.346,2.3233,2.3073,2.2926,2.2779,2.2632,0.0,2.2766,2.2632,2.2792,2.2928,2.2928,2.2928,2.2928,2.2928,2.2928,2.2928,2.2928,2.2928,2.2928,2.2928,2.2928,2.2928,2.2926,2.3233,2.322,2.326,2.3995,2.3901,2.3634,2.3955,2.4235,2.4369,2.4102,2.4235,2.4356,2.4062,2.3901,2.3794,2.3768,2.3661,2.3607,2.3754,2.3768,2.3768,2.3768,2.3768,2.3728,2.3581,2.3567,2.346,2.318,2.3153,2.3033,2.2739,2.2712,2.2565,2.2205,2.2205,2.2084,2.1804,2.179,2.1643,2.1349,2.1349,2.1349,2.1349,2.1189,2.1189,2.1349,2.1189,2.1109,1.2918,1.3293,1.3693,1.4095,1.4696,1.5271,1.5538,1.5378,1.5276,1.5477,1.5584,1.5671,1.5979,1.6794,1.813,2.0294,2.1871,2.2993,2.342,2.4195,2.4877,2.5331,0.0,0.0,0.0,0.0,0.0,0.0,0.0,0.0,2.5304,2.481,2.4609,2.477,2.4556,2.4289,2.4008,2.3701,2.3487,2.3327,2.3247,2.306,2.2752,2.2752,2.2632,2.2432,2.2659,2.2672,2.2539,2.2766,2.2928,2.2928,2.2928,2.2928,2.2928,2.2928,2.2928,2.2928,2.2928,2.2928,2.2928,2.2928,2.2913,2.3033,2.334,2.3434,2.3554,2.4142,2.4102,2.3968,2.4422,2.4583,2.4549,2.4556,2.4583,2.4569,2.4356,2.4249,2.4155,2.4008,2.3915,2.3888,2.3968,2.3968,2.3968,2.3968,2.3968,2.3941,2.3888,2.3875,2.3848,2.3781,2.3768,2.3674,2.3447,2.3434,2.314,2.2445,2.2485,2.2392,2.2098,2.2084,2.1951,2.1722,2.1722,2.1722,2.1722,2.143,2.139,2.1614,2.1323,2.1176,1.3453,1.3573,1.3733,1.4349,1.4536,1.487,1.5965,1.5979,1.6005,1.6871,1.7259,1.7235,1.674,1.825,2.008,2.1617,2.31,2.4369,2.5211,0.0,2.6253,0.0,0.0,0.0,0.0,0.0,0.0,0.0,0.0,0.0,2.4716,2.4409,2.4115,2.3875,2.3848,2.3688,2.3394,2.3086,2.306,2.3327,2.3033,2.2739,2.2458,2.2458,2.2432,2.2418,2.2445,2.2592,2.2901,2.2928,2.2928,2.2928,2.2928,2.2928,2.2928,2.2928,2.2928,2.2928,2.2928,2.2928,2.2928,2.2928,2.306,2.3354,2.3647,2.3741,2.3861,2.4436,2.4396,2.4182,2.4222,2.4436,2.4569,2.4302,2.4436,2.4549,2.4609,2.4396,2.4275,2.4529,2.4356,2.4262,2.4529,2.4569,2.4569,2.4569,2.4569,2.4476,2.4209,2.4168,2.4075,2.3794,2.3768,2.3768,2.3741,2.3741,2.3714,2.3647,2.3126,2.2699,2.2405,2.2392,2.2258,2.1964,2.1951,2.1951,2.1951,2.1937,2.179,2.1614,2.1601,2.1376,1.3307,1.3467,1.3746,1.4332,1.4656,1.5097,1.6273,1.6887,1.7355,1.7876,1.8504,1.8891,1.8677,1.9573,2.0828,2.2298,2.3621,2.4783,2.5665,2.5985,0.0,0.0,0.0,0.0,0.0,0.0,0.0,0.0,0.0,0.0,0.0,2.3995,0.0,2.3768,2.3594,2.3354,2.3046,2.2739,2.2552,2.2498,2.2378,2.2258,2.2151,2.2151,2.2044,2.1897,2.2258,2.2378,2.2352,2.278,2.2928,2.2928,2.2928,2.2928,2.2928,2.2928,2.2928,2.2928,2.2928,2.2928,2.2928,2.2928,2.3073,2.338,2.3688,2.3901,2.4128,2.4529,2.4556,2.4476,2.4476,2.4556,2.4609,2.4502,2.4556,2.4636,2.4636,2.4556,2.4502,2.4609,2.4703,2.473,2.4649,2.4783,2.4917,2.4917,2.4917,2.4877,2.4756,2.4743,2.4636,2.4342,2.4142,2.4035,2.4035,2.3875,2.3768,2.3768,2.338,2.31,2.2993,2.2792,2.2552,2.2258,2.2258,2.2258,2.2258,2.2071,2.2017,2.2084,2.1911,2.1764,1.328,1.3494,1.3881,1.4282,1.4883,1.5759,1.6981,1.7822,1.8571,1.9412,1.9773,1.9987,2.0174,2.0468,2.1162,0.0,2.3861,2.4917,2.5705,0.0,0.0,0.0,0.0,0.0,0.0,0.0,0.0,0.0,0.0,0.0,0.0,2.3541,0.0,0.0,2.306,2.2806,2.2592,2.2285,2.2044,2.1844,2.175,2.1764,2.1844,2.1844,2.1737,2.1641,2.1977,2.2138,2.2151,2.2458,2.2645,2.2726,2.2887,2.2928,2.2928,2.2928,2.2928,2.2928,2.2928,2.2928,2.2928,2.2928,2.314,2.35,2.3714,2.4035,2.4382,2.4583,2.4636,2.4636,2.4636,2.4636,2.4636,2.4636,2.4636,2.4636,2.4636,2.4636,2.4636,2.4636,2.4796,2.4903,2.4796,2.4943,2.5117,2.5197,2.5224,2.5224,2.5224,2.5144,2.4997,2.4796,2.4516,2.4382,2.4476,2.4209,2.4048,2.4048,2.3768,2.3527,2.334,2.3126,2.2873,2.2565,2.2565,2.2565,2.2565,2.2365,2.2311,2.2418,2.2218,2.2071,1.3454,1.3641,1.4095,1.4095,1.5204,1.6723,1.817,1.8731,1.9519,2.1577,2.1069,2.0366,2.1015,2.0895,2.1162,2.2686,2.3861,2.4836,0.0,0.0,0.0,0.0,0.0,0.0,0.0,0.0,0.0,0.0,0.0,0.0,0.0,0.0,0.0,0.0,2.2138,2.1977,2.1977,2.1762,2.1614,2.1614,2.1256,2.1269,2.1614,2.1614,2.1614,2.1614,2.1614,2.1884,2.2392,2.2111,2.2164,2.2445,2.2752,2.2928,2.2928,2.2928,2.2928,2.2928,2.2928,2.2928,2.2928,2.2928,2.3343,2.3768,2.3768,2.4168,2.4636,2.4636,2.4636,2.4636,2.4636,2.4636,2.4636,2.4636,2.4636,2.4636,2.4636,2.4636,2.4636,2.4562,2.4649,2.4743,2.5037,2.509,2.5184,2.5478,2.5518,2.5518,2.5518,2.5264,2.5077,2.5077,2.481,2.4756,2.505,2.481,2.4636,2.4636,2.4369,2.3941,2.3354,2.334,2.3193,2.2873,2.2941,2.2928,2.2928,2.2928,2.2712,2.2418,2.2418,2.2271,1.3653,1.3906,1.4496,1.491,1.6,1.738,1.9025,1.9639,2.0494,2.2766,2.2458,2.1884,2.2271,2.2098,2.2044,2.2485,2.3554,2.4462,0.0,0.0,0.0,0.0,0.0,0.0,0.0,0.0,0.0,0.0,0.0,0.0,0.0,0.0,0.0,0.0,2.183,2.1748,2.1748,2.139,2.1243,2.1243,2.1149,2.1149,2.1243,2.1243,2.1243,2.1256,2.1521,2.1722,2.183,2.2164,2.2338,2.2445,2.2752,2.2928,2.2928,2.2928,2.2928,2.2928,2.2928,2.2928,2.2928,2.2928,2.3343,2.3728,2.3527,2.4008,2.4596,2.4396,2.4476,2.4636,2.4636,2.4636,2.4636,2.4636,2.4636,2.4636,2.4636,2.4636,2.4703,2.4903,2.5117,2.5277,2.5371,2.5558,2.5732,2.5812,2.5825,2.5745,2.5545,2.5264,2.5077,2.5077,2.481,2.4756,2.505,2.481,2.4636,2.4636,2.4556,2.4342,2.3955,2.3741,2.3594,2.35,2.33,2.3193,2.3193,2.2966,2.2819,2.2726,2.2726,2.2806,1.4053,1.4466,1.5177,1.5765,1.6887,1.8317,2.0094,2.1082,2.2111,2.3768,2.3407,2.2832,2.302,2.2605,0.0,2.2552,2.33,0.0,0.0,0.0,0.0,0.0,0.0,0.0,0.0,0.0,0.0,0.0,0.0,0.0,0.0,0.0,0.0,0.0,2.1523,2.1376,2.1376,2.1203,2.1109,2.1109,2.1109,2.1109,2.1109,2.1109,2.1109,2.1122,2.143,2.1547,2.143,2.2124,2.2352,2.2285,2.2699,2.2928,2.2928,2.2928,2.2928,2.2928,2.2928,2.2928,2.2928,2.2928,2.3193,2.3554,2.338,2.3861,2.4422,2.4249,2.4409,2.4636,2.4636,2.4636,2.4636,2.4636,2.4636,2.4636,2.4636,2.473,2.4863,2.505,2.5317,2.5545,2.5665,2.5838,2.6077,2.6106,2.6104,2.5852,2.5545,2.5358,2.5304,2.5411,2.5157,2.5064,2.5237,2.4983,2.4756,2.4649,2.4636,2.4556,2.4382,2.4102,2.3888,2.3768,2.3474,2.3327,2.3327,2.314,2.3046,2.3046,2.3166,2.3327,1.4482,1.5164,1.6019,1.6633,1.7983,1.9599,2.132,2.2726,2.3875,2.4409,2.3901,2.3367,2.3367,2.2699,2.2298,2.2752,2.31,0.0,0.0,0.0,0.0,0.0,0.0,0.0,0.0,0.0,0.0,0.0,0.0,0.0,0.0,0.0,0.0,2.1574,2.1256,2.1109,2.1109,2.1109,2.1109,0.0,2.1109,2.1109,2.1109,2.1109,2.1109,2.1122,2.139,2.1363,2.1176,2.2031,2.2218,2.2044,2.2632,2.2928,2.2928,2.2928,2.2928,2.2928,2.2928,2.2928,2.2928,2.2928,2.3073,2.3327,2.3327,2.3741,2.4209,2.4209,2.4409,2.4636,2.4636,2.4636,2.4636,2.4636,2.4636,2.4636,2.4636,2.4863,2.509,2.5117,2.5331,2.5611,2.5945,2.605,2.6052,2.6346,2.6159,2.5892,2.5585,2.5558,2.5651,2.601,2.5692,2.5518,2.5545,2.5264,2.497,2.469,2.4649,2.4636,2.4636,2.4382,2.4115,2.3848,2.3554,2.3394,2.3367,2.334,2.3327,2.334,2.3607,2.3754,1.4242,1.5164,1.638,1.7194,1.9212,2.1203,2.2044,2.2846,2.346,2.3581,2.3647,2.3674,2.3674,2.3514,2.3193,2.2605,0.0,0.0,0.0,0.0,0.0,0.0,0.0,0.0,0.0,0.0,0.0,0.0,0.0,0.0,0.0,0.0,0.0,2.1203,2.1149,2.1109,2.1109,2.1109,2.1109,0.0,2.1109,2.1109,2.1109,2.1109,2.1109,2.1109,2.1176,2.1162,2.1162,2.1804,2.2044,2.2044,2.2632,2.2928,2.2928,2.2928,2.2928,2.2928,2.2928,2.2928,2.2928,2.2928,2.3073,2.3327,2.3327,2.3741,2.4209,2.4209,2.4409,2.4636,2.4636,2.4636,2.4636,2.4636,2.4636,2.4636,2.4636,2.4863,2.5144,2.5371,2.5464,2.5678,2.6199,2.6106,2.6052,2.6346,2.6333,2.6186,2.5905,2.5865,2.5892,2.6023,2.5692,2.5611,2.5838,2.5384,2.505,2.4983,2.477,2.4636,2.4636,2.4569,2.4516,2.4449,2.4168,2.3901,2.3674,2.3447,2.3327,2.3327,2.3394,2.3674,1.4429,1.5471,1.686,1.845,2.0214,2.1735,2.2111,2.2458,2.2686,2.2686,2.3153,2.3474,2.318,2.3126,2.2926,0.0,0.0,0.0,0.0,0.0,0.0,0.0,0.0,0.0,0.0,0.0,0.0,0.0,0.0,0.0,0.0,2.1189,2.1109,2.1109,2.1109,2.1042,2.0909,2.0909,2.0909,2.0909,2.0909,2.0975,2.1109,2.1109,2.1109,2.1109,2.1109,2.1109,2.1149,2.175,2.1897,2.1844,2.2579,2.2779,2.2672,2.2806,2.2928,2.2928,2.2928,2.2928,2.2928,2.2928,2.2966,2.31,2.31,2.3527,2.3995,2.3995,2.4302,2.4636,2.4636,2.4636,2.4636,2.4636,2.4636,2.4636,2.4636,2.4863,2.517,2.5451,2.5625,2.5865,2.6306,2.6266,2.6172,2.6186,2.6186,2.6132,2.605,2.6037,2.609,2.6146,2.6026,2.5932,2.6037,2.5545,2.5224,2.509,2.4796,2.4636,2.4636,2.4636,2.4636,2.4636,2.4356,2.4128,2.3981,2.3821,2.3741,2.3754,2.3888,2.4115,1.4469,1.5698,1.7328,1.9599,2.0828,2.1614,2.1844,2.1951,2.1951,2.1857,2.2512,2.2939,2.2432,2.2338,2.2245,0.0,0.0,0.0,0.0,0.0,0.0,0.0,0.0,0.0,0.0,0.0,0.0,0.0,0.0,0.0,2.1029,2.0989,2.0962,2.0962,2.0962,2.0842,2.0601,2.0601,2.0628,2.0681,2.0722,2.0882,2.1109,2.1109,2.1109,2.1109,2.1109,2.1109,2.1149,2.1697,2.1764,2.1695,2.2405,2.2592,2.2445,2.2699,2.2819,2.2928,2.2928,2.2928,2.2928,2.2928,2.2928,2.2941,2.2926,2.3327,2.3781,2.3834,2.4222,2.4636,2.4636,2.4636,2.4636,2.4636,2.4636,2.4636,2.4636,2.4863,2.5157,2.5384,2.5718,2.6039,2.6279,2.636,2.6306,2.6066,2.6039,2.6039,2.6039,2.6039,2.6119,2.636,2.6386,2.6293,2.613,2.5718,2.5411,2.517,2.4823,2.4636,2.4636,2.4636,2.4636,2.4636,2.4396,2.4249,2.4209,2.4209,2.4209,2.4209,2.4449,2.4596,1.3414,1.5231,1.7594,1.9399,2.0521,2.1243,2.1614,2.1804,2.1844,2.1336,2.1724,2.2138,2.2058,2.2044,0.0,0.0,0.0,0.0,0.0,0.0,0.0,0.0,0.0,0.0,0.0,0.0,0.0,0.0,0.0,0.0,2.0735,2.0494,2.0347,2.0347,2.0347,2.0273,2.0294,2.0294,2.0414,2.0681,2.0935,2.1069,2.1109,2.1109,2.1109,2.1109,2.1109,2.1109,2.1136,2.147,2.1655,2.1655,2.1964,2.2231,2.2418,2.2458,2.2645,2.2928,2.2928,2.2928,2.2928,2.2928,2.2928,2.2913,2.318,2.35,2.3821,2.4075,2.4382,2.4636,2.4636,2.4636,2.4636,2.4636,2.4636,2.4636,2.4636,2.4863,2.509,2.513,2.5585,2.605,2.609,2.6226,2.6373,2.6333,2.6333,2.6333,2.6333,2.6333,2.6346,2.6386,2.6386,2.6373,2.6333,2.5825,2.5491,2.5464,2.4943,2.4636,2.4636,2.4636,2.4636,2.4636,2.4596,2.4449,2.4209,2.4209,2.4209,2.4209,2.4249,2.4396,1.4162,1.5524,1.7088,1.8865,1.972,2.0254,2.0708,2.0909,2.0935,2.0668,2.0828,2.1056,2.1216,0.0,0.0,0.0,0.0,0.0,0.0,0.0,0.0,0.0,0.0,0.0,0.0,0.0,0.0,0.0,0.0,2.0428,2.0428,2.0307,2.0167,2.0167,2.0167,2.0147,1.9987,1.9987,2.0054,2.0187,2.0655,2.0869,2.0869,2.1029,2.1109,2.1109,2.1109,2.1109,2.1136,2.143,2.1521,2.1349,2.1804,2.1964,2.1977,2.2298,2.2498,2.2632,2.2806,2.2928,2.2928,2.2928,2.2979,2.3153,2.3287,2.3647,2.4035,2.4168,2.4409,2.4636,2.4636,2.4636,2.4636,2.4636,2.4756,2.489,2.489,2.4863,2.493,2.5264,2.5665,2.609,2.6172,2.6306,2.6386,2.6386,2.6386,2.6386,2.6386,2.6386,2.6386,2.6386,2.6386,2.6386,2.6386,2.5999,2.5758,2.5758,2.5211,2.4957,2.5117,2.481,2.4716,2.4877,2.4716,2.4569,2.4449,2.4449,2.4449,2.4449,2.4449,2.4516,1.4442,1.5324,1.6219,1.7849,1.8637,1.9185,1.976,1.996,2.004,0.0,2.0,1.9987,2.0294,0.0,0.0,0.0,0.0,0.0,0.0,0.0,0.0,0.0,0.0,0.0,0.0,0.0,0.0,0.0,0.0,2.012,2.012,2.0054,2.0013,2.0013,2.0013,1.9907,1.9693,1.976,1.98,1.9813,2.0321,2.0601,2.0681,2.0895,2.1042,2.1109,2.1109,2.1109,2.1122,2.1349,2.1309,2.1149,2.159,2.1683,2.1681,2.2124,2.2352,2.2458,2.2752,2.2928,2.2928,2.2928,2.3073,2.3327,2.3327,2.3741,2.4209,2.4209,2.4409,2.4636,2.4636,2.469,2.4743,2.4743,2.497,2.5184,2.5184,2.501,2.501,2.5531,2.5798,2.613,2.6333,2.6386,2.6386,2.6386,2.6386,2.6386,2.6386,2.6386,2.6386,2.6386,2.6386,2.6386,2.6386,2.6119,2.6037,2.6037,2.5478,2.5291,2.5504,2.509,2.4957,2.5184,2.497,2.4783,2.4636,2.4636,2.4636,2.4636,2.4636,2.4636,1.3146,1.3948,1.4897,1.6112,1.7248,1.825,1.8851,1.9212,1.9492,1.9773,1.9386,1.9078,0.0,0.0,0.0,0.0,0.0,0.0,0.0,0.0,0.0,0.0,0.0,0.0,0.0,0.0,0.0,0.0,0.0,1.9826,1.9826,1.9559,1.947,1.947,1.947,1.9399,1.9444,1.9666,1.98,1.98,2.0107,2.0401,2.0681,2.0695,2.0855,2.1109,2.1109,2.1109,2.1109,2.1122,2.1122,2.1109,2.1136,2.1323,2.1655,2.1897,2.2178,2.2458,2.2752,2.2928,2.2928,2.2928,2.3073,2.3327,2.3327,2.3741,2.4209,2.4209,2.4409,2.4636,2.4636,2.485,2.5064,2.5064,2.5277,2.5491,2.5491,2.5478,2.5558,2.5879,2.6023,2.613,2.6333,2.6386,2.6386,2.6386,2.6386,2.6386,2.6386,2.6386,2.6386,2.6386,2.6386,2.6386,2.6386,2.6119,2.6037,2.6037,2.5665,2.5504,2.5518,2.5478,2.5478,2.5491,2.5478,2.5197,2.4636,2.4636,2.4636,2.4636,2.4636,2.4636,1.3093,1.3533,1.4199,1.5418,1.6166,1.6767,1.7368,1.7876,1.825,1.8357,1.8357,1.8437,0.0,0.0,0.0,0.0,0.0,0.0,0.0,0.0,0.0,0.0,0.0,0.0,0.0,0.0,0.0,0.0,0.0,0.0,1.8971,1.8865,1.8891,1.9078,1.9078,1.9172,1.9417,1.9466,1.9519,1.9533,1.9813,2.0107,2.0401,2.0588,2.0842,2.1109,2.1109,2.1109,2.1109,2.1109,2.1109,2.1109,2.1109,2.1176,2.1323,2.1804,2.2044,2.2205,2.2699,2.2928,2.2928,2.2928,2.3207,2.3607,2.3607,2.4022,2.4476,2.4476,2.469,2.4917,2.4917,2.5144,2.5411,2.5598,2.5718,2.5852,2.6039,2.5785,2.5598,2.5892,2.6037,2.613,2.6333,2.6386,2.6386,2.6386,2.6386,2.6386,2.6386,2.6386,2.6386,2.6386,2.6386,2.6386,2.6386,2.6293,2.6239,2.6239,2.5959,2.5879,2.6066,2.5718,2.5598,2.5798,2.5611,2.5411,2.5197,2.5197,2.5104,2.4917,2.4917,2.4823,1.2879,1.32,1.3693,1.471,1.5177,1.5565,1.6259,1.6714,1.7048,1.7248,1.7368,1.7555,0.0,0.0,0.0,0.0,0.0,0.0,0.0,0.0,0.0,0.0,0.0,0.0,0.0,0.0,0.0,0.0,0.0,0.0,1.8504,1.849,1.8624,1.8918,1.8918,1.9065,1.9417,1.943,1.943,1.943,1.9559,1.9853,2.0241,2.0441,2.0735,2.1109,2.1109,2.1109,2.1109,2.1109,2.1109,2.1109,2.1109,2.1109,2.1176,2.1764,2.1991,2.2071,2.2659,2.2928,2.2928,2.2928,2.3343,2.3768,2.3768,2.4168,2.4636,2.4636,2.485,2.5077,2.5077,2.5371,2.5732,2.6026,2.6106,2.6159,2.6346,2.6079,2.5865,2.6066,2.6106,2.6159,2.636,2.6386,2.6386,2.6386,2.6386,2.6386,2.6386,2.6386,2.6386,2.6386,2.6386,2.6386,2.6386,2.6386,2.6386,2.6386,2.6213,2.6186,2.6386,2.6012,2.5905,2.6092,2.5905,2.5812,2.5798,2.5611,2.5411,2.5224,2.5224,2.5117,0.0,0.0,0.0,1.3921,1.4269,1.471,1.5518,1.5731,1.5952,1.654,1.6446,1.6482,0.0,0.0,0.0,0.0,0.0,0.0,0.0,0.0,0.0,0.0,0.0,0.0,0.0,0.0,0.0,0.0,0.0,1.8477,1.8464,1.8477,1.8611,1.8891,1.8918,1.9065,1.9359,1.9417,1.943,1.943,1.943,1.9666,2.0167,2.0167,2.0548,2.1109,2.1109,2.1109,2.1109,2.1109,2.1109,2.1109,2.1109,2.1109,2.1176,2.1764,2.1991,2.2071,2.2659,2.2928,2.2928,2.2928,2.3273,2.3754,2.3768,2.4168,2.4623,2.4636,2.485,2.5077,2.5104,2.5531,2.6117,2.6319,2.6386,2.6386,2.6386,2.6386,2.6386,2.6386,2.6386,2.6386,2.6386,2.6386,2.6386,2.6386,2.6386,2.6386,2.6386,2.6386,2.6386,2.6386,2.64,2.64,2.6386,2.64,2.64,2.6386,2.6386,2.6386,2.6386,2.6386,2.6386,2.6386,2.6386,2.6386,2.6386,2.5812,2.5531,2.5518,2.5518,2.5518,1.2744,0.0,0.0,0.0,0.0,0.0,1.4106,1.4532,1.499,1.5364,1.5712,1.6072,0.0,0.0,0.0,0.0,0.0,0.0,0.0,0.0,0.0,0.0,0.0,0.0,0.0,0.0,0.0,0.0,1.7929,1.8076,1.7849,1.805,1.8155,1.8235,1.8648,1.8958,1.9052,1.9265,1.943,1.943,1.943,1.9666,2.0167,2.0167,2.0548,2.1109,2.1109,2.1109,2.1109,2.1109,2.1109,2.1109,2.1109,2.1109,2.1176,2.1764,2.1991,2.2071,2.2659,2.2928,2.2928,2.2928,2.3126,2.3487,2.3701,2.4035,2.4369,2.4583,2.485,2.5184,2.5598,2.5985,2.6293,2.6373,2.6386,2.6386,2.6386,2.6386,2.6386,2.6386,2.6386,2.6386,2.6386,2.6386,2.6386,2.6386,2.6386,2.6386,2.6386,2.6386,2.6386,2.6386,2.6573,2.6613,2.6413,2.6587,2.6613,2.64,2.6386,2.6386,2.6386,2.6386,2.6386,2.6386,2.6386,2.6386,2.6386,2.6226,2.6039,2.5825,2.5611,2.5518,1.3092,1.316,1.3347,1.3347,0.0,0.0,1.3734,1.3959,1.4226,0.0,1.5044,0.0,0.0,0.0,0.0,0.0,0.0,0.0,0.0,0.0,0.0,0.0,0.0,0.0,0.0,1.7114,0.0,1.7206,1.7475,1.7649,1.7582,1.7756,1.7862,1.7995,1.8328,1.8611,1.8744,1.9038,1.9185,1.9185,1.9305,1.9613,2.0054,2.0174,2.0481,2.0935,2.1056,2.1109,2.1109,2.1109,2.1109,2.1109,2.1109,2.1189,2.1349,2.1817,2.2058,2.2231,2.2699,2.2928,2.2928,2.2928,2.3153,2.3541,2.3714,2.4062,2.4422,2.4596,2.4943,2.5371,2.5838,2.6172,2.6386,2.6386,2.6386,2.6386,2.6386,2.6386,2.6386,2.6386,2.6386,2.6386,2.6386,2.6386,2.6426,2.6547,2.6573,2.6573,2.6573,2.668,2.6707,2.6587,2.6827,2.6934,2.6774,2.6907,2.6934,2.676,2.664,2.6627,2.6747,2.664,2.6573,2.6573,2.6573,2.6507,2.6386,2.6386,2.6306,2.6132,2.5959,2.5879,1.3494,1.3507,1.368,1.3613,1.344,0.0,1.3841,1.3788,1.3746,1.4226,1.4429,0.0,0.0,0.0,0.0,0.0,0.0,0.0,0.0,0.0,0.0,0.0,0.0,0.0,1.666,1.666,1.6767,1.7085,1.7166,1.7313,1.7515,1.7569,1.7716,1.7929,1.7969,1.8115,1.8437,1.8731,1.8891,1.8931,1.9185,1.9479,1.9813,2.0067,2.0361,2.0695,2.0949,2.1082,2.1109,2.1109,2.1109,2.1109,2.1109,2.1296,2.1655,2.1884,2.2164,2.2458,2.2752,2.2928,2.2928,2.2928,2.3233,2.3688,2.3754,2.4128,2.4556,2.4549,2.5037,2.5531,2.5785,2.6106,2.6346,2.6346,2.636,2.6386,2.6386,2.6386,2.6386,2.6386,2.6386,2.64,2.6426,2.6413,2.6493,2.6774,2.6827,2.6827,2.6827,2.7081,2.7161,2.6894,2.7134,2.7308,2.7268,2.7295,2.7308,2.7268,2.7014,2.6987,2.7255,2.6987,2.6827,2.6827,2.6787,2.664,2.6386,2.6386,2.6386,2.6386,2.6386,2.6386,1.4295,1.4266,1.4186,1.372,1.3733,0.0,1.3186,1.3333,1.3573,0.0,1.3841,1.4188,0.0,0.0,0.0,0.0,0.0,0.0,0.0,0.0,0.0,0.0,0.0,0.0,1.6339,1.6353,1.6429,1.6496,1.6938,1.7233,1.7286,1.7462,1.7609,1.7675,1.7916,1.8022,1.8075,1.8424,1.8691,1.8918,1.8985,1.9292,1.98,1.9853,2.0174,2.0681,2.0735,2.0895,2.1109,2.1109,2.1109,2.1109,2.1109,2.1296,2.1655,2.1884,2.2164,2.2458,2.2752,2.2928,2.2928,2.2928,2.3008,2.3196,2.3621,2.3848,2.4035,2.4502,2.489,2.5184,2.5237,2.5651,2.6117,2.6117,2.6226,2.6386,2.6386,2.6386,2.6386,2.6386,2.6386,2.6466,2.6694,2.6547,2.6493,2.6774,2.6827,2.6827,2.6827,2.7081,2.7241,2.7188,2.7442,2.7522,2.7281,2.7482,2.7509,2.7281,2.7215,2.7201,2.7268,2.6987,2.6827,2.6827,2.6587,2.6453,2.6386,2.6386,2.6386,2.6386,2.6386,2.6386,1.4776,1.4736,0.0,1.4146,0.0,0.0,0.0,1.3414,1.3467,1.3801,1.3748,1.3734,1.4028,0.0,0.0,0.0,0.0,0.0,0.0,0.0,0.0,0.0,0.0,0.0,1.6019,1.6046,1.6112,1.6308,1.6673,1.7045,1.7192,1.7141,1.7275,1.7569,1.7595,1.7675,1.7809,1.8116,1.8424,1.8704,1.8851,1.9158,1.9586,1.9733,2.004,2.0468,2.0615,2.0842,2.1109,2.1109,2.1109,2.1109,2.1109,2.1376,2.179,2.1937,2.2258,2.2659,2.2806,2.2928,2.2928,2.2928,2.2966,2.318,2.3634,2.3968,2.4262,2.4556,2.485,2.5077,2.5077,2.5411,2.5732,2.5732,2.5959,2.6172,2.6172,2.6293,2.6386,2.6386,2.6386,2.644,2.6587,2.66,2.6707,2.7001,2.7161,2.7201,2.7068,2.7295,2.7428,2.7281,2.7522,2.7696,2.7792,2.7843,2.7856,2.7792,2.7562,2.7549,2.7779,2.7415,2.7188,2.7041,2.676,2.66,2.66,2.676,2.6747,2.66,2.66,2.66,0.0,0.0,0.0,0.0,0.0,1.4335,0.0,0.0,0.0,0.0,0.0,0.0,0.0,0.0,0.0,0.0,0.0,0.0,0.0,0.0,0.0,0.0,0.0,0.0,0.0,1.5704,1.5872,1.6166,1.6406,1.666,1.7018,1.6807,1.6954,1.7527,1.7326,1.734,1.7582,1.7889,1.8196,1.849,1.8784,1.9078,1.943,1.9666,1.996,2.0254,2.0548,2.0842,2.1109,2.1109,2.1109,2.1109,2.1109,2.143,2.1897,2.1897,2.2271,2.2779,2.2779,2.2887,2.2928,2.2928,2.3113,2.346,2.3701,2.4168,2.4636,2.4636,2.481,2.4997,2.4997,2.5211,2.5424,2.5424,2.5705,2.6037,2.6037,2.6186,2.6386,2.6386,2.6386,2.6426,2.6533,2.6707,2.6947,2.7295,2.7495,2.7522,2.7295,2.7522,2.7602,2.7375,2.7615,2.7883,2.8207,2.8221,2.8221,2.8221,2.7923,2.7896,2.8221,2.7856,2.7562,2.7268,2.7028,2.6907,2.6907,2.7148,2.7148,2.6907,2.6907,2.6881,0.0,0.0,0.0,0.0,1.5084,0.0,0.0,0.0,1.3868,1.3454,0.0,0.0,0.0,0.0,0.0,0.0,0.0,0.0,0.0,0.0,0.0,0.0,0.0,0.0,0.0,0.0,1.5565,1.5858,1.5912,1.6059,1.6353,1.658,1.686,1.7246,1.7219,1.734,1.7582,1.7876,1.8183,1.849,1.8784,1.9078,1.943,1.9666,1.996,2.0254,2.0548,2.0842,2.1109,2.1109,2.1109,2.1109,2.1109,2.1309,2.1668,2.1668,2.1964,2.2472,2.2472,2.2645,2.2928,2.2928,2.3247,2.3728,2.3754,2.4168,2.4636,2.4636,2.4663,2.469,2.469,2.4903,2.513,2.513,2.5558,2.6037,2.6037,2.6186,2.6386,2.6386,2.6386,2.656,2.7081,2.6974,2.7014,2.7562,2.7455,2.7308,2.7268,2.7522,2.7682,2.7655,2.7909,2.8194,2.8221,2.8221,2.8221,2.8221,2.8194,2.8194,2.8221,2.7856,2.7562,2.7268,2.7228,2.7215,2.7215,2.7255,2.7241,2.7215,2.7215,2.7068,0.0,0.0,0.0,0.0,0.0,0.0,1.4175,0.0,1.3854,0.0,0.0,0.0,0.0,0.0,0.0,0.0,1.3347,0.0,0.0,0.0,0.0,0.0,0.0,0.0,0.0,0.0,0.0,0.0,0.0,1.5965,1.6259,1.6219,1.6406,1.6874,1.6887,1.7085,1.738,1.7796,1.8183,1.849,1.8784,1.9078,1.943,1.9666,1.996,2.0254,2.0548,2.0842,2.1109,2.1109,2.1109,2.1109,2.1109,2.1296,2.1614,2.1614,2.1817,2.2191,2.2365,2.2498,2.2632,2.2806,2.3343,2.3768,2.3768,2.4168,2.4636,2.4636,2.4636,2.4636,2.4636,2.473,2.4863,2.5037,2.5398,2.5745,2.5996,2.6186,2.6386,2.6386,2.6533,2.6774,2.7188,2.7161,2.7161,2.7415,2.7482,2.7522,2.7522,2.7468,2.7509,2.7682,2.7816,2.7949,2.8207,2.8221,2.8221,2.8221,2.8221,2.8221,2.8221,2.7856,2.7642,2.7522,2.7522,2.7522,2.7522,2.7696,2.7859,2.7846,2.7428,2.7201,1.5784,0.0,0.0,0.0,0.0,0.0,0.0,0.0,0.0,0.0,0.0,0.0,0.0,0.0,0.0,1.336,0.0,1.3267,0.0,0.0,0.0,0.0,0.0,0.0,0.0,0.0,0.0,1.5698,1.5712,1.5845,1.6139,1.5952,1.6059,1.6567,1.666,1.6847,1.7192,1.7822,1.8277,1.849,1.8865,1.9158,1.943,1.9746,1.9987,2.0134,2.0601,2.0869,2.1002,2.1082,2.1109,2.1109,2.1109,2.1243,2.143,2.143,2.1617,2.1911,2.2205,2.2405,2.2579,2.2792,2.3343,2.3768,2.3768,2.4168,2.4636,2.4636,2.4636,2.4636,2.4636,2.4636,2.4716,2.501,2.5304,2.5598,2.5892,2.6186,2.6386,2.6386,2.6627,2.6894,2.7108,2.7281,2.7415,2.7495,2.7615,2.7696,2.7696,2.7509,2.7468,2.7682,2.7776,2.7909,2.8207,2.8221,2.8221,2.8221,2.8221,2.8221,2.8221,2.7936,2.7816,2.7816,2.7816,2.7816,2.7816,2.8043,2.8221,2.8221,2.7792,2.7468,0.0,0.0,0.0,1.5236,0.0,0.0,0.0,0.0,1.4888,0.0,0.0,0.0,0.0,0.0,1.4295,1.368,1.3586,0.0,0.0,0.0,0.0,0.0,0.0,0.0,0.0,0.0,0.0,1.5391,1.5404,1.5538,1.5784,1.5832,1.5965,1.6273,1.6553,1.6847,1.7192,1.8036,1.8477,1.8504,1.9078,1.9417,1.9444,1.996,2.0067,1.9867,2.0722,2.0935,2.0708,2.0989,2.1109,2.1109,2.1109,2.1122,2.1122,2.1122,2.1309,2.1668,2.1897,2.2378,2.2914,2.2928,2.3343,2.3768,2.3768,2.4168,2.4636,2.4636,2.4636,2.4636,2.4636,2.4636,2.4716,2.501,2.5304,2.5598,2.5892,2.6186,2.6386,2.6386,2.6627,2.6827,2.6827,2.7308,2.7789,2.8154,2.7883,2.7696,2.7696,2.7696,2.7682,2.7696,2.7963,2.8221,2.8221,2.8221,2.8221,2.8221,2.8221,2.8221,2.8221,2.8221,2.8207,2.8207,2.8207,2.8207,2.8207,2.8221,2.8221,2.8221,2.8207,2.7963,0.0,0.0,1.6393,1.5712,0.0,0.0,0.0,0.0,0.0,0.0,0.0,0.0,0.0,0.0,1.4389,1.4001,1.3614,1.3213,0.0,0.0,0.0,0.0,0.0,0.0,0.0,0.0,0.0,1.5156,1.5284,1.5524,0.0,1.5784,1.5872,1.5979,1.6446,1.6754,1.686,1.7943,1.849,1.8504,1.9092,1.943,1.9386,1.9773,1.9893,1.984,2.0521,2.0762,2.0695,2.0989,2.1109,2.1109,2.1109,2.1109,2.1109,2.1109,2.1296,2.1681,2.2111,2.2525,2.2928,2.2928,2.3343,2.3768,2.3768,2.4168,2.4636,2.4636,2.4636,2.4636,2.4636,2.4636,2.4756,2.5251,2.5438,2.5651,2.6132,2.6319,2.6386,2.6386,2.6627,2.6881,2.7081,2.7442,2.7736,2.7829,2.7762,2.7762,2.7963,2.7816,2.7776,2.7976,2.8167,2.8221,2.8221,2.8221,2.8221,2.8221,2.8221,2.8221,2.8221,2.8221,2.8221,2.8221,2.8221,2.8221,2.8221,2.8221,2.8221,2.8221,2.8221,2.7989,1.6433,1.6567,0.0,1.6112,1.5845,0.0,1.4963,0.0,0.0,0.0,0.0,0.0,0.0,0.0,1.4669,1.4162,1.3681,1.3186,0.0,1.2623,0.0,0.0,0.0,0.0,0.0,0.0,1.4629,1.4981,1.5182,1.5418,0.0,0.0,1.5784,1.5784,1.6393,1.67,1.67,1.7889,1.849,1.8504,1.9092,1.943,1.943,1.9666,1.98,1.9826,2.0428,2.0681,2.0695,2.0989,2.1109,2.1109,2.1109,2.1109,2.1109,2.1109,2.1363,2.1842,2.2258,2.2619,2.2928,2.2928,2.3343,2.3768,2.3768,2.4168,2.4609,2.4516,2.4556,2.4609,2.4516,2.4556,2.4783,2.5371,2.5518,2.5678,2.6266,2.6386,2.6413,2.652,2.6787,2.7068,2.7375,2.7655,2.7856,2.7856,2.7856,2.7923,2.8207,2.7976,2.7936,2.8207,2.8221,2.8221,2.8221,2.8221,2.8221,2.8221,2.8221,2.8221,2.8221,2.8221,2.8382,2.8703,2.8395,2.8382,2.8617,2.8382,2.8221,2.8221,2.8221,2.8043]}]]